<?xml version="1.0" encoding="UTF-8" standalone="no" ?>
<gpx xmlns="http://www.topografix.com/GPX/1/1" xmlns:xsi="http://www.w3.org/2001/XMLSchema-instance" xsi:schemaLocation="http://www.topografix.com/GPX/1/1 http://www.topografix.com/GPX/1/1/gpx.xsd" version="1.1" creator="VisuGPX - https://www.visugpx.com">
  <metadata>
    <name>Rando VTT Les Meurgers - La Millerette - Le Gérier - Villez - Le Tertre</name>
    <desc><![CDATA[Rando par les chemins en plaine, attention au vent...]]></desc>
  </metadata>
  <trk>
    <name><![CDATA[Rando VTT Les Meurgers - La Millerette - Le Gérier - Villez - Le Tertre_1]]></name>
    <trkseg>
      <trkpt lat="48.88356" lon="1.09609">
        <ele>196</ele>
        <time>2014-04-13T07:49:08.000Z</time>
      </trkpt>
      <trkpt lat="48.88342" lon="1.09604">
        <ele>195</ele>
        <time>2014-04-13T07:49:18.000Z</time>
      </trkpt>
      <trkpt lat="48.8834" lon="1.09613">
        <ele>195</ele>
        <time>2014-04-13T07:49:20.000Z</time>
      </trkpt>
      <trkpt lat="48.88341" lon="1.0963">
        <ele>195</ele>
        <time>2014-04-13T07:49:24.000Z</time>
      </trkpt>
      <trkpt lat="48.88345" lon="1.09636">
        <ele>194</ele>
        <time>2014-04-13T07:49:26.000Z</time>
      </trkpt>
      <trkpt lat="48.88345" lon="1.09636">
        <ele>194</ele>
        <time>2014-04-13T07:49:28.000Z</time>
      </trkpt>
      <trkpt lat="48.88353" lon="1.09646">
        <ele>194</ele>
        <time>2014-04-13T07:49:30.000Z</time>
      </trkpt>
      <trkpt lat="48.88353" lon="1.09646">
        <ele>194</ele>
        <time>2014-04-13T07:49:32.000Z</time>
      </trkpt>
      <trkpt lat="48.88362" lon="1.09657">
        <ele>194</ele>
        <time>2014-04-13T07:49:34.000Z</time>
      </trkpt>
      <trkpt lat="48.88368" lon="1.09665">
        <ele>193</ele>
        <time>2014-04-13T07:49:36.000Z</time>
      </trkpt>
      <trkpt lat="48.88372" lon="1.09673">
        <ele>193</ele>
        <time>2014-04-13T07:49:38.000Z</time>
      </trkpt>
      <trkpt lat="48.88377" lon="1.0968">
        <ele>193</ele>
        <time>2014-04-13T07:49:40.000Z</time>
      </trkpt>
      <trkpt lat="48.88381" lon="1.09686">
        <ele>192</ele>
        <time>2014-04-13T07:49:42.000Z</time>
      </trkpt>
      <trkpt lat="48.88385" lon="1.09694">
        <ele>192</ele>
        <time>2014-04-13T07:49:44.000Z</time>
      </trkpt>
      <trkpt lat="48.8839" lon="1.09702">
        <ele>192</ele>
        <time>2014-04-13T07:49:46.000Z</time>
      </trkpt>
      <trkpt lat="48.88396" lon="1.09713">
        <ele>189</ele>
        <time>2014-04-13T07:49:48.000Z</time>
      </trkpt>
      <trkpt lat="48.88402" lon="1.09724">
        <ele>188</ele>
        <time>2014-04-13T07:49:50.000Z</time>
      </trkpt>
      <trkpt lat="48.88408" lon="1.09736">
        <ele>187</ele>
        <time>2014-04-13T07:49:52.000Z</time>
      </trkpt>
      <trkpt lat="48.88414" lon="1.0975">
        <ele>186</ele>
        <time>2014-04-13T07:49:54.000Z</time>
      </trkpt>
      <trkpt lat="48.8842" lon="1.09766">
        <ele>186</ele>
        <time>2014-04-13T07:49:56.000Z</time>
      </trkpt>
      <trkpt lat="48.88424" lon="1.09783">
        <ele>186</ele>
        <time>2014-04-13T07:49:58.000Z</time>
      </trkpt>
      <trkpt lat="48.88428" lon="1.09799">
        <ele>186</ele>
        <time>2014-04-13T07:50:00.000Z</time>
      </trkpt>
      <trkpt lat="48.88432" lon="1.09814">
        <ele>187</ele>
        <time>2014-04-13T07:50:02.000Z</time>
      </trkpt>
      <trkpt lat="48.88435" lon="1.0983">
        <ele>187</ele>
        <time>2014-04-13T07:50:04.000Z</time>
      </trkpt>
      <trkpt lat="48.88439" lon="1.09846">
        <ele>187</ele>
        <time>2014-04-13T07:50:06.000Z</time>
      </trkpt>
      <trkpt lat="48.88443" lon="1.09862">
        <ele>187</ele>
        <time>2014-04-13T07:50:08.000Z</time>
      </trkpt>
      <trkpt lat="48.88443" lon="1.0988">
        <ele>187</ele>
        <time>2014-04-13T07:50:10.000Z</time>
      </trkpt>
      <trkpt lat="48.8844" lon="1.09898">
        <ele>186</ele>
        <time>2014-04-13T07:50:12.000Z</time>
      </trkpt>
      <trkpt lat="48.88435" lon="1.09917">
        <ele>186</ele>
        <time>2014-04-13T07:50:14.000Z</time>
      </trkpt>
      <trkpt lat="48.88431" lon="1.09934">
        <ele>186</ele>
        <time>2014-04-13T07:50:16.000Z</time>
      </trkpt>
      <trkpt lat="48.88427" lon="1.09952">
        <ele>186</ele>
        <time>2014-04-13T07:50:18.000Z</time>
      </trkpt>
      <trkpt lat="48.88424" lon="1.09969">
        <ele>186</ele>
        <time>2014-04-13T07:50:20.000Z</time>
      </trkpt>
      <trkpt lat="48.8842" lon="1.09987">
        <ele>186</ele>
        <time>2014-04-13T07:50:22.000Z</time>
      </trkpt>
      <trkpt lat="48.88416" lon="1.10004">
        <ele>187</ele>
        <time>2014-04-13T07:50:24.000Z</time>
      </trkpt>
      <trkpt lat="48.88412" lon="1.10022">
        <ele>187</ele>
        <time>2014-04-13T07:50:26.000Z</time>
      </trkpt>
      <trkpt lat="48.88408" lon="1.1004">
        <ele>187</ele>
        <time>2014-04-13T07:50:28.000Z</time>
      </trkpt>
      <trkpt lat="48.88404" lon="1.10057">
        <ele>187</ele>
        <time>2014-04-13T07:50:30.000Z</time>
      </trkpt>
      <trkpt lat="48.884" lon="1.10075">
        <ele>187</ele>
        <time>2014-04-13T07:50:32.000Z</time>
      </trkpt>
      <trkpt lat="48.88396" lon="1.10092">
        <ele>189</ele>
        <time>2014-04-13T07:50:34.000Z</time>
      </trkpt>
      <trkpt lat="48.88391" lon="1.10109">
        <ele>191</ele>
        <time>2014-04-13T07:50:36.000Z</time>
      </trkpt>
      <trkpt lat="48.88388" lon="1.10126">
        <ele>192</ele>
        <time>2014-04-13T07:50:38.000Z</time>
      </trkpt>
      <trkpt lat="48.88385" lon="1.10144">
        <ele>193</ele>
        <time>2014-04-13T07:50:40.000Z</time>
      </trkpt>
      <trkpt lat="48.88382" lon="1.10162">
        <ele>194</ele>
        <time>2014-04-13T07:50:42.000Z</time>
      </trkpt>
      <trkpt lat="48.88379" lon="1.1018">
        <ele>195</ele>
        <time>2014-04-13T07:50:44.000Z</time>
      </trkpt>
      <trkpt lat="48.88375" lon="1.10197">
        <ele>195</ele>
        <time>2014-04-13T07:50:46.000Z</time>
      </trkpt>
      <trkpt lat="48.88372" lon="1.10214">
        <ele>195</ele>
        <time>2014-04-13T07:50:48.000Z</time>
      </trkpt>
      <trkpt lat="48.8837" lon="1.10231">
        <ele>195</ele>
        <time>2014-04-13T07:50:50.000Z</time>
      </trkpt>
      <trkpt lat="48.88367" lon="1.10247">
        <ele>195</ele>
        <time>2014-04-13T07:50:52.000Z</time>
      </trkpt>
      <trkpt lat="48.88365" lon="1.10264">
        <ele>195</ele>
        <time>2014-04-13T07:50:54.000Z</time>
      </trkpt>
      <trkpt lat="48.88364" lon="1.10279">
        <ele>196</ele>
        <time>2014-04-13T07:50:56.000Z</time>
      </trkpt>
      <trkpt lat="48.88363" lon="1.10296">
        <ele>196</ele>
        <time>2014-04-13T07:50:58.000Z</time>
      </trkpt>
      <trkpt lat="48.88363" lon="1.10313">
        <ele>196</ele>
        <time>2014-04-13T07:51:00.000Z</time>
      </trkpt>
      <trkpt lat="48.88362" lon="1.10329">
        <ele>195</ele>
        <time>2014-04-13T07:51:02.000Z</time>
      </trkpt>
      <trkpt lat="48.88361" lon="1.10345">
        <ele>194</ele>
        <time>2014-04-13T07:51:04.000Z</time>
      </trkpt>
      <trkpt lat="48.8836" lon="1.10362">
        <ele>193</ele>
        <time>2014-04-13T07:51:06.000Z</time>
      </trkpt>
      <trkpt lat="48.88359" lon="1.10377">
        <ele>193</ele>
        <time>2014-04-13T07:51:08.000Z</time>
      </trkpt>
      <trkpt lat="48.88359" lon="1.10393">
        <ele>193</ele>
        <time>2014-04-13T07:51:10.000Z</time>
      </trkpt>
      <trkpt lat="48.88359" lon="1.10408">
        <ele>194</ele>
        <time>2014-04-13T07:51:12.000Z</time>
      </trkpt>
      <trkpt lat="48.8836" lon="1.10424">
        <ele>194</ele>
        <time>2014-04-13T07:51:14.000Z</time>
      </trkpt>
      <trkpt lat="48.8836" lon="1.10439">
        <ele>195</ele>
        <time>2014-04-13T07:51:16.000Z</time>
      </trkpt>
      <trkpt lat="48.88361" lon="1.10454">
        <ele>195</ele>
        <time>2014-04-13T07:51:18.000Z</time>
      </trkpt>
      <trkpt lat="48.88362" lon="1.10469">
        <ele>196</ele>
        <time>2014-04-13T07:51:20.000Z</time>
      </trkpt>
      <trkpt lat="48.88363" lon="1.10484">
        <ele>196</ele>
        <time>2014-04-13T07:51:25.000Z</time>
      </trkpt>
      <trkpt lat="48.88364" lon="1.10499">
        <ele>196</ele>
        <time>2014-04-13T07:51:26.000Z</time>
      </trkpt>
      <trkpt lat="48.88365" lon="1.10513">
        <ele>196</ele>
        <time>2014-04-13T07:51:26.000Z</time>
      </trkpt>
      <trkpt lat="48.88366" lon="1.10529">
        <ele>196</ele>
        <time>2014-04-13T07:51:28.000Z</time>
      </trkpt>
      <trkpt lat="48.88366" lon="1.10544">
        <ele>196</ele>
        <time>2014-04-13T07:51:30.000Z</time>
      </trkpt>
      <trkpt lat="48.88366" lon="1.10559">
        <ele>196</ele>
        <time>2014-04-13T07:51:32.000Z</time>
      </trkpt>
      <trkpt lat="48.88366" lon="1.10574">
        <ele>196</ele>
        <time>2014-04-13T07:51:34.000Z</time>
      </trkpt>
      <trkpt lat="48.88365" lon="1.10589">
        <ele>196</ele>
        <time>2014-04-13T07:51:36.000Z</time>
      </trkpt>
      <trkpt lat="48.88365" lon="1.10603">
        <ele>196</ele>
        <time>2014-04-13T07:51:38.000Z</time>
      </trkpt>
      <trkpt lat="48.88365" lon="1.10619">
        <ele>196</ele>
        <time>2014-04-13T07:51:40.000Z</time>
      </trkpt>
      <trkpt lat="48.88364" lon="1.10634">
        <ele>197</ele>
        <time>2014-04-13T07:51:42.000Z</time>
      </trkpt>
      <trkpt lat="48.88364" lon="1.1065">
        <ele>197</ele>
        <time>2014-04-13T07:51:44.000Z</time>
      </trkpt>
      <trkpt lat="48.88363" lon="1.10665">
        <ele>197</ele>
        <time>2014-04-13T07:51:46.000Z</time>
      </trkpt>
      <trkpt lat="48.88362" lon="1.1068">
        <ele>197</ele>
        <time>2014-04-13T07:51:48.000Z</time>
      </trkpt>
      <trkpt lat="48.88361" lon="1.10695">
        <ele>197</ele>
        <time>2014-04-13T07:51:50.000Z</time>
      </trkpt>
      <trkpt lat="48.88359" lon="1.10711">
        <ele>197</ele>
        <time>2014-04-13T07:51:52.000Z</time>
      </trkpt>
      <trkpt lat="48.88357" lon="1.10726">
        <ele>197</ele>
        <time>2014-04-13T07:51:54.000Z</time>
      </trkpt>
      <trkpt lat="48.88356" lon="1.1074">
        <ele>197</ele>
        <time>2014-04-13T07:51:56.000Z</time>
      </trkpt>
      <trkpt lat="48.88353" lon="1.10757">
        <ele>197</ele>
        <time>2014-04-13T07:51:58.000Z</time>
      </trkpt>
      <trkpt lat="48.88351" lon="1.10772">
        <ele>197</ele>
        <time>2014-04-13T07:52:00.000Z</time>
      </trkpt>
      <trkpt lat="48.8835" lon="1.10786">
        <ele>198</ele>
        <time>2014-04-13T07:52:02.000Z</time>
      </trkpt>
      <trkpt lat="48.88347" lon="1.10801">
        <ele>198</ele>
        <time>2014-04-13T07:52:04.000Z</time>
      </trkpt>
      <trkpt lat="48.88345" lon="1.10816">
        <ele>198</ele>
        <time>2014-04-13T07:52:06.000Z</time>
      </trkpt>
      <trkpt lat="48.88342" lon="1.10832">
        <ele>198</ele>
        <time>2014-04-13T07:52:08.000Z</time>
      </trkpt>
      <trkpt lat="48.8834" lon="1.10847">
        <ele>198</ele>
        <time>2014-04-13T07:52:10.000Z</time>
      </trkpt>
      <trkpt lat="48.88338" lon="1.10861">
        <ele>198</ele>
        <time>2014-04-13T07:52:12.000Z</time>
      </trkpt>
      <trkpt lat="48.88337" lon="1.10876">
        <ele>199</ele>
        <time>2014-04-13T07:52:14.000Z</time>
      </trkpt>
      <trkpt lat="48.88336" lon="1.10891">
        <ele>199</ele>
        <time>2014-04-13T07:52:16.000Z</time>
      </trkpt>
      <trkpt lat="48.88335" lon="1.10906">
        <ele>199</ele>
        <time>2014-04-13T07:52:18.000Z</time>
      </trkpt>
      <trkpt lat="48.88335" lon="1.10921">
        <ele>199</ele>
        <time>2014-04-13T07:52:21.000Z</time>
      </trkpt>
      <trkpt lat="48.88334" lon="1.10937">
        <ele>199</ele>
        <time>2014-04-13T07:52:22.000Z</time>
      </trkpt>
      <trkpt lat="48.88334" lon="1.10951">
        <ele>199</ele>
        <time>2014-04-13T07:52:24.000Z</time>
      </trkpt>
      <trkpt lat="48.88333" lon="1.10967">
        <ele>199</ele>
        <time>2014-04-13T07:52:26.000Z</time>
      </trkpt>
      <trkpt lat="48.88332" lon="1.10982">
        <ele>199</ele>
        <time>2014-04-13T07:52:28.000Z</time>
      </trkpt>
      <trkpt lat="48.88332" lon="1.10997">
        <ele>199</ele>
        <time>2014-04-13T07:52:30.000Z</time>
      </trkpt>
      <trkpt lat="48.88331" lon="1.11012">
        <ele>200</ele>
        <time>2014-04-13T07:52:32.000Z</time>
      </trkpt>
      <trkpt lat="48.88331" lon="1.11027">
        <ele>200</ele>
        <time>2014-04-13T07:52:34.000Z</time>
      </trkpt>
      <trkpt lat="48.8833" lon="1.11042">
        <ele>200</ele>
        <time>2014-04-13T07:52:36.000Z</time>
      </trkpt>
      <trkpt lat="48.8833" lon="1.11058">
        <ele>200</ele>
        <time>2014-04-13T07:52:38.000Z</time>
      </trkpt>
      <trkpt lat="48.8833" lon="1.11073">
        <ele>200</ele>
        <time>2014-04-13T07:52:40.000Z</time>
      </trkpt>
      <trkpt lat="48.88329" lon="1.11088">
        <ele>201</ele>
        <time>2014-04-13T07:52:42.000Z</time>
      </trkpt>
      <trkpt lat="48.88329" lon="1.11103">
        <ele>201</ele>
        <time>2014-04-13T07:52:44.000Z</time>
      </trkpt>
      <trkpt lat="48.88328" lon="1.11118">
        <ele>201</ele>
        <time>2014-04-13T07:52:46.000Z</time>
      </trkpt>
      <trkpt lat="48.88327" lon="1.11133">
        <ele>201</ele>
        <time>2014-04-13T07:52:48.000Z</time>
      </trkpt>
      <trkpt lat="48.88326" lon="1.11148">
        <ele>201</ele>
        <time>2014-04-13T07:52:50.000Z</time>
      </trkpt>
      <trkpt lat="48.88326" lon="1.11162">
        <ele>201</ele>
        <time>2014-04-13T07:52:52.000Z</time>
      </trkpt>
      <trkpt lat="48.88324" lon="1.11177">
        <ele>201</ele>
        <time>2014-04-13T07:52:54.000Z</time>
      </trkpt>
      <trkpt lat="48.88323" lon="1.11191">
        <ele>202</ele>
        <time>2014-04-13T07:52:56.000Z</time>
      </trkpt>
      <trkpt lat="48.88322" lon="1.11205">
        <ele>202</ele>
        <time>2014-04-13T07:52:58.000Z</time>
      </trkpt>
      <trkpt lat="48.88322" lon="1.11221">
        <ele>202</ele>
        <time>2014-04-13T07:53:00.000Z</time>
      </trkpt>
      <trkpt lat="48.88321" lon="1.11235">
        <ele>202</ele>
        <time>2014-04-13T07:53:02.000Z</time>
      </trkpt>
      <trkpt lat="48.88321" lon="1.11249">
        <ele>203</ele>
        <time>2014-04-13T07:53:04.000Z</time>
      </trkpt>
      <trkpt lat="48.88321" lon="1.11263">
        <ele>203</ele>
        <time>2014-04-13T07:53:06.000Z</time>
      </trkpt>
      <trkpt lat="48.8832" lon="1.11278">
        <ele>203</ele>
        <time>2014-04-13T07:53:08.000Z</time>
      </trkpt>
      <trkpt lat="48.88319" lon="1.11292">
        <ele>203</ele>
        <time>2014-04-13T07:53:10.000Z</time>
      </trkpt>
      <trkpt lat="48.88319" lon="1.11306">
        <ele>203</ele>
        <time>2014-04-13T07:53:12.000Z</time>
      </trkpt>
      <trkpt lat="48.88318" lon="1.1132">
        <ele>203</ele>
        <time>2014-04-13T07:53:14.000Z</time>
      </trkpt>
      <trkpt lat="48.88318" lon="1.11335">
        <ele>203</ele>
        <time>2014-04-13T07:53:16.000Z</time>
      </trkpt>
      <trkpt lat="48.88317" lon="1.11349">
        <ele>203</ele>
        <time>2014-04-13T07:53:18.000Z</time>
      </trkpt>
      <trkpt lat="48.88317" lon="1.11363">
        <ele>203</ele>
        <time>2014-04-13T07:53:20.000Z</time>
      </trkpt>
      <trkpt lat="48.88317" lon="1.11378">
        <ele>203</ele>
        <time>2014-04-13T07:53:22.000Z</time>
      </trkpt>
      <trkpt lat="48.88317" lon="1.11393">
        <ele>203</ele>
        <time>2014-04-13T07:53:24.000Z</time>
      </trkpt>
      <trkpt lat="48.88318" lon="1.11407">
        <ele>203</ele>
        <time>2014-04-13T07:53:26.000Z</time>
      </trkpt>
      <trkpt lat="48.88318" lon="1.11422">
        <ele>204</ele>
        <time>2014-04-13T07:53:28.000Z</time>
      </trkpt>
      <trkpt lat="48.88317" lon="1.11435">
        <ele>204</ele>
        <time>2014-04-13T07:53:30.000Z</time>
      </trkpt>
      <trkpt lat="48.88316" lon="1.11451">
        <ele>204</ele>
        <time>2014-04-13T07:53:32.000Z</time>
      </trkpt>
      <trkpt lat="48.88315" lon="1.11468">
        <ele>205</ele>
        <time>2014-04-13T07:53:34.000Z</time>
      </trkpt>
      <trkpt lat="48.88314" lon="1.11485">
        <ele>205</ele>
        <time>2014-04-13T07:53:36.000Z</time>
      </trkpt>
      <trkpt lat="48.88313" lon="1.11502">
        <ele>204</ele>
        <time>2014-04-13T07:53:38.000Z</time>
      </trkpt>
      <trkpt lat="48.88313" lon="1.1152">
        <ele>204</ele>
        <time>2014-04-13T07:53:40.000Z</time>
      </trkpt>
      <trkpt lat="48.88312" lon="1.11538">
        <ele>204</ele>
        <time>2014-04-13T07:53:42.000Z</time>
      </trkpt>
      <trkpt lat="48.88312" lon="1.11555">
        <ele>204</ele>
        <time>2014-04-13T07:53:44.000Z</time>
      </trkpt>
      <trkpt lat="48.88311" lon="1.11572">
        <ele>203</ele>
        <time>2014-04-13T07:53:46.000Z</time>
      </trkpt>
      <trkpt lat="48.88311" lon="1.1159">
        <ele>203</ele>
        <time>2014-04-13T07:53:48.000Z</time>
      </trkpt>
      <trkpt lat="48.88311" lon="1.11608">
        <ele>203</ele>
        <time>2014-04-13T07:53:50.000Z</time>
      </trkpt>
      <trkpt lat="48.8831" lon="1.11626">
        <ele>203</ele>
        <time>2014-04-13T07:53:52.000Z</time>
      </trkpt>
      <trkpt lat="48.88309" lon="1.11643">
        <ele>202</ele>
        <time>2014-04-13T07:53:54.000Z</time>
      </trkpt>
      <trkpt lat="48.88309" lon="1.11661">
        <ele>202</ele>
        <time>2014-04-13T07:53:56.000Z</time>
      </trkpt>
      <trkpt lat="48.88308" lon="1.11678">
        <ele>202</ele>
        <time>2014-04-13T07:53:58.000Z</time>
      </trkpt>
      <trkpt lat="48.88307" lon="1.11694">
        <ele>202</ele>
        <time>2014-04-13T07:54:00.000Z</time>
      </trkpt>
      <trkpt lat="48.88307" lon="1.11711">
        <ele>201</ele>
        <time>2014-04-13T07:54:02.000Z</time>
      </trkpt>
      <trkpt lat="48.88306" lon="1.11729">
        <ele>201</ele>
        <time>2014-04-13T07:54:04.000Z</time>
      </trkpt>
      <trkpt lat="48.88305" lon="1.11746">
        <ele>201</ele>
        <time>2014-04-13T07:54:06.000Z</time>
      </trkpt>
      <trkpt lat="48.88306" lon="1.1176">
        <ele>201</ele>
        <time>2014-04-13T07:54:08.000Z</time>
      </trkpt>
      <trkpt lat="48.88312" lon="1.11766">
        <ele>201</ele>
        <time>2014-04-13T07:54:10.000Z</time>
      </trkpt>
      <trkpt lat="48.88322" lon="1.11766">
        <ele>201</ele>
        <time>2014-04-13T07:54:12.000Z</time>
      </trkpt>
      <trkpt lat="48.88332" lon="1.11763">
        <ele>203</ele>
        <time>2014-04-13T07:54:14.000Z</time>
      </trkpt>
      <trkpt lat="48.88342" lon="1.11759">
        <ele>203</ele>
        <time>2014-04-13T07:54:16.000Z</time>
      </trkpt>
      <trkpt lat="48.88353" lon="1.11756">
        <ele>203</ele>
        <time>2014-04-13T07:54:18.000Z</time>
      </trkpt>
      <trkpt lat="48.88365" lon="1.11753">
        <ele>203</ele>
        <time>2014-04-13T07:54:20.000Z</time>
      </trkpt>
      <trkpt lat="48.88377" lon="1.1175">
        <ele>203</ele>
        <time>2014-04-13T07:54:22.000Z</time>
      </trkpt>
      <trkpt lat="48.88389" lon="1.11748">
        <ele>203</ele>
        <time>2014-04-13T07:54:24.000Z</time>
      </trkpt>
      <trkpt lat="48.88401" lon="1.11745">
        <ele>204</ele>
        <time>2014-04-13T07:54:26.000Z</time>
      </trkpt>
      <trkpt lat="48.88414" lon="1.11742">
        <ele>204</ele>
        <time>2014-04-13T07:54:28.000Z</time>
      </trkpt>
      <trkpt lat="48.88427" lon="1.11737">
        <ele>203</ele>
        <time>2014-04-13T07:54:30.000Z</time>
      </trkpt>
      <trkpt lat="48.8844" lon="1.11733">
        <ele>203</ele>
        <time>2014-04-13T07:54:32.000Z</time>
      </trkpt>
      <trkpt lat="48.88451" lon="1.11727">
        <ele>202</ele>
        <time>2014-04-13T07:54:34.000Z</time>
      </trkpt>
      <trkpt lat="48.88463" lon="1.11721">
        <ele>202</ele>
        <time>2014-04-13T07:54:36.000Z</time>
      </trkpt>
      <trkpt lat="48.88475" lon="1.11713">
        <ele>202</ele>
        <time>2014-04-13T07:54:38.000Z</time>
      </trkpt>
      <trkpt lat="48.88487" lon="1.11704">
        <ele>202</ele>
        <time>2014-04-13T07:54:40.000Z</time>
      </trkpt>
      <trkpt lat="48.88498" lon="1.11694">
        <ele>201</ele>
        <time>2014-04-13T07:54:42.000Z</time>
      </trkpt>
      <trkpt lat="48.88509" lon="1.11684">
        <ele>201</ele>
        <time>2014-04-13T07:54:44.000Z</time>
      </trkpt>
      <trkpt lat="48.88519" lon="1.11673">
        <ele>201</ele>
        <time>2014-04-13T07:54:47.000Z</time>
      </trkpt>
      <trkpt lat="48.8853" lon="1.11661">
        <ele>201</ele>
        <time>2014-04-13T07:54:48.000Z</time>
      </trkpt>
      <trkpt lat="48.88541" lon="1.11649">
        <ele>200</ele>
        <time>2014-04-13T07:54:50.000Z</time>
      </trkpt>
      <trkpt lat="48.88552" lon="1.11636">
        <ele>200</ele>
        <time>2014-04-13T07:54:52.000Z</time>
      </trkpt>
      <trkpt lat="48.88562" lon="1.11624">
        <ele>199</ele>
        <time>2014-04-13T07:54:54.000Z</time>
      </trkpt>
      <trkpt lat="48.88573" lon="1.11612">
        <ele>199</ele>
        <time>2014-04-13T07:54:56.000Z</time>
      </trkpt>
      <trkpt lat="48.88585" lon="1.116">
        <ele>199</ele>
        <time>2014-04-13T07:54:58.000Z</time>
      </trkpt>
      <trkpt lat="48.88596" lon="1.11588">
        <ele>199</ele>
        <time>2014-04-13T07:55:00.000Z</time>
      </trkpt>
      <trkpt lat="48.88606" lon="1.11577">
        <ele>198</ele>
        <time>2014-04-13T07:55:02.000Z</time>
      </trkpt>
      <trkpt lat="48.88617" lon="1.11567">
        <ele>198</ele>
        <time>2014-04-13T07:55:04.000Z</time>
      </trkpt>
      <trkpt lat="48.88626" lon="1.11557">
        <ele>199</ele>
        <time>2014-04-13T07:55:06.000Z</time>
      </trkpt>
      <trkpt lat="48.88636" lon="1.11548">
        <ele>199</ele>
        <time>2014-04-13T07:55:08.000Z</time>
      </trkpt>
      <trkpt lat="48.88646" lon="1.11539">
        <ele>199</ele>
        <time>2014-04-13T07:55:10.000Z</time>
      </trkpt>
      <trkpt lat="48.88655" lon="1.1153">
        <ele>199</ele>
        <time>2014-04-13T07:55:12.000Z</time>
      </trkpt>
      <trkpt lat="48.88664" lon="1.11521">
        <ele>200</ele>
        <time>2014-04-13T07:55:14.000Z</time>
      </trkpt>
      <trkpt lat="48.88673" lon="1.11512">
        <ele>201</ele>
        <time>2014-04-13T07:55:16.000Z</time>
      </trkpt>
      <trkpt lat="48.88683" lon="1.11504">
        <ele>202</ele>
        <time>2014-04-13T07:55:18.000Z</time>
      </trkpt>
      <trkpt lat="48.88692" lon="1.11496">
        <ele>202</ele>
        <time>2014-04-13T07:55:20.000Z</time>
      </trkpt>
      <trkpt lat="48.88703" lon="1.11488">
        <ele>202</ele>
        <time>2014-04-13T07:55:22.000Z</time>
      </trkpt>
      <trkpt lat="48.88713" lon="1.1148">
        <ele>201</ele>
        <time>2014-04-13T07:55:24.000Z</time>
      </trkpt>
      <trkpt lat="48.88722" lon="1.11472">
        <ele>201</ele>
        <time>2014-04-13T07:55:26.000Z</time>
      </trkpt>
      <trkpt lat="48.88731" lon="1.11466">
        <ele>200</ele>
        <time>2014-04-13T07:55:28.000Z</time>
      </trkpt>
      <trkpt lat="48.8874" lon="1.11459">
        <ele>200</ele>
        <time>2014-04-13T07:55:30.000Z</time>
      </trkpt>
      <trkpt lat="48.88749" lon="1.11453">
        <ele>200</ele>
        <time>2014-04-13T07:55:32.000Z</time>
      </trkpt>
      <trkpt lat="48.88757" lon="1.11446">
        <ele>200</ele>
        <time>2014-04-13T07:55:34.000Z</time>
      </trkpt>
      <trkpt lat="48.88766" lon="1.11439">
        <ele>199</ele>
        <time>2014-04-13T07:55:36.000Z</time>
      </trkpt>
      <trkpt lat="48.88775" lon="1.11431">
        <ele>199</ele>
        <time>2014-04-13T07:55:38.000Z</time>
      </trkpt>
      <trkpt lat="48.88783" lon="1.11422">
        <ele>199</ele>
        <time>2014-04-13T07:55:40.000Z</time>
      </trkpt>
      <trkpt lat="48.88792" lon="1.11413">
        <ele>198</ele>
        <time>2014-04-13T07:55:42.000Z</time>
      </trkpt>
      <trkpt lat="48.88799" lon="1.11404">
        <ele>198</ele>
        <time>2014-04-13T07:55:44.000Z</time>
      </trkpt>
      <trkpt lat="48.88807" lon="1.11395">
        <ele>198</ele>
        <time>2014-04-13T07:55:46.000Z</time>
      </trkpt>
      <trkpt lat="48.88814" lon="1.11385">
        <ele>198</ele>
        <time>2014-04-13T07:55:48.000Z</time>
      </trkpt>
      <trkpt lat="48.88821" lon="1.11375">
        <ele>198</ele>
        <time>2014-04-13T07:55:50.000Z</time>
      </trkpt>
      <trkpt lat="48.88828" lon="1.11364">
        <ele>198</ele>
        <time>2014-04-13T07:55:52.000Z</time>
      </trkpt>
      <trkpt lat="48.88836" lon="1.11353">
        <ele>198</ele>
        <time>2014-04-13T07:55:54.000Z</time>
      </trkpt>
      <trkpt lat="48.88842" lon="1.11342">
        <ele>199</ele>
        <time>2014-04-13T07:55:56.000Z</time>
      </trkpt>
      <trkpt lat="48.88849" lon="1.11331">
        <ele>199</ele>
        <time>2014-04-13T07:55:58.000Z</time>
      </trkpt>
      <trkpt lat="48.88855" lon="1.1132">
        <ele>199</ele>
        <time>2014-04-13T07:56:00.000Z</time>
      </trkpt>
      <trkpt lat="48.88862" lon="1.11309">
        <ele>199</ele>
        <time>2014-04-13T07:56:02.000Z</time>
      </trkpt>
      <trkpt lat="48.88869" lon="1.11299">
        <ele>200</ele>
        <time>2014-04-13T07:56:05.000Z</time>
      </trkpt>
      <trkpt lat="48.88876" lon="1.11288">
        <ele>200</ele>
        <time>2014-04-13T07:56:06.000Z</time>
      </trkpt>
      <trkpt lat="48.88883" lon="1.11277">
        <ele>200</ele>
        <time>2014-04-13T07:56:08.000Z</time>
      </trkpt>
      <trkpt lat="48.8889" lon="1.11266">
        <ele>200</ele>
        <time>2014-04-13T07:56:10.000Z</time>
      </trkpt>
      <trkpt lat="48.88897" lon="1.11256">
        <ele>200</ele>
        <time>2014-04-13T07:56:12.000Z</time>
      </trkpt>
      <trkpt lat="48.88905" lon="1.11246">
        <ele>200</ele>
        <time>2014-04-13T07:56:14.000Z</time>
      </trkpt>
      <trkpt lat="48.88913" lon="1.11235">
        <ele>200</ele>
        <time>2014-04-13T07:56:16.000Z</time>
      </trkpt>
      <trkpt lat="48.88922" lon="1.11226">
        <ele>200</ele>
        <time>2014-04-13T07:56:18.000Z</time>
      </trkpt>
      <trkpt lat="48.88931" lon="1.11217">
        <ele>200</ele>
        <time>2014-04-13T07:56:20.000Z</time>
      </trkpt>
      <trkpt lat="48.88939" lon="1.11209">
        <ele>201</ele>
        <time>2014-04-13T07:56:22.000Z</time>
      </trkpt>
      <trkpt lat="48.88948" lon="1.11201">
        <ele>201</ele>
        <time>2014-04-13T07:56:24.000Z</time>
      </trkpt>
      <trkpt lat="48.88958" lon="1.11193">
        <ele>201</ele>
        <time>2014-04-13T07:56:26.000Z</time>
      </trkpt>
      <trkpt lat="48.88967" lon="1.11186">
        <ele>201</ele>
        <time>2014-04-13T07:56:28.000Z</time>
      </trkpt>
      <trkpt lat="48.88977" lon="1.11179">
        <ele>201</ele>
        <time>2014-04-13T07:56:30.000Z</time>
      </trkpt>
      <trkpt lat="48.88987" lon="1.11172">
        <ele>201</ele>
        <time>2014-04-13T07:56:32.000Z</time>
      </trkpt>
      <trkpt lat="48.88998" lon="1.11165">
        <ele>201</ele>
        <time>2014-04-13T07:56:34.000Z</time>
      </trkpt>
      <trkpt lat="48.8901" lon="1.11159">
        <ele>201</ele>
        <time>2014-04-13T07:56:36.000Z</time>
      </trkpt>
      <trkpt lat="48.89022" lon="1.11154">
        <ele>201</ele>
        <time>2014-04-13T07:56:38.000Z</time>
      </trkpt>
      <trkpt lat="48.89034" lon="1.1115">
        <ele>201</ele>
        <time>2014-04-13T07:56:40.000Z</time>
      </trkpt>
      <trkpt lat="48.89046" lon="1.11147">
        <ele>201</ele>
        <time>2014-04-13T07:56:42.000Z</time>
      </trkpt>
      <trkpt lat="48.89058" lon="1.11144">
        <ele>200</ele>
        <time>2014-04-13T07:56:44.000Z</time>
      </trkpt>
      <trkpt lat="48.89071" lon="1.11142">
        <ele>200</ele>
        <time>2014-04-13T07:56:46.000Z</time>
      </trkpt>
      <trkpt lat="48.89082" lon="1.11139">
        <ele>199</ele>
        <time>2014-04-13T07:56:48.000Z</time>
      </trkpt>
      <trkpt lat="48.89095" lon="1.11137">
        <ele>199</ele>
        <time>2014-04-13T07:56:50.000Z</time>
      </trkpt>
      <trkpt lat="48.89106" lon="1.11135">
        <ele>199</ele>
        <time>2014-04-13T07:56:52.000Z</time>
      </trkpt>
      <trkpt lat="48.89118" lon="1.11133">
        <ele>198</ele>
        <time>2014-04-13T07:56:54.000Z</time>
      </trkpt>
      <trkpt lat="48.89129" lon="1.11132">
        <ele>199</ele>
        <time>2014-04-13T07:56:56.000Z</time>
      </trkpt>
      <trkpt lat="48.89141" lon="1.11131">
        <ele>198</ele>
        <time>2014-04-13T07:56:58.000Z</time>
      </trkpt>
      <trkpt lat="48.89152" lon="1.1113">
        <ele>198</ele>
        <time>2014-04-13T07:57:00.000Z</time>
      </trkpt>
      <trkpt lat="48.89163" lon="1.11129">
        <ele>199</ele>
        <time>2014-04-13T07:57:02.000Z</time>
      </trkpt>
      <trkpt lat="48.89174" lon="1.11129">
        <ele>199</ele>
        <time>2014-04-13T07:57:04.000Z</time>
      </trkpt>
      <trkpt lat="48.89185" lon="1.1113">
        <ele>199</ele>
        <time>2014-04-13T07:57:06.000Z</time>
      </trkpt>
      <trkpt lat="48.89195" lon="1.11132">
        <ele>199</ele>
        <time>2014-04-13T07:57:08.000Z</time>
      </trkpt>
      <trkpt lat="48.89204" lon="1.1114">
        <ele>199</ele>
        <time>2014-04-13T07:57:10.000Z</time>
      </trkpt>
      <trkpt lat="48.89207" lon="1.11152">
        <ele>199</ele>
        <time>2014-04-13T07:57:12.000Z</time>
      </trkpt>
      <trkpt lat="48.89209" lon="1.11163">
        <ele>199</ele>
        <time>2014-04-13T07:57:14.000Z</time>
      </trkpt>
      <trkpt lat="48.89211" lon="1.11172">
        <ele>199</ele>
        <time>2014-04-13T07:57:16.000Z</time>
      </trkpt>
      <trkpt lat="48.89214" lon="1.11181">
        <ele>199</ele>
        <time>2014-04-13T07:57:18.000Z</time>
      </trkpt>
      <trkpt lat="48.89214" lon="1.11181">
        <ele>199</ele>
        <time>2014-04-13T07:57:20.000Z</time>
      </trkpt>
      <trkpt lat="48.8922" lon="1.11193">
        <ele>199</ele>
        <time>2014-04-13T07:57:22.000Z</time>
      </trkpt>
      <trkpt lat="48.8922" lon="1.11193">
        <ele>199</ele>
        <time>2014-04-13T07:57:24.000Z</time>
      </trkpt>
      <trkpt lat="48.89225" lon="1.11203">
        <ele>199</ele>
        <time>2014-04-13T07:57:26.000Z</time>
      </trkpt>
      <trkpt lat="48.89225" lon="1.11203">
        <ele>199</ele>
        <time>2014-04-13T07:57:28.000Z</time>
      </trkpt>
      <trkpt lat="48.89232" lon="1.11209">
        <ele>199</ele>
        <time>2014-04-13T07:57:30.000Z</time>
      </trkpt>
      <trkpt lat="48.89232" lon="1.11209">
        <ele>199</ele>
        <time>2014-04-13T07:57:32.000Z</time>
      </trkpt>
      <trkpt lat="48.89242" lon="1.112">
        <ele>200</ele>
        <time>2014-04-13T07:57:34.000Z</time>
      </trkpt>
      <trkpt lat="48.89246" lon="1.11193">
        <ele>200</ele>
        <time>2014-04-13T07:57:36.000Z</time>
      </trkpt>
      <trkpt lat="48.89253" lon="1.11182">
        <ele>200</ele>
        <time>2014-04-13T07:57:40.000Z</time>
      </trkpt>
      <trkpt lat="48.89253" lon="1.11182">
        <ele>200</ele>
        <time>2014-04-13T07:57:42.000Z</time>
      </trkpt>
      <trkpt lat="48.8926" lon="1.11172">
        <ele>200</ele>
        <time>2014-04-13T07:57:44.000Z</time>
      </trkpt>
      <trkpt lat="48.8926" lon="1.11172">
        <ele>200</ele>
        <time>2014-04-13T07:57:46.000Z</time>
      </trkpt>
      <trkpt lat="48.89267" lon="1.11167">
        <ele>200</ele>
        <time>2014-04-13T07:57:48.000Z</time>
      </trkpt>
      <trkpt lat="48.89267" lon="1.11167">
        <ele>200</ele>
        <time>2014-04-13T07:57:50.000Z</time>
      </trkpt>
      <trkpt lat="48.89272" lon="1.11175">
        <ele>200</ele>
        <time>2014-04-13T07:57:52.000Z</time>
      </trkpt>
      <trkpt lat="48.8928" lon="1.11186">
        <ele>200</ele>
        <time>2014-04-13T07:57:56.000Z</time>
      </trkpt>
      <trkpt lat="48.89285" lon="1.11188">
        <ele>200</ele>
        <time>2014-04-13T07:57:58.000Z</time>
      </trkpt>
      <trkpt lat="48.89292" lon="1.11189">
        <ele>200</ele>
        <time>2014-04-13T07:58:00.000Z</time>
      </trkpt>
      <trkpt lat="48.89299" lon="1.1119">
        <ele>200</ele>
        <time>2014-04-13T07:58:02.000Z</time>
      </trkpt>
      <trkpt lat="48.89305" lon="1.11193">
        <ele>200</ele>
        <time>2014-04-13T07:58:04.000Z</time>
      </trkpt>
      <trkpt lat="48.89312" lon="1.11196">
        <ele>201</ele>
        <time>2014-04-13T07:58:06.000Z</time>
      </trkpt>
      <trkpt lat="48.89319" lon="1.11201">
        <ele>201</ele>
        <time>2014-04-13T07:58:08.000Z</time>
      </trkpt>
      <trkpt lat="48.89325" lon="1.11209">
        <ele>201</ele>
        <time>2014-04-13T07:58:10.000Z</time>
      </trkpt>
      <trkpt lat="48.89331" lon="1.11217">
        <ele>201</ele>
        <time>2014-04-13T07:58:12.000Z</time>
      </trkpt>
      <trkpt lat="48.89336" lon="1.11225">
        <ele>201</ele>
        <time>2014-04-13T07:58:14.000Z</time>
      </trkpt>
      <trkpt lat="48.89342" lon="1.11233">
        <ele>201</ele>
        <time>2014-04-13T07:58:16.000Z</time>
      </trkpt>
      <trkpt lat="48.89347" lon="1.11241">
        <ele>201</ele>
        <time>2014-04-13T07:58:18.000Z</time>
      </trkpt>
      <trkpt lat="48.89352" lon="1.11249">
        <ele>201</ele>
        <time>2014-04-13T07:58:20.000Z</time>
      </trkpt>
      <trkpt lat="48.89358" lon="1.11257">
        <ele>201</ele>
        <time>2014-04-13T07:58:22.000Z</time>
      </trkpt>
      <trkpt lat="48.89363" lon="1.11264">
        <ele>201</ele>
        <time>2014-04-13T07:58:24.000Z</time>
      </trkpt>
      <trkpt lat="48.89369" lon="1.11273">
        <ele>201</ele>
        <time>2014-04-13T07:58:26.000Z</time>
      </trkpt>
      <trkpt lat="48.89375" lon="1.1128">
        <ele>201</ele>
        <time>2014-04-13T07:58:28.000Z</time>
      </trkpt>
      <trkpt lat="48.8938" lon="1.11288">
        <ele>201</ele>
        <time>2014-04-13T07:58:30.000Z</time>
      </trkpt>
      <trkpt lat="48.89386" lon="1.11296">
        <ele>202</ele>
        <time>2014-04-13T07:58:32.000Z</time>
      </trkpt>
      <trkpt lat="48.89392" lon="1.11305">
        <ele>203</ele>
        <time>2014-04-13T07:58:34.000Z</time>
      </trkpt>
      <trkpt lat="48.89398" lon="1.11314">
        <ele>204</ele>
        <time>2014-04-13T07:58:36.000Z</time>
      </trkpt>
      <trkpt lat="48.89404" lon="1.11322">
        <ele>204</ele>
        <time>2014-04-13T07:58:38.000Z</time>
      </trkpt>
      <trkpt lat="48.8941" lon="1.11329">
        <ele>204</ele>
        <time>2014-04-13T07:58:40.000Z</time>
      </trkpt>
      <trkpt lat="48.89417" lon="1.11336">
        <ele>204</ele>
        <time>2014-04-13T07:58:42.000Z</time>
      </trkpt>
      <trkpt lat="48.89423" lon="1.11344">
        <ele>204</ele>
        <time>2014-04-13T07:58:44.000Z</time>
      </trkpt>
      <trkpt lat="48.8943" lon="1.11353">
        <ele>204</ele>
        <time>2014-04-13T07:58:46.000Z</time>
      </trkpt>
      <trkpt lat="48.89437" lon="1.11362">
        <ele>204</ele>
        <time>2014-04-13T07:58:48.000Z</time>
      </trkpt>
      <trkpt lat="48.89444" lon="1.1137">
        <ele>205</ele>
        <time>2014-04-13T07:58:50.000Z</time>
      </trkpt>
      <trkpt lat="48.89451" lon="1.11379">
        <ele>205</ele>
        <time>2014-04-13T07:58:52.000Z</time>
      </trkpt>
      <trkpt lat="48.89459" lon="1.11387">
        <ele>204</ele>
        <time>2014-04-13T07:58:54.000Z</time>
      </trkpt>
      <trkpt lat="48.89466" lon="1.11396">
        <ele>204</ele>
        <time>2014-04-13T07:58:56.000Z</time>
      </trkpt>
      <trkpt lat="48.89474" lon="1.11405">
        <ele>203</ele>
        <time>2014-04-13T07:58:58.000Z</time>
      </trkpt>
      <trkpt lat="48.89482" lon="1.11415">
        <ele>203</ele>
        <time>2014-04-13T07:59:00.000Z</time>
      </trkpt>
      <trkpt lat="48.89489" lon="1.11424">
        <ele>203</ele>
        <time>2014-04-13T07:59:02.000Z</time>
      </trkpt>
      <trkpt lat="48.89496" lon="1.11433">
        <ele>203</ele>
        <time>2014-04-13T07:59:04.000Z</time>
      </trkpt>
      <trkpt lat="48.89503" lon="1.11442">
        <ele>203</ele>
        <time>2014-04-13T07:59:06.000Z</time>
      </trkpt>
      <trkpt lat="48.89511" lon="1.11453">
        <ele>203</ele>
        <time>2014-04-13T07:59:08.000Z</time>
      </trkpt>
      <trkpt lat="48.89519" lon="1.11463">
        <ele>203</ele>
        <time>2014-04-13T07:59:10.000Z</time>
      </trkpt>
      <trkpt lat="48.89528" lon="1.11473">
        <ele>203</ele>
        <time>2014-04-13T07:59:12.000Z</time>
      </trkpt>
      <trkpt lat="48.89536" lon="1.11482">
        <ele>203</ele>
        <time>2014-04-13T07:59:14.000Z</time>
      </trkpt>
      <trkpt lat="48.89543" lon="1.11491">
        <ele>203</ele>
        <time>2014-04-13T07:59:16.000Z</time>
      </trkpt>
      <trkpt lat="48.8955" lon="1.115">
        <ele>203</ele>
        <time>2014-04-13T07:59:18.000Z</time>
      </trkpt>
      <trkpt lat="48.89557" lon="1.11508">
        <ele>203</ele>
        <time>2014-04-13T07:59:20.000Z</time>
      </trkpt>
      <trkpt lat="48.89565" lon="1.11517">
        <ele>204</ele>
        <time>2014-04-13T07:59:22.000Z</time>
      </trkpt>
      <trkpt lat="48.89572" lon="1.11527">
        <ele>204</ele>
        <time>2014-04-13T07:59:24.000Z</time>
      </trkpt>
      <trkpt lat="48.8958" lon="1.11536">
        <ele>204</ele>
        <time>2014-04-13T07:59:26.000Z</time>
      </trkpt>
      <trkpt lat="48.89587" lon="1.11545">
        <ele>204</ele>
        <time>2014-04-13T07:59:28.000Z</time>
      </trkpt>
      <trkpt lat="48.89595" lon="1.11555">
        <ele>204</ele>
        <time>2014-04-13T07:59:30.000Z</time>
      </trkpt>
      <trkpt lat="48.89603" lon="1.11565">
        <ele>204</ele>
        <time>2014-04-13T07:59:32.000Z</time>
      </trkpt>
      <trkpt lat="48.8961" lon="1.11574">
        <ele>204</ele>
        <time>2014-04-13T07:59:34.000Z</time>
      </trkpt>
      <trkpt lat="48.89618" lon="1.11584">
        <ele>203</ele>
        <time>2014-04-13T07:59:36.000Z</time>
      </trkpt>
      <trkpt lat="48.89625" lon="1.11593">
        <ele>203</ele>
        <time>2014-04-13T07:59:38.000Z</time>
      </trkpt>
      <trkpt lat="48.89633" lon="1.11602">
        <ele>202</ele>
        <time>2014-04-13T07:59:40.000Z</time>
      </trkpt>
      <trkpt lat="48.89641" lon="1.11611">
        <ele>201</ele>
        <time>2014-04-13T07:59:42.000Z</time>
      </trkpt>
      <trkpt lat="48.89648" lon="1.11622">
        <ele>201</ele>
        <time>2014-04-13T07:59:44.000Z</time>
      </trkpt>
      <trkpt lat="48.89656" lon="1.11634">
        <ele>200</ele>
        <time>2014-04-13T07:59:46.000Z</time>
      </trkpt>
      <trkpt lat="48.89662" lon="1.11646">
        <ele>200</ele>
        <time>2014-04-13T07:59:48.000Z</time>
      </trkpt>
      <trkpt lat="48.89667" lon="1.11658">
        <ele>199</ele>
        <time>2014-04-13T07:59:50.000Z</time>
      </trkpt>
      <trkpt lat="48.89672" lon="1.11669">
        <ele>199</ele>
        <time>2014-04-13T07:59:52.000Z</time>
      </trkpt>
      <trkpt lat="48.89678" lon="1.11679">
        <ele>200</ele>
        <time>2014-04-13T07:59:54.000Z</time>
      </trkpt>
      <trkpt lat="48.89685" lon="1.11686">
        <ele>200</ele>
        <time>2014-04-13T07:59:56.000Z</time>
      </trkpt>
      <trkpt lat="48.89691" lon="1.11693">
        <ele>200</ele>
        <time>2014-04-13T07:59:58.000Z</time>
      </trkpt>
      <trkpt lat="48.89691" lon="1.11706">
        <ele>199</ele>
        <time>2014-04-13T08:00:00.000Z</time>
      </trkpt>
      <trkpt lat="48.89686" lon="1.11723">
        <ele>199</ele>
        <time>2014-04-13T08:00:02.000Z</time>
      </trkpt>
      <trkpt lat="48.89682" lon="1.11735">
        <ele>199</ele>
        <time>2014-04-13T08:00:04.000Z</time>
      </trkpt>
      <trkpt lat="48.89679" lon="1.11745">
        <ele>200</ele>
        <time>2014-04-13T08:00:06.000Z</time>
      </trkpt>
      <trkpt lat="48.89676" lon="1.11758">
        <ele>201</ele>
        <time>2014-04-13T08:00:08.000Z</time>
      </trkpt>
      <trkpt lat="48.89674" lon="1.11773">
        <ele>202</ele>
        <time>2014-04-13T08:00:10.000Z</time>
      </trkpt>
      <trkpt lat="48.89671" lon="1.11789">
        <ele>203</ele>
        <time>2014-04-13T08:00:12.000Z</time>
      </trkpt>
      <trkpt lat="48.89669" lon="1.11805">
        <ele>203</ele>
        <time>2014-04-13T08:00:14.000Z</time>
      </trkpt>
      <trkpt lat="48.89666" lon="1.11821">
        <ele>203</ele>
        <time>2014-04-13T08:00:17.000Z</time>
      </trkpt>
      <trkpt lat="48.89663" lon="1.11838">
        <ele>203</ele>
        <time>2014-04-13T08:00:19.000Z</time>
      </trkpt>
      <trkpt lat="48.8966" lon="1.11854">
        <ele>203</ele>
        <time>2014-04-13T08:00:21.000Z</time>
      </trkpt>
      <trkpt lat="48.89658" lon="1.1187">
        <ele>203</ele>
        <time>2014-04-13T08:00:23.000Z</time>
      </trkpt>
      <trkpt lat="48.89655" lon="1.11887">
        <ele>203</ele>
        <time>2014-04-13T08:00:25.000Z</time>
      </trkpt>
      <trkpt lat="48.89652" lon="1.11904">
        <ele>203</ele>
        <time>2014-04-13T08:00:27.000Z</time>
      </trkpt>
      <trkpt lat="48.89649" lon="1.11922">
        <ele>204</ele>
        <time>2014-04-13T08:00:29.000Z</time>
      </trkpt>
      <trkpt lat="48.89647" lon="1.11939">
        <ele>203</ele>
        <time>2014-04-13T08:00:31.000Z</time>
      </trkpt>
      <trkpt lat="48.89644" lon="1.11956">
        <ele>204</ele>
        <time>2014-04-13T08:00:33.000Z</time>
      </trkpt>
      <trkpt lat="48.89641" lon="1.11974">
        <ele>203</ele>
        <time>2014-04-13T08:00:35.000Z</time>
      </trkpt>
      <trkpt lat="48.89639" lon="1.11992">
        <ele>204</ele>
        <time>2014-04-13T08:00:37.000Z</time>
      </trkpt>
      <trkpt lat="48.89636" lon="1.12011">
        <ele>204</ele>
        <time>2014-04-13T08:00:39.000Z</time>
      </trkpt>
      <trkpt lat="48.89635" lon="1.12029">
        <ele>204</ele>
        <time>2014-04-13T08:00:41.000Z</time>
      </trkpt>
      <trkpt lat="48.89633" lon="1.12047">
        <ele>204</ele>
        <time>2014-04-13T08:00:43.000Z</time>
      </trkpt>
      <trkpt lat="48.89631" lon="1.12065">
        <ele>204</ele>
        <time>2014-04-13T08:00:45.000Z</time>
      </trkpt>
      <trkpt lat="48.89629" lon="1.12084">
        <ele>204</ele>
        <time>2014-04-13T08:00:47.000Z</time>
      </trkpt>
      <trkpt lat="48.89627" lon="1.12104">
        <ele>204</ele>
        <time>2014-04-13T08:00:49.000Z</time>
      </trkpt>
      <trkpt lat="48.89625" lon="1.12124">
        <ele>203</ele>
        <time>2014-04-13T08:00:51.000Z</time>
      </trkpt>
      <trkpt lat="48.89623" lon="1.12146">
        <ele>202</ele>
        <time>2014-04-13T08:00:53.000Z</time>
      </trkpt>
      <trkpt lat="48.89621" lon="1.12167">
        <ele>202</ele>
        <time>2014-04-13T08:00:55.000Z</time>
      </trkpt>
      <trkpt lat="48.89618" lon="1.12189">
        <ele>201</ele>
        <time>2014-04-13T08:00:57.000Z</time>
      </trkpt>
      <trkpt lat="48.89615" lon="1.1221">
        <ele>201</ele>
        <time>2014-04-13T08:00:59.000Z</time>
      </trkpt>
      <trkpt lat="48.89611" lon="1.12232">
        <ele>201</ele>
        <time>2014-04-13T08:01:01.000Z</time>
      </trkpt>
      <trkpt lat="48.89607" lon="1.12253">
        <ele>200</ele>
        <time>2014-04-13T08:01:03.000Z</time>
      </trkpt>
      <trkpt lat="48.89602" lon="1.12274">
        <ele>200</ele>
        <time>2014-04-13T08:01:05.000Z</time>
      </trkpt>
      <trkpt lat="48.89597" lon="1.12293">
        <ele>200</ele>
        <time>2014-04-13T08:01:07.000Z</time>
      </trkpt>
      <trkpt lat="48.8959" lon="1.12313">
        <ele>199</ele>
        <time>2014-04-13T08:01:09.000Z</time>
      </trkpt>
      <trkpt lat="48.89585" lon="1.12332">
        <ele>199</ele>
        <time>2014-04-13T08:01:11.000Z</time>
      </trkpt>
      <trkpt lat="48.89579" lon="1.1235">
        <ele>199</ele>
        <time>2014-04-13T08:01:13.000Z</time>
      </trkpt>
      <trkpt lat="48.89573" lon="1.12369">
        <ele>200</ele>
        <time>2014-04-13T08:01:15.000Z</time>
      </trkpt>
      <trkpt lat="48.89568" lon="1.12387">
        <ele>200</ele>
        <time>2014-04-13T08:01:17.000Z</time>
      </trkpt>
      <trkpt lat="48.89563" lon="1.12406">
        <ele>200</ele>
        <time>2014-04-13T08:01:19.000Z</time>
      </trkpt>
      <trkpt lat="48.89558" lon="1.12425">
        <ele>200</ele>
        <time>2014-04-13T08:01:21.000Z</time>
      </trkpt>
      <trkpt lat="48.89553" lon="1.12445">
        <ele>201</ele>
        <time>2014-04-13T08:01:23.000Z</time>
      </trkpt>
      <trkpt lat="48.8955" lon="1.12464">
        <ele>201</ele>
        <time>2014-04-13T08:01:25.000Z</time>
      </trkpt>
      <trkpt lat="48.89547" lon="1.12484">
        <ele>201</ele>
        <time>2014-04-13T08:01:27.000Z</time>
      </trkpt>
      <trkpt lat="48.89544" lon="1.12505">
        <ele>200</ele>
        <time>2014-04-13T08:01:29.000Z</time>
      </trkpt>
      <trkpt lat="48.89543" lon="1.12528">
        <ele>199</ele>
        <time>2014-04-13T08:01:31.000Z</time>
      </trkpt>
      <trkpt lat="48.89543" lon="1.12552">
        <ele>198</ele>
        <time>2014-04-13T08:01:33.000Z</time>
      </trkpt>
      <trkpt lat="48.89545" lon="1.12573">
        <ele>196</ele>
        <time>2014-04-13T08:01:35.000Z</time>
      </trkpt>
      <trkpt lat="48.89546" lon="1.12596">
        <ele>196</ele>
        <time>2014-04-13T08:01:37.000Z</time>
      </trkpt>
      <trkpt lat="48.89547" lon="1.12619">
        <ele>196</ele>
        <time>2014-04-13T08:01:39.000Z</time>
      </trkpt>
      <trkpt lat="48.89549" lon="1.12643">
        <ele>196</ele>
        <time>2014-04-13T08:01:41.000Z</time>
      </trkpt>
      <trkpt lat="48.8955" lon="1.12665">
        <ele>196</ele>
        <time>2014-04-13T08:01:43.000Z</time>
      </trkpt>
      <trkpt lat="48.89551" lon="1.12689">
        <ele>196</ele>
        <time>2014-04-13T08:01:45.000Z</time>
      </trkpt>
      <trkpt lat="48.89552" lon="1.12712">
        <ele>196</ele>
        <time>2014-04-13T08:01:47.000Z</time>
      </trkpt>
      <trkpt lat="48.89553" lon="1.12734">
        <ele>196</ele>
        <time>2014-04-13T08:01:49.000Z</time>
      </trkpt>
      <trkpt lat="48.89555" lon="1.12756">
        <ele>196</ele>
        <time>2014-04-13T08:01:51.000Z</time>
      </trkpt>
      <trkpt lat="48.89556" lon="1.12778">
        <ele>195</ele>
        <time>2014-04-13T08:01:53.000Z</time>
      </trkpt>
      <trkpt lat="48.89558" lon="1.12801">
        <ele>195</ele>
        <time>2014-04-13T08:01:55.000Z</time>
      </trkpt>
      <trkpt lat="48.8956" lon="1.12823">
        <ele>195</ele>
        <time>2014-04-13T08:01:57.000Z</time>
      </trkpt>
      <trkpt lat="48.89562" lon="1.12846">
        <ele>195</ele>
        <time>2014-04-13T08:01:59.000Z</time>
      </trkpt>
      <trkpt lat="48.89565" lon="1.12868">
        <ele>194</ele>
        <time>2014-04-13T08:02:01.000Z</time>
      </trkpt>
      <trkpt lat="48.89568" lon="1.1289">
        <ele>194</ele>
        <time>2014-04-13T08:02:03.000Z</time>
      </trkpt>
      <trkpt lat="48.89568" lon="1.12915">
        <ele>193</ele>
        <time>2014-04-13T08:02:05.000Z</time>
      </trkpt>
      <trkpt lat="48.89565" lon="1.12938">
        <ele>192</ele>
        <time>2014-04-13T08:02:07.000Z</time>
      </trkpt>
      <trkpt lat="48.8956" lon="1.12959">
        <ele>192</ele>
        <time>2014-04-13T08:02:09.000Z</time>
      </trkpt>
      <trkpt lat="48.89557" lon="1.1298">
        <ele>191</ele>
        <time>2014-04-13T08:02:11.000Z</time>
      </trkpt>
      <trkpt lat="48.89558" lon="1.13001">
        <ele>190</ele>
        <time>2014-04-13T08:02:13.000Z</time>
      </trkpt>
      <trkpt lat="48.89566" lon="1.13021">
        <ele>190</ele>
        <time>2014-04-13T08:02:15.000Z</time>
      </trkpt>
      <trkpt lat="48.89584" lon="1.13032">
        <ele>193</ele>
        <time>2014-04-13T08:02:17.000Z</time>
      </trkpt>
      <trkpt lat="48.89597" lon="1.13047">
        <ele>194</ele>
        <time>2014-04-13T08:02:19.000Z</time>
      </trkpt>
      <trkpt lat="48.89608" lon="1.13065">
        <ele>194</ele>
        <time>2014-04-13T08:02:21.000Z</time>
      </trkpt>
      <trkpt lat="48.89617" lon="1.13085">
        <ele>194</ele>
        <time>2014-04-13T08:02:23.000Z</time>
      </trkpt>
      <trkpt lat="48.89624" lon="1.13105">
        <ele>193</ele>
        <time>2014-04-13T08:02:25.000Z</time>
      </trkpt>
      <trkpt lat="48.89632" lon="1.13125">
        <ele>192</ele>
        <time>2014-04-13T08:02:27.000Z</time>
      </trkpt>
      <trkpt lat="48.89639" lon="1.13145">
        <ele>190</ele>
        <time>2014-04-13T08:02:29.000Z</time>
      </trkpt>
      <trkpt lat="48.89648" lon="1.13163">
        <ele>190</ele>
        <time>2014-04-13T08:02:31.000Z</time>
      </trkpt>
      <trkpt lat="48.89658" lon="1.13178">
        <ele>190</ele>
        <time>2014-04-13T08:02:33.000Z</time>
      </trkpt>
      <trkpt lat="48.89669" lon="1.1319">
        <ele>190</ele>
        <time>2014-04-13T08:02:35.000Z</time>
      </trkpt>
      <trkpt lat="48.89682" lon="1.132">
        <ele>190</ele>
        <time>2014-04-13T08:02:37.000Z</time>
      </trkpt>
      <trkpt lat="48.89694" lon="1.13208">
        <ele>190</ele>
        <time>2014-04-13T08:02:39.000Z</time>
      </trkpt>
      <trkpt lat="48.89706" lon="1.13217">
        <ele>190</ele>
        <time>2014-04-13T08:02:41.000Z</time>
      </trkpt>
      <trkpt lat="48.89716" lon="1.13228">
        <ele>190</ele>
        <time>2014-04-13T08:02:43.000Z</time>
      </trkpt>
      <trkpt lat="48.89726" lon="1.1324">
        <ele>190</ele>
        <time>2014-04-13T08:02:45.000Z</time>
      </trkpt>
      <trkpt lat="48.89735" lon="1.13253">
        <ele>189</ele>
        <time>2014-04-13T08:02:47.000Z</time>
      </trkpt>
      <trkpt lat="48.89743" lon="1.13266">
        <ele>189</ele>
        <time>2014-04-13T08:02:49.000Z</time>
      </trkpt>
      <trkpt lat="48.8975" lon="1.13279">
        <ele>188</ele>
        <time>2014-04-13T08:02:51.000Z</time>
      </trkpt>
      <trkpt lat="48.89757" lon="1.13292">
        <ele>188</ele>
        <time>2014-04-13T08:02:53.000Z</time>
      </trkpt>
      <trkpt lat="48.89762" lon="1.13305">
        <ele>188</ele>
        <time>2014-04-13T08:02:55.000Z</time>
      </trkpt>
      <trkpt lat="48.89767" lon="1.13318">
        <ele>188</ele>
        <time>2014-04-13T08:02:57.000Z</time>
      </trkpt>
      <trkpt lat="48.89772" lon="1.1333">
        <ele>188</ele>
        <time>2014-04-13T08:02:59.000Z</time>
      </trkpt>
      <trkpt lat="48.89777" lon="1.13341">
        <ele>188</ele>
        <time>2014-04-13T08:03:01.000Z</time>
      </trkpt>
      <trkpt lat="48.89782" lon="1.13353">
        <ele>188</ele>
        <time>2014-04-13T08:03:03.000Z</time>
      </trkpt>
      <trkpt lat="48.89785" lon="1.13365">
        <ele>188</ele>
        <time>2014-04-13T08:03:05.000Z</time>
      </trkpt>
      <trkpt lat="48.8979" lon="1.13377">
        <ele>188</ele>
        <time>2014-04-13T08:03:07.000Z</time>
      </trkpt>
      <trkpt lat="48.89794" lon="1.13389">
        <ele>188</ele>
        <time>2014-04-13T08:03:09.000Z</time>
      </trkpt>
      <trkpt lat="48.89799" lon="1.13401">
        <ele>188</ele>
        <time>2014-04-13T08:03:11.000Z</time>
      </trkpt>
      <trkpt lat="48.89803" lon="1.13413">
        <ele>188</ele>
        <time>2014-04-13T08:03:13.000Z</time>
      </trkpt>
      <trkpt lat="48.89807" lon="1.13424">
        <ele>188</ele>
        <time>2014-04-13T08:03:15.000Z</time>
      </trkpt>
      <trkpt lat="48.89811" lon="1.13437">
        <ele>188</ele>
        <time>2014-04-13T08:03:17.000Z</time>
      </trkpt>
      <trkpt lat="48.89815" lon="1.13449">
        <ele>187</ele>
        <time>2014-04-13T08:03:19.000Z</time>
      </trkpt>
      <trkpt lat="48.89819" lon="1.13461">
        <ele>187</ele>
        <time>2014-04-13T08:03:21.000Z</time>
      </trkpt>
      <trkpt lat="48.89822" lon="1.13474">
        <ele>187</ele>
        <time>2014-04-13T08:03:23.000Z</time>
      </trkpt>
      <trkpt lat="48.89825" lon="1.13486">
        <ele>187</ele>
        <time>2014-04-13T08:03:25.000Z</time>
      </trkpt>
      <trkpt lat="48.89829" lon="1.13499">
        <ele>187</ele>
        <time>2014-04-13T08:03:27.000Z</time>
      </trkpt>
      <trkpt lat="48.89833" lon="1.13512">
        <ele>186</ele>
        <time>2014-04-13T08:03:29.000Z</time>
      </trkpt>
      <trkpt lat="48.89836" lon="1.13524">
        <ele>186</ele>
        <time>2014-04-13T08:03:31.000Z</time>
      </trkpt>
      <trkpt lat="48.8984" lon="1.13535">
        <ele>186</ele>
        <time>2014-04-13T08:03:33.000Z</time>
      </trkpt>
      <trkpt lat="48.89843" lon="1.13547">
        <ele>186</ele>
        <time>2014-04-13T08:03:35.000Z</time>
      </trkpt>
      <trkpt lat="48.89847" lon="1.13559">
        <ele>186</ele>
        <time>2014-04-13T08:03:37.000Z</time>
      </trkpt>
      <trkpt lat="48.8985" lon="1.13572">
        <ele>186</ele>
        <time>2014-04-13T08:03:39.000Z</time>
      </trkpt>
      <trkpt lat="48.89854" lon="1.13583">
        <ele>186</ele>
        <time>2014-04-13T08:03:41.000Z</time>
      </trkpt>
      <trkpt lat="48.89857" lon="1.13595">
        <ele>186</ele>
        <time>2014-04-13T08:03:43.000Z</time>
      </trkpt>
      <trkpt lat="48.89861" lon="1.13607">
        <ele>186</ele>
        <time>2014-04-13T08:03:45.000Z</time>
      </trkpt>
      <trkpt lat="48.89865" lon="1.13617">
        <ele>186</ele>
        <time>2014-04-13T08:03:47.000Z</time>
      </trkpt>
      <trkpt lat="48.89868" lon="1.13624">
        <ele>186</ele>
        <time>2014-04-13T08:03:49.000Z</time>
      </trkpt>
      <trkpt lat="48.89868" lon="1.13624">
        <ele>186</ele>
        <time>2014-04-13T08:03:51.000Z</time>
      </trkpt>
      <trkpt lat="48.89877" lon="1.13628">
        <ele>186</ele>
        <time>2014-04-13T08:03:53.000Z</time>
      </trkpt>
      <trkpt lat="48.89884" lon="1.13622">
        <ele>186</ele>
        <time>2014-04-13T08:03:55.000Z</time>
      </trkpt>
      <trkpt lat="48.8989" lon="1.13613">
        <ele>186</ele>
        <time>2014-04-13T08:03:57.000Z</time>
      </trkpt>
      <trkpt lat="48.89895" lon="1.13605">
        <ele>186</ele>
        <time>2014-04-13T08:03:59.000Z</time>
      </trkpt>
      <trkpt lat="48.899" lon="1.13597">
        <ele>186</ele>
        <time>2014-04-13T08:04:01.000Z</time>
      </trkpt>
      <trkpt lat="48.89905" lon="1.13591">
        <ele>186</ele>
        <time>2014-04-13T08:04:03.000Z</time>
      </trkpt>
      <trkpt lat="48.8991" lon="1.13585">
        <ele>186</ele>
        <time>2014-04-13T08:04:05.000Z</time>
      </trkpt>
      <trkpt lat="48.89916" lon="1.13578">
        <ele>186</ele>
        <time>2014-04-13T08:04:07.000Z</time>
      </trkpt>
      <trkpt lat="48.89922" lon="1.13572">
        <ele>186</ele>
        <time>2014-04-13T08:04:09.000Z</time>
      </trkpt>
      <trkpt lat="48.89928" lon="1.13565">
        <ele>186</ele>
        <time>2014-04-13T08:04:11.000Z</time>
      </trkpt>
      <trkpt lat="48.89933" lon="1.13559">
        <ele>186</ele>
        <time>2014-04-13T08:04:13.000Z</time>
      </trkpt>
      <trkpt lat="48.89938" lon="1.13553">
        <ele>186</ele>
        <time>2014-04-13T08:04:15.000Z</time>
      </trkpt>
      <trkpt lat="48.89944" lon="1.13547">
        <ele>187</ele>
        <time>2014-04-13T08:04:17.000Z</time>
      </trkpt>
      <trkpt lat="48.89949" lon="1.1354">
        <ele>187</ele>
        <time>2014-04-13T08:04:19.000Z</time>
      </trkpt>
      <trkpt lat="48.89955" lon="1.13533">
        <ele>187</ele>
        <time>2014-04-13T08:04:21.000Z</time>
      </trkpt>
      <trkpt lat="48.8996" lon="1.13527">
        <ele>186</ele>
        <time>2014-04-13T08:04:23.000Z</time>
      </trkpt>
      <trkpt lat="48.89966" lon="1.1352">
        <ele>186</ele>
        <time>2014-04-13T08:04:25.000Z</time>
      </trkpt>
      <trkpt lat="48.89972" lon="1.13514">
        <ele>186</ele>
        <time>2014-04-13T08:04:27.000Z</time>
      </trkpt>
      <trkpt lat="48.89978" lon="1.13507">
        <ele>186</ele>
        <time>2014-04-13T08:04:29.000Z</time>
      </trkpt>
      <trkpt lat="48.89983" lon="1.13501">
        <ele>186</ele>
        <time>2014-04-13T08:04:31.000Z</time>
      </trkpt>
      <trkpt lat="48.89989" lon="1.13494">
        <ele>186</ele>
        <time>2014-04-13T08:04:33.000Z</time>
      </trkpt>
      <trkpt lat="48.89996" lon="1.13487">
        <ele>187</ele>
        <time>2014-04-13T08:04:35.000Z</time>
      </trkpt>
      <trkpt lat="48.90001" lon="1.1348">
        <ele>187</ele>
        <time>2014-04-13T08:04:37.000Z</time>
      </trkpt>
      <trkpt lat="48.90007" lon="1.13473">
        <ele>186</ele>
        <time>2014-04-13T08:04:39.000Z</time>
      </trkpt>
      <trkpt lat="48.90014" lon="1.13465">
        <ele>186</ele>
        <time>2014-04-13T08:04:41.000Z</time>
      </trkpt>
      <trkpt lat="48.9002" lon="1.13458">
        <ele>185</ele>
        <time>2014-04-13T08:04:43.000Z</time>
      </trkpt>
      <trkpt lat="48.90026" lon="1.13452">
        <ele>185</ele>
        <time>2014-04-13T08:04:45.000Z</time>
      </trkpt>
      <trkpt lat="48.90032" lon="1.13444">
        <ele>185</ele>
        <time>2014-04-13T08:04:47.000Z</time>
      </trkpt>
      <trkpt lat="48.90038" lon="1.13438">
        <ele>185</ele>
        <time>2014-04-13T08:04:49.000Z</time>
      </trkpt>
      <trkpt lat="48.90044" lon="1.13431">
        <ele>185</ele>
        <time>2014-04-13T08:04:51.000Z</time>
      </trkpt>
      <trkpt lat="48.90051" lon="1.13424">
        <ele>185</ele>
        <time>2014-04-13T08:04:53.000Z</time>
      </trkpt>
      <trkpt lat="48.90057" lon="1.13416">
        <ele>185</ele>
        <time>2014-04-13T08:04:55.000Z</time>
      </trkpt>
      <trkpt lat="48.90063" lon="1.13409">
        <ele>185</ele>
        <time>2014-04-13T08:04:57.000Z</time>
      </trkpt>
      <trkpt lat="48.9007" lon="1.13402">
        <ele>185</ele>
        <time>2014-04-13T08:04:59.000Z</time>
      </trkpt>
      <trkpt lat="48.90076" lon="1.13394">
        <ele>185</ele>
        <time>2014-04-13T08:05:01.000Z</time>
      </trkpt>
      <trkpt lat="48.90082" lon="1.13387">
        <ele>184</ele>
        <time>2014-04-13T08:05:03.000Z</time>
      </trkpt>
      <trkpt lat="48.90088" lon="1.13379">
        <ele>184</ele>
        <time>2014-04-13T08:05:05.000Z</time>
      </trkpt>
      <trkpt lat="48.90094" lon="1.13372">
        <ele>184</ele>
        <time>2014-04-13T08:05:07.000Z</time>
      </trkpt>
      <trkpt lat="48.90101" lon="1.13364">
        <ele>184</ele>
        <time>2014-04-13T08:05:09.000Z</time>
      </trkpt>
      <trkpt lat="48.90107" lon="1.13357">
        <ele>184</ele>
        <time>2014-04-13T08:05:11.000Z</time>
      </trkpt>
      <trkpt lat="48.90113" lon="1.1335">
        <ele>184</ele>
        <time>2014-04-13T08:05:13.000Z</time>
      </trkpt>
      <trkpt lat="48.9012" lon="1.13343">
        <ele>184</ele>
        <time>2014-04-13T08:05:15.000Z</time>
      </trkpt>
      <trkpt lat="48.90126" lon="1.13335">
        <ele>184</ele>
        <time>2014-04-13T08:05:17.000Z</time>
      </trkpt>
      <trkpt lat="48.90133" lon="1.13328">
        <ele>184</ele>
        <time>2014-04-13T08:05:19.000Z</time>
      </trkpt>
      <trkpt lat="48.90139" lon="1.1332">
        <ele>184</ele>
        <time>2014-04-13T08:05:21.000Z</time>
      </trkpt>
      <trkpt lat="48.90146" lon="1.13312">
        <ele>184</ele>
        <time>2014-04-13T08:05:23.000Z</time>
      </trkpt>
      <trkpt lat="48.90153" lon="1.13304">
        <ele>184</ele>
        <time>2014-04-13T08:05:25.000Z</time>
      </trkpt>
      <trkpt lat="48.9016" lon="1.13296">
        <ele>184</ele>
        <time>2014-04-13T08:05:27.000Z</time>
      </trkpt>
      <trkpt lat="48.90166" lon="1.13289">
        <ele>184</ele>
        <time>2014-04-13T08:05:29.000Z</time>
      </trkpt>
      <trkpt lat="48.90173" lon="1.13281">
        <ele>184</ele>
        <time>2014-04-13T08:05:31.000Z</time>
      </trkpt>
      <trkpt lat="48.9018" lon="1.13274">
        <ele>184</ele>
        <time>2014-04-13T08:05:33.000Z</time>
      </trkpt>
      <trkpt lat="48.90185" lon="1.13268">
        <ele>184</ele>
        <time>2014-04-13T08:05:35.000Z</time>
      </trkpt>
      <trkpt lat="48.9019" lon="1.13261">
        <ele>184</ele>
        <time>2014-04-13T08:05:37.000Z</time>
      </trkpt>
      <trkpt lat="48.90195" lon="1.13256">
        <ele>184</ele>
        <time>2014-04-13T08:05:39.000Z</time>
      </trkpt>
      <trkpt lat="48.90199" lon="1.1325">
        <ele>184</ele>
        <time>2014-04-13T08:05:41.000Z</time>
      </trkpt>
      <trkpt lat="48.90199" lon="1.1325">
        <ele>184</ele>
        <time>2014-04-13T08:05:43.000Z</time>
      </trkpt>
      <trkpt lat="48.90208" lon="1.1324">
        <ele>184</ele>
        <time>2014-04-13T08:05:45.000Z</time>
      </trkpt>
      <trkpt lat="48.90208" lon="1.1324">
        <ele>184</ele>
        <time>2014-04-13T08:05:47.000Z</time>
      </trkpt>
      <trkpt lat="48.90214" lon="1.13231">
        <ele>184</ele>
        <time>2014-04-13T08:05:49.000Z</time>
      </trkpt>
      <trkpt lat="48.90214" lon="1.13231">
        <ele>184</ele>
        <time>2014-04-13T08:05:51.000Z</time>
      </trkpt>
      <trkpt lat="48.90223" lon="1.13223">
        <ele>184</ele>
        <time>2014-04-13T08:05:53.000Z</time>
      </trkpt>
      <trkpt lat="48.9023" lon="1.13215">
        <ele>184</ele>
        <time>2014-04-13T08:05:57.000Z</time>
      </trkpt>
      <trkpt lat="48.90238" lon="1.13206">
        <ele>184</ele>
        <time>2014-04-13T08:06:01.000Z</time>
      </trkpt>
      <trkpt lat="48.90238" lon="1.13206">
        <ele>184</ele>
        <time>2014-04-13T08:06:03.000Z</time>
      </trkpt>
      <trkpt lat="48.90245" lon="1.13199">
        <ele>184</ele>
        <time>2014-04-13T08:06:05.000Z</time>
      </trkpt>
      <trkpt lat="48.90245" lon="1.13199">
        <ele>184</ele>
        <time>2014-04-13T08:06:07.000Z</time>
      </trkpt>
      <trkpt lat="48.90252" lon="1.13191">
        <ele>185</ele>
        <time>2014-04-13T08:06:09.000Z</time>
      </trkpt>
      <trkpt lat="48.90252" lon="1.13191">
        <ele>185</ele>
        <time>2014-04-13T08:06:11.000Z</time>
      </trkpt>
      <trkpt lat="48.90258" lon="1.13184">
        <ele>185</ele>
        <time>2014-04-13T08:06:13.000Z</time>
      </trkpt>
      <trkpt lat="48.90258" lon="1.13184">
        <ele>185</ele>
        <time>2014-04-13T08:06:15.000Z</time>
      </trkpt>
      <trkpt lat="48.90265" lon="1.13177">
        <ele>185</ele>
        <time>2014-04-13T08:06:17.000Z</time>
      </trkpt>
      <trkpt lat="48.90265" lon="1.13177">
        <ele>185</ele>
        <time>2014-04-13T08:06:19.000Z</time>
      </trkpt>
      <trkpt lat="48.90271" lon="1.1317">
        <ele>186</ele>
        <time>2014-04-13T08:06:21.000Z</time>
      </trkpt>
      <trkpt lat="48.90271" lon="1.1317">
        <ele>186</ele>
        <time>2014-04-13T08:06:23.000Z</time>
      </trkpt>
      <trkpt lat="48.90277" lon="1.13163">
        <ele>186</ele>
        <time>2014-04-13T08:06:25.000Z</time>
      </trkpt>
      <trkpt lat="48.90277" lon="1.13163">
        <ele>186</ele>
        <time>2014-04-13T08:06:27.000Z</time>
      </trkpt>
      <trkpt lat="48.90284" lon="1.13155">
        <ele>186</ele>
        <time>2014-04-13T08:06:29.000Z</time>
      </trkpt>
      <trkpt lat="48.90284" lon="1.13155">
        <ele>186</ele>
        <time>2014-04-13T08:06:31.000Z</time>
      </trkpt>
      <trkpt lat="48.90287" lon="1.13151">
        <ele>186</ele>
        <time>2014-04-13T08:06:33.000Z</time>
      </trkpt>
      <trkpt lat="48.9029" lon="1.13147">
        <ele>186</ele>
        <time>2014-04-13T08:06:35.000Z</time>
      </trkpt>
      <trkpt lat="48.90294" lon="1.13144">
        <ele>187</ele>
        <time>2014-04-13T08:06:37.000Z</time>
      </trkpt>
      <trkpt lat="48.90297" lon="1.1314">
        <ele>187</ele>
        <time>2014-04-13T08:06:39.000Z</time>
      </trkpt>
      <trkpt lat="48.903" lon="1.13137">
        <ele>187</ele>
        <time>2014-04-13T08:06:41.000Z</time>
      </trkpt>
      <trkpt lat="48.90307" lon="1.13129">
        <ele>187</ele>
        <time>2014-04-13T08:06:43.000Z</time>
      </trkpt>
      <trkpt lat="48.90307" lon="1.13129">
        <ele>187</ele>
        <time>2014-04-13T08:06:45.000Z</time>
      </trkpt>
      <trkpt lat="48.90312" lon="1.13122">
        <ele>187</ele>
        <time>2014-04-13T08:06:47.000Z</time>
      </trkpt>
      <trkpt lat="48.90312" lon="1.13122">
        <ele>187</ele>
        <time>2014-04-13T08:06:49.000Z</time>
      </trkpt>
      <trkpt lat="48.90318" lon="1.13116">
        <ele>187</ele>
        <time>2014-04-13T08:06:51.000Z</time>
      </trkpt>
      <trkpt lat="48.90318" lon="1.13116">
        <ele>187</ele>
        <time>2014-04-13T08:06:53.000Z</time>
      </trkpt>
      <trkpt lat="48.90324" lon="1.13109">
        <ele>187</ele>
        <time>2014-04-13T08:06:55.000Z</time>
      </trkpt>
      <trkpt lat="48.90329" lon="1.13103">
        <ele>187</ele>
        <time>2014-04-13T08:06:59.000Z</time>
      </trkpt>
      <trkpt lat="48.90335" lon="1.13096">
        <ele>187</ele>
        <time>2014-04-13T08:07:03.000Z</time>
      </trkpt>
      <trkpt lat="48.9034" lon="1.13088">
        <ele>187</ele>
        <time>2014-04-13T08:07:07.000Z</time>
      </trkpt>
      <trkpt lat="48.9034" lon="1.13088">
        <ele>187</ele>
        <time>2014-04-13T08:07:09.000Z</time>
      </trkpt>
      <trkpt lat="48.90345" lon="1.13081">
        <ele>187</ele>
        <time>2014-04-13T08:07:11.000Z</time>
      </trkpt>
      <trkpt lat="48.90345" lon="1.13081">
        <ele>187</ele>
        <time>2014-04-13T08:07:13.000Z</time>
      </trkpt>
      <trkpt lat="48.90351" lon="1.13074">
        <ele>186</ele>
        <time>2014-04-13T08:07:15.000Z</time>
      </trkpt>
      <trkpt lat="48.90357" lon="1.13068">
        <ele>186</ele>
        <time>2014-04-13T08:07:19.000Z</time>
      </trkpt>
      <trkpt lat="48.90357" lon="1.13068">
        <ele>186</ele>
        <time>2014-04-13T08:07:21.000Z</time>
      </trkpt>
      <trkpt lat="48.90363" lon="1.13064">
        <ele>186</ele>
        <time>2014-04-13T08:07:23.000Z</time>
      </trkpt>
      <trkpt lat="48.90363" lon="1.13064">
        <ele>186</ele>
        <time>2014-04-13T08:07:25.000Z</time>
      </trkpt>
      <trkpt lat="48.90368" lon="1.13058">
        <ele>186</ele>
        <time>2014-04-13T08:07:27.000Z</time>
      </trkpt>
      <trkpt lat="48.90373" lon="1.13053">
        <ele>186</ele>
        <time>2014-04-13T08:07:31.000Z</time>
      </trkpt>
      <trkpt lat="48.90373" lon="1.13053">
        <ele>186</ele>
        <time>2014-04-13T08:07:33.000Z</time>
      </trkpt>
      <trkpt lat="48.90377" lon="1.13046">
        <ele>186</ele>
        <time>2014-04-13T08:07:35.000Z</time>
      </trkpt>
      <trkpt lat="48.90377" lon="1.13046">
        <ele>186</ele>
        <time>2014-04-13T08:07:37.000Z</time>
      </trkpt>
      <trkpt lat="48.90377" lon="1.13046">
        <ele>186</ele>
        <time>2014-04-13T08:07:39.000Z</time>
      </trkpt>
      <trkpt lat="48.90384" lon="1.13038">
        <ele>186</ele>
        <time>2014-04-13T08:07:41.000Z</time>
      </trkpt>
      <trkpt lat="48.90389" lon="1.13034">
        <ele>186</ele>
        <time>2014-04-13T08:07:45.000Z</time>
      </trkpt>
      <trkpt lat="48.90396" lon="1.13028">
        <ele>186</ele>
        <time>2014-04-13T08:07:49.000Z</time>
      </trkpt>
      <trkpt lat="48.90396" lon="1.13028">
        <ele>186</ele>
        <time>2014-04-13T08:07:51.000Z</time>
      </trkpt>
      <trkpt lat="48.90396" lon="1.13028">
        <ele>186</ele>
        <time>2014-04-13T08:07:53.000Z</time>
      </trkpt>
      <trkpt lat="48.90403" lon="1.13021">
        <ele>186</ele>
        <time>2014-04-13T08:07:55.000Z</time>
      </trkpt>
      <trkpt lat="48.90403" lon="1.13021">
        <ele>186</ele>
        <time>2014-04-13T08:07:57.000Z</time>
      </trkpt>
      <trkpt lat="48.90409" lon="1.13015">
        <ele>187</ele>
        <time>2014-04-13T08:07:59.000Z</time>
      </trkpt>
      <trkpt lat="48.90415" lon="1.13008">
        <ele>187</ele>
        <time>2014-04-13T08:08:03.000Z</time>
      </trkpt>
      <trkpt lat="48.90415" lon="1.13008">
        <ele>187</ele>
        <time>2014-04-13T08:08:05.000Z</time>
      </trkpt>
      <trkpt lat="48.90419" lon="1.13002">
        <ele>187</ele>
        <time>2014-04-13T08:08:07.000Z</time>
      </trkpt>
      <trkpt lat="48.90419" lon="1.13002">
        <ele>187</ele>
        <time>2014-04-13T08:08:09.000Z</time>
      </trkpt>
      <trkpt lat="48.90419" lon="1.13002">
        <ele>187</ele>
        <time>2014-04-13T08:08:11.000Z</time>
      </trkpt>
      <trkpt lat="48.90425" lon="1.12992">
        <ele>187</ele>
        <time>2014-04-13T08:08:13.000Z</time>
      </trkpt>
      <trkpt lat="48.9043" lon="1.12985">
        <ele>187</ele>
        <time>2014-04-13T08:08:17.000Z</time>
      </trkpt>
      <trkpt lat="48.9043" lon="1.12985">
        <ele>187</ele>
        <time>2014-04-13T08:08:19.000Z</time>
      </trkpt>
      <trkpt lat="48.90426" lon="1.12975">
        <ele>187</ele>
        <time>2014-04-13T08:08:21.000Z</time>
      </trkpt>
      <trkpt lat="48.90426" lon="1.12975">
        <ele>187</ele>
        <time>2014-04-13T08:08:23.000Z</time>
      </trkpt>
      <trkpt lat="48.90422" lon="1.12962">
        <ele>187</ele>
        <time>2014-04-13T08:08:25.000Z</time>
      </trkpt>
      <trkpt lat="48.90422" lon="1.12962">
        <ele>187</ele>
        <time>2014-04-13T08:08:27.000Z</time>
      </trkpt>
      <trkpt lat="48.90417" lon="1.12949">
        <ele>187</ele>
        <time>2014-04-13T08:08:29.000Z</time>
      </trkpt>
      <trkpt lat="48.90412" lon="1.12934">
        <ele>186</ele>
        <time>2014-04-13T08:08:33.000Z</time>
      </trkpt>
      <trkpt lat="48.90411" lon="1.12927">
        <ele>186</ele>
        <time>2014-04-13T08:08:37.000Z</time>
      </trkpt>
      <trkpt lat="48.90412" lon="1.12921">
        <ele>186</ele>
        <time>2014-04-13T08:08:39.000Z</time>
      </trkpt>
      <trkpt lat="48.90414" lon="1.12916">
        <ele>186</ele>
        <time>2014-04-13T08:08:41.000Z</time>
      </trkpt>
      <trkpt lat="48.90418" lon="1.12912">
        <ele>186</ele>
        <time>2014-04-13T08:08:43.000Z</time>
      </trkpt>
      <trkpt lat="48.90423" lon="1.12907">
        <ele>186</ele>
        <time>2014-04-13T08:08:45.000Z</time>
      </trkpt>
      <trkpt lat="48.90433" lon="1.12897">
        <ele>186</ele>
        <time>2014-04-13T08:08:47.000Z</time>
      </trkpt>
      <trkpt lat="48.90439" lon="1.12891">
        <ele>186</ele>
        <time>2014-04-13T08:08:49.000Z</time>
      </trkpt>
      <trkpt lat="48.90445" lon="1.12884">
        <ele>186</ele>
        <time>2014-04-13T08:08:51.000Z</time>
      </trkpt>
      <trkpt lat="48.9045" lon="1.12879">
        <ele>186</ele>
        <time>2014-04-13T08:08:53.000Z</time>
      </trkpt>
      <trkpt lat="48.90456" lon="1.12873">
        <ele>186</ele>
        <time>2014-04-13T08:08:55.000Z</time>
      </trkpt>
      <trkpt lat="48.90461" lon="1.12867">
        <ele>186</ele>
        <time>2014-04-13T08:08:57.000Z</time>
      </trkpt>
      <trkpt lat="48.90466" lon="1.12862">
        <ele>186</ele>
        <time>2014-04-13T08:08:59.000Z</time>
      </trkpt>
      <trkpt lat="48.90471" lon="1.12856">
        <ele>186</ele>
        <time>2014-04-13T08:09:01.000Z</time>
      </trkpt>
      <trkpt lat="48.90476" lon="1.1285">
        <ele>186</ele>
        <time>2014-04-13T08:09:03.000Z</time>
      </trkpt>
      <trkpt lat="48.90482" lon="1.12844">
        <ele>186</ele>
        <time>2014-04-13T08:09:05.000Z</time>
      </trkpt>
      <trkpt lat="48.90487" lon="1.12839">
        <ele>186</ele>
        <time>2014-04-13T08:09:07.000Z</time>
      </trkpt>
      <trkpt lat="48.90491" lon="1.12833">
        <ele>186</ele>
        <time>2014-04-13T08:09:09.000Z</time>
      </trkpt>
      <trkpt lat="48.90496" lon="1.12827">
        <ele>186</ele>
        <time>2014-04-13T08:09:11.000Z</time>
      </trkpt>
      <trkpt lat="48.90501" lon="1.12822">
        <ele>186</ele>
        <time>2014-04-13T08:09:13.000Z</time>
      </trkpt>
      <trkpt lat="48.90506" lon="1.12816">
        <ele>186</ele>
        <time>2014-04-13T08:09:15.000Z</time>
      </trkpt>
      <trkpt lat="48.90511" lon="1.12811">
        <ele>186</ele>
        <time>2014-04-13T08:09:17.000Z</time>
      </trkpt>
      <trkpt lat="48.90515" lon="1.12805">
        <ele>186</ele>
        <time>2014-04-13T08:09:19.000Z</time>
      </trkpt>
      <trkpt lat="48.9052" lon="1.128">
        <ele>186</ele>
        <time>2014-04-13T08:09:21.000Z</time>
      </trkpt>
      <trkpt lat="48.90525" lon="1.12793">
        <ele>186</ele>
        <time>2014-04-13T08:09:23.000Z</time>
      </trkpt>
      <trkpt lat="48.9053" lon="1.12788">
        <ele>186</ele>
        <time>2014-04-13T08:09:25.000Z</time>
      </trkpt>
      <trkpt lat="48.90535" lon="1.12781">
        <ele>186</ele>
        <time>2014-04-13T08:09:27.000Z</time>
      </trkpt>
      <trkpt lat="48.9054" lon="1.12776">
        <ele>186</ele>
        <time>2014-04-13T08:09:29.000Z</time>
      </trkpt>
      <trkpt lat="48.90544" lon="1.1277">
        <ele>186</ele>
        <time>2014-04-13T08:09:31.000Z</time>
      </trkpt>
      <trkpt lat="48.90544" lon="1.1277">
        <ele>186</ele>
        <time>2014-04-13T08:09:33.000Z</time>
      </trkpt>
      <trkpt lat="48.90553" lon="1.12759">
        <ele>186</ele>
        <time>2014-04-13T08:09:35.000Z</time>
      </trkpt>
      <trkpt lat="48.90557" lon="1.12754">
        <ele>186</ele>
        <time>2014-04-13T08:09:37.000Z</time>
      </trkpt>
      <trkpt lat="48.90563" lon="1.12751">
        <ele>186</ele>
        <time>2014-04-13T08:09:39.000Z</time>
      </trkpt>
      <trkpt lat="48.90568" lon="1.12756">
        <ele>186</ele>
        <time>2014-04-13T08:09:41.000Z</time>
      </trkpt>
      <trkpt lat="48.90574" lon="1.12762">
        <ele>186</ele>
        <time>2014-04-13T08:09:43.000Z</time>
      </trkpt>
      <trkpt lat="48.90578" lon="1.12769">
        <ele>186</ele>
        <time>2014-04-13T08:09:45.000Z</time>
      </trkpt>
      <trkpt lat="48.90584" lon="1.12777">
        <ele>186</ele>
        <time>2014-04-13T08:09:47.000Z</time>
      </trkpt>
      <trkpt lat="48.9059" lon="1.12786">
        <ele>186</ele>
        <time>2014-04-13T08:09:49.000Z</time>
      </trkpt>
      <trkpt lat="48.90594" lon="1.12793">
        <ele>186</ele>
        <time>2014-04-13T08:09:51.000Z</time>
      </trkpt>
      <trkpt lat="48.90599" lon="1.12801">
        <ele>186</ele>
        <time>2014-04-13T08:09:53.000Z</time>
      </trkpt>
      <trkpt lat="48.90605" lon="1.1281">
        <ele>187</ele>
        <time>2014-04-13T08:09:55.000Z</time>
      </trkpt>
      <trkpt lat="48.90611" lon="1.12819">
        <ele>188</ele>
        <time>2014-04-13T08:09:57.000Z</time>
      </trkpt>
      <trkpt lat="48.90618" lon="1.12828">
        <ele>189</ele>
        <time>2014-04-13T08:09:59.000Z</time>
      </trkpt>
      <trkpt lat="48.90624" lon="1.12838">
        <ele>188</ele>
        <time>2014-04-13T08:10:01.000Z</time>
      </trkpt>
      <trkpt lat="48.90631" lon="1.12848">
        <ele>189</ele>
        <time>2014-04-13T08:10:03.000Z</time>
      </trkpt>
      <trkpt lat="48.90638" lon="1.12857">
        <ele>190</ele>
        <time>2014-04-13T08:10:05.000Z</time>
      </trkpt>
      <trkpt lat="48.90644" lon="1.12866">
        <ele>190</ele>
        <time>2014-04-13T08:10:07.000Z</time>
      </trkpt>
      <trkpt lat="48.90651" lon="1.12875">
        <ele>189</ele>
        <time>2014-04-13T08:10:09.000Z</time>
      </trkpt>
      <trkpt lat="48.90658" lon="1.12878">
        <ele>189</ele>
        <time>2014-04-13T08:10:11.000Z</time>
      </trkpt>
      <trkpt lat="48.90665" lon="1.12874">
        <ele>189</ele>
        <time>2014-04-13T08:10:13.000Z</time>
      </trkpt>
      <trkpt lat="48.9067" lon="1.12863">
        <ele>189</ele>
        <time>2014-04-13T08:10:15.000Z</time>
      </trkpt>
      <trkpt lat="48.90674" lon="1.12851">
        <ele>189</ele>
        <time>2014-04-13T08:10:17.000Z</time>
      </trkpt>
      <trkpt lat="48.90676" lon="1.12839">
        <ele>189</ele>
        <time>2014-04-13T08:10:19.000Z</time>
      </trkpt>
      <trkpt lat="48.90672" lon="1.12825">
        <ele>189</ele>
        <time>2014-04-13T08:10:21.000Z</time>
      </trkpt>
      <trkpt lat="48.90667" lon="1.12816">
        <ele>188</ele>
        <time>2014-04-13T08:10:23.000Z</time>
      </trkpt>
      <trkpt lat="48.90663" lon="1.12808">
        <ele>188</ele>
        <time>2014-04-13T08:10:25.000Z</time>
      </trkpt>
      <trkpt lat="48.90659" lon="1.12801">
        <ele>188</ele>
        <time>2014-04-13T08:10:27.000Z</time>
      </trkpt>
      <trkpt lat="48.90659" lon="1.12801">
        <ele>188</ele>
        <time>2014-04-13T08:10:29.000Z</time>
      </trkpt>
      <trkpt lat="48.90653" lon="1.1279">
        <ele>188</ele>
        <time>2014-04-13T08:10:31.000Z</time>
      </trkpt>
      <trkpt lat="48.90653" lon="1.1279">
        <ele>188</ele>
        <time>2014-04-13T08:10:33.000Z</time>
      </trkpt>
      <trkpt lat="48.90647" lon="1.1278">
        <ele>187</ele>
        <time>2014-04-13T08:10:35.000Z</time>
      </trkpt>
      <trkpt lat="48.90647" lon="1.1278">
        <ele>187</ele>
        <time>2014-04-13T08:10:37.000Z</time>
      </trkpt>
      <trkpt lat="48.90642" lon="1.1277">
        <ele>187</ele>
        <time>2014-04-13T08:10:39.000Z</time>
      </trkpt>
      <trkpt lat="48.90642" lon="1.1277">
        <ele>187</ele>
        <time>2014-04-13T08:10:41.000Z</time>
      </trkpt>
      <trkpt lat="48.9064" lon="1.12759">
        <ele>187</ele>
        <time>2014-04-13T08:10:43.000Z</time>
      </trkpt>
      <trkpt lat="48.9064" lon="1.12759">
        <ele>187</ele>
        <time>2014-04-13T08:10:45.000Z</time>
      </trkpt>
      <trkpt lat="48.90645" lon="1.1275">
        <ele>187</ele>
        <time>2014-04-13T08:10:47.000Z</time>
      </trkpt>
      <trkpt lat="48.90645" lon="1.1275">
        <ele>187</ele>
        <time>2014-04-13T08:10:49.000Z</time>
      </trkpt>
      <trkpt lat="48.90654" lon="1.12741">
        <ele>187</ele>
        <time>2014-04-13T08:10:51.000Z</time>
      </trkpt>
      <trkpt lat="48.90659" lon="1.12736">
        <ele>187</ele>
        <time>2014-04-13T08:10:53.000Z</time>
      </trkpt>
      <trkpt lat="48.90664" lon="1.12731">
        <ele>187</ele>
        <time>2014-04-13T08:10:55.000Z</time>
      </trkpt>
      <trkpt lat="48.90672" lon="1.12722">
        <ele>187</ele>
        <time>2014-04-13T08:10:59.000Z</time>
      </trkpt>
      <trkpt lat="48.90682" lon="1.12713">
        <ele>187</ele>
        <time>2014-04-13T08:11:03.000Z</time>
      </trkpt>
      <trkpt lat="48.9069" lon="1.12703">
        <ele>187</ele>
        <time>2014-04-13T08:11:07.000Z</time>
      </trkpt>
      <trkpt lat="48.90699" lon="1.12691">
        <ele>187</ele>
        <time>2014-04-13T08:11:11.000Z</time>
      </trkpt>
      <trkpt lat="48.90704" lon="1.12685">
        <ele>187</ele>
        <time>2014-04-13T08:11:13.000Z</time>
      </trkpt>
      <trkpt lat="48.90709" lon="1.12677">
        <ele>187</ele>
        <time>2014-04-13T08:11:15.000Z</time>
      </trkpt>
      <trkpt lat="48.90714" lon="1.1267">
        <ele>187</ele>
        <time>2014-04-13T08:11:17.000Z</time>
      </trkpt>
      <trkpt lat="48.90718" lon="1.12663">
        <ele>187</ele>
        <time>2014-04-13T08:11:19.000Z</time>
      </trkpt>
      <trkpt lat="48.90723" lon="1.12655">
        <ele>186</ele>
        <time>2014-04-13T08:11:21.000Z</time>
      </trkpt>
      <trkpt lat="48.90728" lon="1.12648">
        <ele>186</ele>
        <time>2014-04-13T08:11:23.000Z</time>
      </trkpt>
      <trkpt lat="48.90732" lon="1.12641">
        <ele>186</ele>
        <time>2014-04-13T08:11:25.000Z</time>
      </trkpt>
      <trkpt lat="48.90737" lon="1.12634">
        <ele>186</ele>
        <time>2014-04-13T08:11:27.000Z</time>
      </trkpt>
      <trkpt lat="48.90741" lon="1.12627">
        <ele>186</ele>
        <time>2014-04-13T08:11:29.000Z</time>
      </trkpt>
      <trkpt lat="48.90747" lon="1.12613">
        <ele>186</ele>
        <time>2014-04-13T08:11:33.000Z</time>
      </trkpt>
      <trkpt lat="48.90751" lon="1.12606">
        <ele>186</ele>
        <time>2014-04-13T08:11:35.000Z</time>
      </trkpt>
      <trkpt lat="48.90754" lon="1.12599">
        <ele>186</ele>
        <time>2014-04-13T08:11:37.000Z</time>
      </trkpt>
      <trkpt lat="48.90754" lon="1.12599">
        <ele>186</ele>
        <time>2014-04-13T08:11:39.000Z</time>
      </trkpt>
      <trkpt lat="48.90761" lon="1.12586">
        <ele>186</ele>
        <time>2014-04-13T08:11:41.000Z</time>
      </trkpt>
      <trkpt lat="48.90765" lon="1.12578">
        <ele>186</ele>
        <time>2014-04-13T08:11:43.000Z</time>
      </trkpt>
      <trkpt lat="48.90765" lon="1.12578">
        <ele>186</ele>
        <time>2014-04-13T08:11:45.000Z</time>
      </trkpt>
      <trkpt lat="48.90771" lon="1.12566">
        <ele>186</ele>
        <time>2014-04-13T08:11:47.000Z</time>
      </trkpt>
      <trkpt lat="48.90776" lon="1.12561">
        <ele>186</ele>
        <time>2014-04-13T08:11:49.000Z</time>
      </trkpt>
      <trkpt lat="48.90776" lon="1.12561">
        <ele>186</ele>
        <time>2014-04-13T08:11:51.000Z</time>
      </trkpt>
      <trkpt lat="48.90783" lon="1.12547">
        <ele>186</ele>
        <time>2014-04-13T08:11:53.000Z</time>
      </trkpt>
      <trkpt lat="48.90786" lon="1.1254">
        <ele>186</ele>
        <time>2014-04-13T08:11:55.000Z</time>
      </trkpt>
      <trkpt lat="48.90789" lon="1.12532">
        <ele>186</ele>
        <time>2014-04-13T08:11:57.000Z</time>
      </trkpt>
      <trkpt lat="48.90792" lon="1.12524">
        <ele>186</ele>
        <time>2014-04-13T08:11:59.000Z</time>
      </trkpt>
      <trkpt lat="48.90796" lon="1.12517">
        <ele>186</ele>
        <time>2014-04-13T08:12:01.000Z</time>
      </trkpt>
      <trkpt lat="48.90799" lon="1.12509">
        <ele>186</ele>
        <time>2014-04-13T08:12:03.000Z</time>
      </trkpt>
      <trkpt lat="48.90802" lon="1.12501">
        <ele>186</ele>
        <time>2014-04-13T08:12:05.000Z</time>
      </trkpt>
      <trkpt lat="48.90805" lon="1.12493">
        <ele>186</ele>
        <time>2014-04-13T08:12:07.000Z</time>
      </trkpt>
      <trkpt lat="48.90808" lon="1.12486">
        <ele>186</ele>
        <time>2014-04-13T08:12:09.000Z</time>
      </trkpt>
      <trkpt lat="48.90812" lon="1.12478">
        <ele>186</ele>
        <time>2014-04-13T08:12:11.000Z</time>
      </trkpt>
      <trkpt lat="48.90815" lon="1.12471">
        <ele>186</ele>
        <time>2014-04-13T08:12:13.000Z</time>
      </trkpt>
      <trkpt lat="48.90817" lon="1.12463">
        <ele>186</ele>
        <time>2014-04-13T08:12:15.000Z</time>
      </trkpt>
      <trkpt lat="48.9082" lon="1.12455">
        <ele>186</ele>
        <time>2014-04-13T08:12:17.000Z</time>
      </trkpt>
      <trkpt lat="48.90823" lon="1.12447">
        <ele>186</ele>
        <time>2014-04-13T08:12:19.000Z</time>
      </trkpt>
      <trkpt lat="48.90827" lon="1.12439">
        <ele>186</ele>
        <time>2014-04-13T08:12:21.000Z</time>
      </trkpt>
      <trkpt lat="48.90834" lon="1.12425">
        <ele>186</ele>
        <time>2014-04-13T08:12:25.000Z</time>
      </trkpt>
      <trkpt lat="48.90837" lon="1.12418">
        <ele>186</ele>
        <time>2014-04-13T08:12:27.000Z</time>
      </trkpt>
      <trkpt lat="48.90841" lon="1.12411">
        <ele>186</ele>
        <time>2014-04-13T08:12:29.000Z</time>
      </trkpt>
      <trkpt lat="48.90845" lon="1.12404">
        <ele>186</ele>
        <time>2014-04-13T08:12:31.000Z</time>
      </trkpt>
      <trkpt lat="48.90845" lon="1.12404">
        <ele>186</ele>
        <time>2014-04-13T08:12:33.000Z</time>
      </trkpt>
      <trkpt lat="48.90851" lon="1.12391">
        <ele>186</ele>
        <time>2014-04-13T08:12:35.000Z</time>
      </trkpt>
      <trkpt lat="48.90855" lon="1.12384">
        <ele>186</ele>
        <time>2014-04-13T08:12:37.000Z</time>
      </trkpt>
      <trkpt lat="48.90858" lon="1.12377">
        <ele>186</ele>
        <time>2014-04-13T08:12:39.000Z</time>
      </trkpt>
      <trkpt lat="48.90862" lon="1.12371">
        <ele>186</ele>
        <time>2014-04-13T08:12:41.000Z</time>
      </trkpt>
      <trkpt lat="48.90866" lon="1.12364">
        <ele>186</ele>
        <time>2014-04-13T08:12:43.000Z</time>
      </trkpt>
      <trkpt lat="48.9087" lon="1.12357">
        <ele>186</ele>
        <time>2014-04-13T08:12:45.000Z</time>
      </trkpt>
      <trkpt lat="48.90877" lon="1.12344">
        <ele>186</ele>
        <time>2014-04-13T08:12:49.000Z</time>
      </trkpt>
      <trkpt lat="48.90881" lon="1.12337">
        <ele>186</ele>
        <time>2014-04-13T08:12:51.000Z</time>
      </trkpt>
      <trkpt lat="48.90885" lon="1.1233">
        <ele>186</ele>
        <time>2014-04-13T08:12:53.000Z</time>
      </trkpt>
      <trkpt lat="48.90889" lon="1.12324">
        <ele>186</ele>
        <time>2014-04-13T08:12:55.000Z</time>
      </trkpt>
      <trkpt lat="48.90893" lon="1.12317">
        <ele>186</ele>
        <time>2014-04-13T08:12:57.000Z</time>
      </trkpt>
      <trkpt lat="48.90897" lon="1.12309">
        <ele>186</ele>
        <time>2014-04-13T08:12:59.000Z</time>
      </trkpt>
      <trkpt lat="48.909" lon="1.12302">
        <ele>187</ele>
        <time>2014-04-13T08:13:01.000Z</time>
      </trkpt>
      <trkpt lat="48.90904" lon="1.12295">
        <ele>187</ele>
        <time>2014-04-13T08:13:03.000Z</time>
      </trkpt>
      <trkpt lat="48.90908" lon="1.12288">
        <ele>187</ele>
        <time>2014-04-13T08:13:05.000Z</time>
      </trkpt>
      <trkpt lat="48.90911" lon="1.1228">
        <ele>187</ele>
        <time>2014-04-13T08:13:07.000Z</time>
      </trkpt>
      <trkpt lat="48.90915" lon="1.12271">
        <ele>187</ele>
        <time>2014-04-13T08:13:09.000Z</time>
      </trkpt>
      <trkpt lat="48.90915" lon="1.12271">
        <ele>187</ele>
        <time>2014-04-13T08:13:11.000Z</time>
      </trkpt>
      <trkpt lat="48.90921" lon="1.12258">
        <ele>187</ele>
        <time>2014-04-13T08:13:13.000Z</time>
      </trkpt>
      <trkpt lat="48.90924" lon="1.12251">
        <ele>187</ele>
        <time>2014-04-13T08:13:15.000Z</time>
      </trkpt>
      <trkpt lat="48.90924" lon="1.12251">
        <ele>187</ele>
        <time>2014-04-13T08:13:17.000Z</time>
      </trkpt>
      <trkpt lat="48.9093" lon="1.12238">
        <ele>187</ele>
        <time>2014-04-13T08:13:19.000Z</time>
      </trkpt>
      <trkpt lat="48.9093" lon="1.12238">
        <ele>187</ele>
        <time>2014-04-13T08:13:21.000Z</time>
      </trkpt>
      <trkpt lat="48.90936" lon="1.12224">
        <ele>187</ele>
        <time>2014-04-13T08:13:23.000Z</time>
      </trkpt>
      <trkpt lat="48.90936" lon="1.12224">
        <ele>187</ele>
        <time>2014-04-13T08:13:25.000Z</time>
      </trkpt>
      <trkpt lat="48.90942" lon="1.1221">
        <ele>187</ele>
        <time>2014-04-13T08:13:27.000Z</time>
      </trkpt>
      <trkpt lat="48.90942" lon="1.1221">
        <ele>187</ele>
        <time>2014-04-13T08:13:29.000Z</time>
      </trkpt>
      <trkpt lat="48.90946" lon="1.12197">
        <ele>187</ele>
        <time>2014-04-13T08:13:31.000Z</time>
      </trkpt>
      <trkpt lat="48.90946" lon="1.12197">
        <ele>187</ele>
        <time>2014-04-13T08:13:33.000Z</time>
      </trkpt>
      <trkpt lat="48.90951" lon="1.12186">
        <ele>188</ele>
        <time>2014-04-13T08:13:35.000Z</time>
      </trkpt>
      <trkpt lat="48.90951" lon="1.12186">
        <ele>188</ele>
        <time>2014-04-13T08:13:37.000Z</time>
      </trkpt>
      <trkpt lat="48.90957" lon="1.12173">
        <ele>188</ele>
        <time>2014-04-13T08:13:39.000Z</time>
      </trkpt>
      <trkpt lat="48.90957" lon="1.12173">
        <ele>188</ele>
        <time>2014-04-13T08:13:41.000Z</time>
      </trkpt>
      <trkpt lat="48.90963" lon="1.12159">
        <ele>188</ele>
        <time>2014-04-13T08:13:43.000Z</time>
      </trkpt>
      <trkpt lat="48.90963" lon="1.12159">
        <ele>188</ele>
        <time>2014-04-13T08:13:45.000Z</time>
      </trkpt>
      <trkpt lat="48.90968" lon="1.12146">
        <ele>188</ele>
        <time>2014-04-13T08:13:47.000Z</time>
      </trkpt>
      <trkpt lat="48.90973" lon="1.12131">
        <ele>188</ele>
        <time>2014-04-13T08:13:51.000Z</time>
      </trkpt>
      <trkpt lat="48.90979" lon="1.12117">
        <ele>188</ele>
        <time>2014-04-13T08:13:55.000Z</time>
      </trkpt>
      <trkpt lat="48.90981" lon="1.1211">
        <ele>189</ele>
        <time>2014-04-13T08:13:59.000Z</time>
      </trkpt>
      <trkpt lat="48.90984" lon="1.12103">
        <ele>189</ele>
        <time>2014-04-13T08:14:01.000Z</time>
      </trkpt>
      <trkpt lat="48.90987" lon="1.12095">
        <ele>189</ele>
        <time>2014-04-13T08:14:03.000Z</time>
      </trkpt>
      <trkpt lat="48.90989" lon="1.12088">
        <ele>189</ele>
        <time>2014-04-13T08:14:05.000Z</time>
      </trkpt>
      <trkpt lat="48.90992" lon="1.12081">
        <ele>189</ele>
        <time>2014-04-13T08:14:07.000Z</time>
      </trkpt>
      <trkpt lat="48.90997" lon="1.12067">
        <ele>189</ele>
        <time>2014-04-13T08:14:09.000Z</time>
      </trkpt>
      <trkpt lat="48.91002" lon="1.12052">
        <ele>189</ele>
        <time>2014-04-13T08:14:13.000Z</time>
      </trkpt>
      <trkpt lat="48.91006" lon="1.12037">
        <ele>189</ele>
        <time>2014-04-13T08:14:17.000Z</time>
      </trkpt>
      <trkpt lat="48.91009" lon="1.1203">
        <ele>189</ele>
        <time>2014-04-13T08:14:19.000Z</time>
      </trkpt>
      <trkpt lat="48.91011" lon="1.12021">
        <ele>189</ele>
        <time>2014-04-13T08:14:21.000Z</time>
      </trkpt>
      <trkpt lat="48.91014" lon="1.12012">
        <ele>190</ele>
        <time>2014-04-13T08:14:23.000Z</time>
      </trkpt>
      <trkpt lat="48.91016" lon="1.12004">
        <ele>190</ele>
        <time>2014-04-13T08:14:25.000Z</time>
      </trkpt>
      <trkpt lat="48.91019" lon="1.11995">
        <ele>190</ele>
        <time>2014-04-13T08:14:27.000Z</time>
      </trkpt>
      <trkpt lat="48.91021" lon="1.11986">
        <ele>190</ele>
        <time>2014-04-13T08:14:29.000Z</time>
      </trkpt>
      <trkpt lat="48.91024" lon="1.11977">
        <ele>190</ele>
        <time>2014-04-13T08:14:31.000Z</time>
      </trkpt>
      <trkpt lat="48.91026" lon="1.11967">
        <ele>190</ele>
        <time>2014-04-13T08:14:33.000Z</time>
      </trkpt>
      <trkpt lat="48.91028" lon="1.11957">
        <ele>190</ele>
        <time>2014-04-13T08:14:35.000Z</time>
      </trkpt>
      <trkpt lat="48.9103" lon="1.11947">
        <ele>190</ele>
        <time>2014-04-13T08:14:37.000Z</time>
      </trkpt>
      <trkpt lat="48.91032" lon="1.11937">
        <ele>190</ele>
        <time>2014-04-13T08:14:39.000Z</time>
      </trkpt>
      <trkpt lat="48.91034" lon="1.11928">
        <ele>190</ele>
        <time>2014-04-13T08:14:41.000Z</time>
      </trkpt>
      <trkpt lat="48.91036" lon="1.11917">
        <ele>190</ele>
        <time>2014-04-13T08:14:43.000Z</time>
      </trkpt>
      <trkpt lat="48.91039" lon="1.11908">
        <ele>190</ele>
        <time>2014-04-13T08:14:45.000Z</time>
      </trkpt>
      <trkpt lat="48.91042" lon="1.11897">
        <ele>190</ele>
        <time>2014-04-13T08:14:47.000Z</time>
      </trkpt>
      <trkpt lat="48.91045" lon="1.11888">
        <ele>190</ele>
        <time>2014-04-13T08:14:49.000Z</time>
      </trkpt>
      <trkpt lat="48.91049" lon="1.11878">
        <ele>190</ele>
        <time>2014-04-13T08:14:51.000Z</time>
      </trkpt>
      <trkpt lat="48.91053" lon="1.11868">
        <ele>190</ele>
        <time>2014-04-13T08:14:53.000Z</time>
      </trkpt>
      <trkpt lat="48.91057" lon="1.11859">
        <ele>190</ele>
        <time>2014-04-13T08:14:55.000Z</time>
      </trkpt>
      <trkpt lat="48.91062" lon="1.11851">
        <ele>190</ele>
        <time>2014-04-13T08:14:57.000Z</time>
      </trkpt>
      <trkpt lat="48.91067" lon="1.11841">
        <ele>190</ele>
        <time>2014-04-13T08:14:59.000Z</time>
      </trkpt>
      <trkpt lat="48.91072" lon="1.11832">
        <ele>191</ele>
        <time>2014-04-13T08:15:01.000Z</time>
      </trkpt>
      <trkpt lat="48.91077" lon="1.11823">
        <ele>191</ele>
        <time>2014-04-13T08:15:03.000Z</time>
      </trkpt>
      <trkpt lat="48.91083" lon="1.11814">
        <ele>191</ele>
        <time>2014-04-13T08:15:05.000Z</time>
      </trkpt>
      <trkpt lat="48.91088" lon="1.11806">
        <ele>191</ele>
        <time>2014-04-13T08:15:07.000Z</time>
      </trkpt>
      <trkpt lat="48.91094" lon="1.11797">
        <ele>191</ele>
        <time>2014-04-13T08:15:09.000Z</time>
      </trkpt>
      <trkpt lat="48.91099" lon="1.11789">
        <ele>191</ele>
        <time>2014-04-13T08:15:11.000Z</time>
      </trkpt>
      <trkpt lat="48.91104" lon="1.11781">
        <ele>191</ele>
        <time>2014-04-13T08:15:13.000Z</time>
      </trkpt>
      <trkpt lat="48.9111" lon="1.11773">
        <ele>191</ele>
        <time>2014-04-13T08:15:15.000Z</time>
      </trkpt>
      <trkpt lat="48.91116" lon="1.11767">
        <ele>191</ele>
        <time>2014-04-13T08:15:17.000Z</time>
      </trkpt>
      <trkpt lat="48.91121" lon="1.11761">
        <ele>191</ele>
        <time>2014-04-13T08:15:19.000Z</time>
      </trkpt>
      <trkpt lat="48.91127" lon="1.11754">
        <ele>191</ele>
        <time>2014-04-13T08:15:21.000Z</time>
      </trkpt>
      <trkpt lat="48.91134" lon="1.11746">
        <ele>191</ele>
        <time>2014-04-13T08:15:23.000Z</time>
      </trkpt>
      <trkpt lat="48.91143" lon="1.1174">
        <ele>192</ele>
        <time>2014-04-13T08:15:25.000Z</time>
      </trkpt>
      <trkpt lat="48.91152" lon="1.11734">
        <ele>192</ele>
        <time>2014-04-13T08:15:27.000Z</time>
      </trkpt>
      <trkpt lat="48.91159" lon="1.1173">
        <ele>194</ele>
        <time>2014-04-13T08:15:29.000Z</time>
      </trkpt>
      <trkpt lat="48.91168" lon="1.11724">
        <ele>195</ele>
        <time>2014-04-13T08:15:31.000Z</time>
      </trkpt>
      <trkpt lat="48.91177" lon="1.11719">
        <ele>195</ele>
        <time>2014-04-13T08:15:33.000Z</time>
      </trkpt>
      <trkpt lat="48.91185" lon="1.11714">
        <ele>195</ele>
        <time>2014-04-13T08:15:35.000Z</time>
      </trkpt>
      <trkpt lat="48.91193" lon="1.11707">
        <ele>196</ele>
        <time>2014-04-13T08:15:37.000Z</time>
      </trkpt>
      <trkpt lat="48.912" lon="1.117">
        <ele>197</ele>
        <time>2014-04-13T08:15:39.000Z</time>
      </trkpt>
      <trkpt lat="48.91207" lon="1.11693">
        <ele>199</ele>
        <time>2014-04-13T08:15:41.000Z</time>
      </trkpt>
      <trkpt lat="48.91215" lon="1.11684">
        <ele>199</ele>
        <time>2014-04-13T08:15:43.000Z</time>
      </trkpt>
      <trkpt lat="48.91224" lon="1.11675">
        <ele>198</ele>
        <time>2014-04-13T08:15:45.000Z</time>
      </trkpt>
      <trkpt lat="48.91233" lon="1.11667">
        <ele>197</ele>
        <time>2014-04-13T08:15:47.000Z</time>
      </trkpt>
      <trkpt lat="48.91241" lon="1.11658">
        <ele>196</ele>
        <time>2014-04-13T08:15:49.000Z</time>
      </trkpt>
      <trkpt lat="48.91249" lon="1.11648">
        <ele>196</ele>
        <time>2014-04-13T08:15:51.000Z</time>
      </trkpt>
      <trkpt lat="48.91257" lon="1.11637">
        <ele>196</ele>
        <time>2014-04-13T08:15:53.000Z</time>
      </trkpt>
      <trkpt lat="48.91265" lon="1.11624">
        <ele>195</ele>
        <time>2014-04-13T08:15:55.000Z</time>
      </trkpt>
      <trkpt lat="48.91271" lon="1.1161">
        <ele>195</ele>
        <time>2014-04-13T08:15:57.000Z</time>
      </trkpt>
      <trkpt lat="48.91275" lon="1.11595">
        <ele>195</ele>
        <time>2014-04-13T08:15:59.000Z</time>
      </trkpt>
      <trkpt lat="48.9128" lon="1.11578">
        <ele>194</ele>
        <time>2014-04-13T08:16:01.000Z</time>
      </trkpt>
      <trkpt lat="48.91284" lon="1.11564">
        <ele>194</ele>
        <time>2014-04-13T08:16:03.000Z</time>
      </trkpt>
      <trkpt lat="48.91289" lon="1.1155">
        <ele>194</ele>
        <time>2014-04-13T08:16:05.000Z</time>
      </trkpt>
      <trkpt lat="48.91298" lon="1.11539">
        <ele>193</ele>
        <time>2014-04-13T08:16:07.000Z</time>
      </trkpt>
      <trkpt lat="48.91307" lon="1.11528">
        <ele>193</ele>
        <time>2014-04-13T08:16:09.000Z</time>
      </trkpt>
      <trkpt lat="48.91315" lon="1.11519">
        <ele>193</ele>
        <time>2014-04-13T08:16:11.000Z</time>
      </trkpt>
      <trkpt lat="48.91325" lon="1.11508">
        <ele>193</ele>
        <time>2014-04-13T08:16:13.000Z</time>
      </trkpt>
      <trkpt lat="48.91335" lon="1.11497">
        <ele>193</ele>
        <time>2014-04-13T08:16:15.000Z</time>
      </trkpt>
      <trkpt lat="48.91344" lon="1.11487">
        <ele>193</ele>
        <time>2014-04-13T08:16:17.000Z</time>
      </trkpt>
      <trkpt lat="48.91355" lon="1.11477">
        <ele>193</ele>
        <time>2014-04-13T08:16:19.000Z</time>
      </trkpt>
      <trkpt lat="48.91365" lon="1.11465">
        <ele>193</ele>
        <time>2014-04-13T08:16:21.000Z</time>
      </trkpt>
      <trkpt lat="48.91376" lon="1.11454">
        <ele>193</ele>
        <time>2014-04-13T08:16:23.000Z</time>
      </trkpt>
      <trkpt lat="48.91385" lon="1.11442">
        <ele>193</ele>
        <time>2014-04-13T08:16:25.000Z</time>
      </trkpt>
      <trkpt lat="48.91393" lon="1.11429">
        <ele>193</ele>
        <time>2014-04-13T08:16:27.000Z</time>
      </trkpt>
      <trkpt lat="48.91399" lon="1.11413">
        <ele>192</ele>
        <time>2014-04-13T08:16:29.000Z</time>
      </trkpt>
      <trkpt lat="48.91405" lon="1.11398">
        <ele>190</ele>
        <time>2014-04-13T08:16:31.000Z</time>
      </trkpt>
      <trkpt lat="48.91409" lon="1.11386">
        <ele>190</ele>
        <time>2014-04-13T08:16:33.000Z</time>
      </trkpt>
      <trkpt lat="48.91411" lon="1.11372">
        <ele>190</ele>
        <time>2014-04-13T08:16:35.000Z</time>
      </trkpt>
      <trkpt lat="48.91412" lon="1.11357">
        <ele>190</ele>
        <time>2014-04-13T08:16:37.000Z</time>
      </trkpt>
      <trkpt lat="48.91411" lon="1.11344">
        <ele>190</ele>
        <time>2014-04-13T08:16:39.000Z</time>
      </trkpt>
      <trkpt lat="48.9141" lon="1.11331">
        <ele>190</ele>
        <time>2014-04-13T08:16:41.000Z</time>
      </trkpt>
      <trkpt lat="48.91408" lon="1.11316">
        <ele>190</ele>
        <time>2014-04-13T08:16:43.000Z</time>
      </trkpt>
      <trkpt lat="48.91406" lon="1.11303">
        <ele>189</ele>
        <time>2014-04-13T08:16:45.000Z</time>
      </trkpt>
      <trkpt lat="48.91405" lon="1.11292">
        <ele>189</ele>
        <time>2014-04-13T08:16:47.000Z</time>
      </trkpt>
      <trkpt lat="48.91404" lon="1.1128">
        <ele>189</ele>
        <time>2014-04-13T08:16:49.000Z</time>
      </trkpt>
      <trkpt lat="48.91403" lon="1.11268">
        <ele>189</ele>
        <time>2014-04-13T08:16:51.000Z</time>
      </trkpt>
      <trkpt lat="48.91402" lon="1.11258">
        <ele>189</ele>
        <time>2014-04-13T08:16:53.000Z</time>
      </trkpt>
      <trkpt lat="48.91401" lon="1.11248">
        <ele>189</ele>
        <time>2014-04-13T08:16:55.000Z</time>
      </trkpt>
      <trkpt lat="48.91399" lon="1.11238">
        <ele>189</ele>
        <time>2014-04-13T08:16:57.000Z</time>
      </trkpt>
      <trkpt lat="48.91398" lon="1.11228">
        <ele>189</ele>
        <time>2014-04-13T08:16:59.000Z</time>
      </trkpt>
      <trkpt lat="48.91396" lon="1.11219">
        <ele>189</ele>
        <time>2014-04-13T08:17:01.000Z</time>
      </trkpt>
      <trkpt lat="48.91395" lon="1.1121">
        <ele>189</ele>
        <time>2014-04-13T08:17:03.000Z</time>
      </trkpt>
      <trkpt lat="48.91393" lon="1.11201">
        <ele>190</ele>
        <time>2014-04-13T08:17:05.000Z</time>
      </trkpt>
      <trkpt lat="48.91392" lon="1.11192">
        <ele>190</ele>
        <time>2014-04-13T08:17:07.000Z</time>
      </trkpt>
      <trkpt lat="48.91392" lon="1.11192">
        <ele>190</ele>
        <time>2014-04-13T08:17:09.000Z</time>
      </trkpt>
      <trkpt lat="48.91389" lon="1.11178">
        <ele>190</ele>
        <time>2014-04-13T08:17:11.000Z</time>
      </trkpt>
      <trkpt lat="48.91389" lon="1.11178">
        <ele>190</ele>
        <time>2014-04-13T08:17:13.000Z</time>
      </trkpt>
      <trkpt lat="48.91386" lon="1.11164">
        <ele>190</ele>
        <time>2014-04-13T08:17:15.000Z</time>
      </trkpt>
      <trkpt lat="48.91386" lon="1.11164">
        <ele>190</ele>
        <time>2014-04-13T08:17:17.000Z</time>
      </trkpt>
      <trkpt lat="48.91383" lon="1.1115">
        <ele>190</ele>
        <time>2014-04-13T08:17:19.000Z</time>
      </trkpt>
      <trkpt lat="48.91383" lon="1.1115">
        <ele>190</ele>
        <time>2014-04-13T08:17:21.000Z</time>
      </trkpt>
      <trkpt lat="48.9138" lon="1.11134">
        <ele>190</ele>
        <time>2014-04-13T08:17:23.000Z</time>
      </trkpt>
      <trkpt lat="48.9138" lon="1.11134">
        <ele>190</ele>
        <time>2014-04-13T08:17:25.000Z</time>
      </trkpt>
      <trkpt lat="48.91377" lon="1.11118">
        <ele>191</ele>
        <time>2014-04-13T08:17:27.000Z</time>
      </trkpt>
      <trkpt lat="48.91373" lon="1.11101">
        <ele>191</ele>
        <time>2014-04-13T08:17:31.000Z</time>
      </trkpt>
      <trkpt lat="48.9137" lon="1.11092">
        <ele>191</ele>
        <time>2014-04-13T08:17:33.000Z</time>
      </trkpt>
      <trkpt lat="48.91367" lon="1.11083">
        <ele>191</ele>
        <time>2014-04-13T08:17:35.000Z</time>
      </trkpt>
      <trkpt lat="48.91364" lon="1.11074">
        <ele>191</ele>
        <time>2014-04-13T08:17:37.000Z</time>
      </trkpt>
      <trkpt lat="48.91361" lon="1.11066">
        <ele>191</ele>
        <time>2014-04-13T08:17:39.000Z</time>
      </trkpt>
      <trkpt lat="48.91357" lon="1.11057">
        <ele>191</ele>
        <time>2014-04-13T08:17:41.000Z</time>
      </trkpt>
      <trkpt lat="48.91354" lon="1.11048">
        <ele>191</ele>
        <time>2014-04-13T08:17:43.000Z</time>
      </trkpt>
      <trkpt lat="48.91351" lon="1.1104">
        <ele>192</ele>
        <time>2014-04-13T08:17:45.000Z</time>
      </trkpt>
      <trkpt lat="48.91347" lon="1.1103">
        <ele>192</ele>
        <time>2014-04-13T08:17:47.000Z</time>
      </trkpt>
      <trkpt lat="48.91344" lon="1.11021">
        <ele>192</ele>
        <time>2014-04-13T08:17:49.000Z</time>
      </trkpt>
      <trkpt lat="48.9134" lon="1.11012">
        <ele>192</ele>
        <time>2014-04-13T08:17:51.000Z</time>
      </trkpt>
      <trkpt lat="48.91337" lon="1.11003">
        <ele>192</ele>
        <time>2014-04-13T08:17:53.000Z</time>
      </trkpt>
      <trkpt lat="48.91334" lon="1.10995">
        <ele>192</ele>
        <time>2014-04-13T08:17:55.000Z</time>
      </trkpt>
      <trkpt lat="48.9133" lon="1.10986">
        <ele>192</ele>
        <time>2014-04-13T08:17:57.000Z</time>
      </trkpt>
      <trkpt lat="48.91327" lon="1.10978">
        <ele>192</ele>
        <time>2014-04-13T08:17:59.000Z</time>
      </trkpt>
      <trkpt lat="48.91324" lon="1.10969">
        <ele>192</ele>
        <time>2014-04-13T08:18:01.000Z</time>
      </trkpt>
      <trkpt lat="48.9132" lon="1.10959">
        <ele>192</ele>
        <time>2014-04-13T08:18:03.000Z</time>
      </trkpt>
      <trkpt lat="48.91317" lon="1.1095">
        <ele>193</ele>
        <time>2014-04-13T08:18:05.000Z</time>
      </trkpt>
      <trkpt lat="48.91314" lon="1.10941">
        <ele>193</ele>
        <time>2014-04-13T08:18:07.000Z</time>
      </trkpt>
      <trkpt lat="48.9131" lon="1.10931">
        <ele>193</ele>
        <time>2014-04-13T08:18:09.000Z</time>
      </trkpt>
      <trkpt lat="48.91307" lon="1.10922">
        <ele>193</ele>
        <time>2014-04-13T08:18:11.000Z</time>
      </trkpt>
      <trkpt lat="48.91304" lon="1.10913">
        <ele>193</ele>
        <time>2014-04-13T08:18:13.000Z</time>
      </trkpt>
      <trkpt lat="48.913" lon="1.10904">
        <ele>193</ele>
        <time>2014-04-13T08:18:15.000Z</time>
      </trkpt>
      <trkpt lat="48.91297" lon="1.10896">
        <ele>193</ele>
        <time>2014-04-13T08:18:17.000Z</time>
      </trkpt>
      <trkpt lat="48.91297" lon="1.10896">
        <ele>193</ele>
        <time>2014-04-13T08:18:19.000Z</time>
      </trkpt>
      <trkpt lat="48.91291" lon="1.10881">
        <ele>193</ele>
        <time>2014-04-13T08:18:21.000Z</time>
      </trkpt>
      <trkpt lat="48.91289" lon="1.10872">
        <ele>193</ele>
        <time>2014-04-13T08:18:23.000Z</time>
      </trkpt>
      <trkpt lat="48.91289" lon="1.10872">
        <ele>193</ele>
        <time>2014-04-13T08:18:25.000Z</time>
      </trkpt>
      <trkpt lat="48.91284" lon="1.10857">
        <ele>193</ele>
        <time>2014-04-13T08:18:27.000Z</time>
      </trkpt>
      <trkpt lat="48.91281" lon="1.10849">
        <ele>193</ele>
        <time>2014-04-13T08:18:29.000Z</time>
      </trkpt>
      <trkpt lat="48.91281" lon="1.10849">
        <ele>193</ele>
        <time>2014-04-13T08:18:31.000Z</time>
      </trkpt>
      <trkpt lat="48.91275" lon="1.10837">
        <ele>193</ele>
        <time>2014-04-13T08:18:33.000Z</time>
      </trkpt>
      <trkpt lat="48.91275" lon="1.10837">
        <ele>193</ele>
        <time>2014-04-13T08:18:35.000Z</time>
      </trkpt>
      <trkpt lat="48.9127" lon="1.10822">
        <ele>193</ele>
        <time>2014-04-13T08:18:37.000Z</time>
      </trkpt>
      <trkpt lat="48.91267" lon="1.10814">
        <ele>193</ele>
        <time>2014-04-13T08:18:39.000Z</time>
      </trkpt>
      <trkpt lat="48.91265" lon="1.10806">
        <ele>193</ele>
        <time>2014-04-13T08:18:41.000Z</time>
      </trkpt>
      <trkpt lat="48.91265" lon="1.10806">
        <ele>193</ele>
        <time>2014-04-13T08:18:43.000Z</time>
      </trkpt>
      <trkpt lat="48.91259" lon="1.10792">
        <ele>193</ele>
        <time>2014-04-13T08:18:45.000Z</time>
      </trkpt>
      <trkpt lat="48.91254" lon="1.10777">
        <ele>193</ele>
        <time>2014-04-13T08:18:49.000Z</time>
      </trkpt>
      <trkpt lat="48.91251" lon="1.10769">
        <ele>193</ele>
        <time>2014-04-13T08:18:51.000Z</time>
      </trkpt>
      <trkpt lat="48.91248" lon="1.10761">
        <ele>193</ele>
        <time>2014-04-13T08:18:53.000Z</time>
      </trkpt>
      <trkpt lat="48.91245" lon="1.10753">
        <ele>193</ele>
        <time>2014-04-13T08:18:55.000Z</time>
      </trkpt>
      <trkpt lat="48.91242" lon="1.10745">
        <ele>193</ele>
        <time>2014-04-13T08:18:57.000Z</time>
      </trkpt>
      <trkpt lat="48.91236" lon="1.1073">
        <ele>193</ele>
        <time>2014-04-13T08:19:01.000Z</time>
      </trkpt>
      <trkpt lat="48.91233" lon="1.10721">
        <ele>193</ele>
        <time>2014-04-13T08:19:03.000Z</time>
      </trkpt>
      <trkpt lat="48.9123" lon="1.10713">
        <ele>193</ele>
        <time>2014-04-13T08:19:05.000Z</time>
      </trkpt>
      <trkpt lat="48.91225" lon="1.10696">
        <ele>193</ele>
        <time>2014-04-13T08:19:09.000Z</time>
      </trkpt>
      <trkpt lat="48.91222" lon="1.10687">
        <ele>194</ele>
        <time>2014-04-13T08:19:11.000Z</time>
      </trkpt>
      <trkpt lat="48.91219" lon="1.10679">
        <ele>194</ele>
        <time>2014-04-13T08:19:13.000Z</time>
      </trkpt>
      <trkpt lat="48.91216" lon="1.1067">
        <ele>194</ele>
        <time>2014-04-13T08:19:15.000Z</time>
      </trkpt>
      <trkpt lat="48.91213" lon="1.10662">
        <ele>194</ele>
        <time>2014-04-13T08:19:17.000Z</time>
      </trkpt>
      <trkpt lat="48.91211" lon="1.10654">
        <ele>194</ele>
        <time>2014-04-13T08:19:19.000Z</time>
      </trkpt>
      <trkpt lat="48.91208" lon="1.10646">
        <ele>194</ele>
        <time>2014-04-13T08:19:21.000Z</time>
      </trkpt>
      <trkpt lat="48.91205" lon="1.10637">
        <ele>194</ele>
        <time>2014-04-13T08:19:23.000Z</time>
      </trkpt>
      <trkpt lat="48.91202" lon="1.10629">
        <ele>194</ele>
        <time>2014-04-13T08:19:25.000Z</time>
      </trkpt>
      <trkpt lat="48.91199" lon="1.10621">
        <ele>194</ele>
        <time>2014-04-13T08:19:27.000Z</time>
      </trkpt>
      <trkpt lat="48.91196" lon="1.10611">
        <ele>194</ele>
        <time>2014-04-13T08:19:29.000Z</time>
      </trkpt>
      <trkpt lat="48.91192" lon="1.10601">
        <ele>194</ele>
        <time>2014-04-13T08:19:31.000Z</time>
      </trkpt>
      <trkpt lat="48.91188" lon="1.10592">
        <ele>194</ele>
        <time>2014-04-13T08:19:33.000Z</time>
      </trkpt>
      <trkpt lat="48.91184" lon="1.10582">
        <ele>194</ele>
        <time>2014-04-13T08:19:35.000Z</time>
      </trkpt>
      <trkpt lat="48.9118" lon="1.10574">
        <ele>194</ele>
        <time>2014-04-13T08:19:37.000Z</time>
      </trkpt>
      <trkpt lat="48.91177" lon="1.10566">
        <ele>194</ele>
        <time>2014-04-13T08:19:39.000Z</time>
      </trkpt>
      <trkpt lat="48.91172" lon="1.10558">
        <ele>194</ele>
        <time>2014-04-13T08:19:41.000Z</time>
      </trkpt>
      <trkpt lat="48.91167" lon="1.1055">
        <ele>194</ele>
        <time>2014-04-13T08:19:43.000Z</time>
      </trkpt>
      <trkpt lat="48.91163" lon="1.10542">
        <ele>194</ele>
        <time>2014-04-13T08:19:45.000Z</time>
      </trkpt>
      <trkpt lat="48.91158" lon="1.10533">
        <ele>194</ele>
        <time>2014-04-13T08:19:47.000Z</time>
      </trkpt>
      <trkpt lat="48.91154" lon="1.10525">
        <ele>194</ele>
        <time>2014-04-13T08:19:49.000Z</time>
      </trkpt>
      <trkpt lat="48.9115" lon="1.10516">
        <ele>194</ele>
        <time>2014-04-13T08:19:51.000Z</time>
      </trkpt>
      <trkpt lat="48.91145" lon="1.10508">
        <ele>194</ele>
        <time>2014-04-13T08:19:53.000Z</time>
      </trkpt>
      <trkpt lat="48.9114" lon="1.105">
        <ele>194</ele>
        <time>2014-04-13T08:19:55.000Z</time>
      </trkpt>
      <trkpt lat="48.91135" lon="1.10492">
        <ele>194</ele>
        <time>2014-04-13T08:19:57.000Z</time>
      </trkpt>
      <trkpt lat="48.91131" lon="1.10484">
        <ele>194</ele>
        <time>2014-04-13T08:19:59.000Z</time>
      </trkpt>
      <trkpt lat="48.91125" lon="1.10476">
        <ele>194</ele>
        <time>2014-04-13T08:20:01.000Z</time>
      </trkpt>
      <trkpt lat="48.91121" lon="1.10468">
        <ele>194</ele>
        <time>2014-04-13T08:20:03.000Z</time>
      </trkpt>
      <trkpt lat="48.91116" lon="1.10461">
        <ele>194</ele>
        <time>2014-04-13T08:20:05.000Z</time>
      </trkpt>
      <trkpt lat="48.91111" lon="1.10453">
        <ele>194</ele>
        <time>2014-04-13T08:20:07.000Z</time>
      </trkpt>
      <trkpt lat="48.91107" lon="1.10447">
        <ele>194</ele>
        <time>2014-04-13T08:20:09.000Z</time>
      </trkpt>
      <trkpt lat="48.91102" lon="1.10441">
        <ele>194</ele>
        <time>2014-04-13T08:20:11.000Z</time>
      </trkpt>
      <trkpt lat="48.91097" lon="1.10435">
        <ele>194</ele>
        <time>2014-04-13T08:20:13.000Z</time>
      </trkpt>
      <trkpt lat="48.91092" lon="1.10428">
        <ele>194</ele>
        <time>2014-04-13T08:20:15.000Z</time>
      </trkpt>
      <trkpt lat="48.91086" lon="1.1042">
        <ele>195</ele>
        <time>2014-04-13T08:20:17.000Z</time>
      </trkpt>
      <trkpt lat="48.91081" lon="1.10413">
        <ele>195</ele>
        <time>2014-04-13T08:20:19.000Z</time>
      </trkpt>
      <trkpt lat="48.91076" lon="1.10405">
        <ele>195</ele>
        <time>2014-04-13T08:20:21.000Z</time>
      </trkpt>
      <trkpt lat="48.9107" lon="1.10398">
        <ele>195</ele>
        <time>2014-04-13T08:20:23.000Z</time>
      </trkpt>
      <trkpt lat="48.91065" lon="1.10391">
        <ele>195</ele>
        <time>2014-04-13T08:20:25.000Z</time>
      </trkpt>
      <trkpt lat="48.9106" lon="1.10384">
        <ele>195</ele>
        <time>2014-04-13T08:20:27.000Z</time>
      </trkpt>
      <trkpt lat="48.91056" lon="1.10376">
        <ele>195</ele>
        <time>2014-04-13T08:20:29.000Z</time>
      </trkpt>
      <trkpt lat="48.91051" lon="1.10365">
        <ele>195</ele>
        <time>2014-04-13T08:20:31.000Z</time>
      </trkpt>
      <trkpt lat="48.91048" lon="1.10355">
        <ele>195</ele>
        <time>2014-04-13T08:20:33.000Z</time>
      </trkpt>
      <trkpt lat="48.91044" lon="1.10344">
        <ele>195</ele>
        <time>2014-04-13T08:20:35.000Z</time>
      </trkpt>
      <trkpt lat="48.9104" lon="1.10333">
        <ele>195</ele>
        <time>2014-04-13T08:20:37.000Z</time>
      </trkpt>
      <trkpt lat="48.91037" lon="1.10322">
        <ele>195</ele>
        <time>2014-04-13T08:20:39.000Z</time>
      </trkpt>
      <trkpt lat="48.91034" lon="1.1031">
        <ele>196</ele>
        <time>2014-04-13T08:20:41.000Z</time>
      </trkpt>
      <trkpt lat="48.91032" lon="1.10298">
        <ele>195</ele>
        <time>2014-04-13T08:20:43.000Z</time>
      </trkpt>
      <trkpt lat="48.9103" lon="1.10286">
        <ele>195</ele>
        <time>2014-04-13T08:20:45.000Z</time>
      </trkpt>
      <trkpt lat="48.91028" lon="1.10275">
        <ele>195</ele>
        <time>2014-04-13T08:20:47.000Z</time>
      </trkpt>
      <trkpt lat="48.91026" lon="1.10265">
        <ele>195</ele>
        <time>2014-04-13T08:20:49.000Z</time>
      </trkpt>
      <trkpt lat="48.91025" lon="1.10254">
        <ele>195</ele>
        <time>2014-04-13T08:20:51.000Z</time>
      </trkpt>
      <trkpt lat="48.91024" lon="1.10243">
        <ele>195</ele>
        <time>2014-04-13T08:20:53.000Z</time>
      </trkpt>
      <trkpt lat="48.91023" lon="1.10231">
        <ele>196</ele>
        <time>2014-04-13T08:20:55.000Z</time>
      </trkpt>
      <trkpt lat="48.91022" lon="1.1022">
        <ele>196</ele>
        <time>2014-04-13T08:20:57.000Z</time>
      </trkpt>
      <trkpt lat="48.91022" lon="1.10209">
        <ele>196</ele>
        <time>2014-04-13T08:20:59.000Z</time>
      </trkpt>
      <trkpt lat="48.91021" lon="1.10197">
        <ele>196</ele>
        <time>2014-04-13T08:21:01.000Z</time>
      </trkpt>
      <trkpt lat="48.91021" lon="1.10186">
        <ele>197</ele>
        <time>2014-04-13T08:21:03.000Z</time>
      </trkpt>
      <trkpt lat="48.91021" lon="1.10175">
        <ele>197</ele>
        <time>2014-04-13T08:21:05.000Z</time>
      </trkpt>
      <trkpt lat="48.9102" lon="1.10165">
        <ele>197</ele>
        <time>2014-04-13T08:21:07.000Z</time>
      </trkpt>
      <trkpt lat="48.9102" lon="1.10156">
        <ele>197</ele>
        <time>2014-04-13T08:21:09.000Z</time>
      </trkpt>
      <trkpt lat="48.91019" lon="1.10147">
        <ele>197</ele>
        <time>2014-04-13T08:21:11.000Z</time>
      </trkpt>
      <trkpt lat="48.91019" lon="1.10147">
        <ele>197</ele>
        <time>2014-04-13T08:21:13.000Z</time>
      </trkpt>
      <trkpt lat="48.91017" lon="1.10135">
        <ele>197</ele>
        <time>2014-04-13T08:21:15.000Z</time>
      </trkpt>
      <trkpt lat="48.91017" lon="1.10135">
        <ele>197</ele>
        <time>2014-04-13T08:21:17.000Z</time>
      </trkpt>
      <trkpt lat="48.91017" lon="1.10135">
        <ele>197</ele>
        <time>2014-04-13T08:21:19.000Z</time>
      </trkpt>
      <trkpt lat="48.91017" lon="1.10135">
        <ele>197</ele>
        <time>2014-04-13T08:21:21.000Z</time>
      </trkpt>
      <trkpt lat="48.91017" lon="1.10135">
        <ele>197</ele>
        <time>2014-04-13T08:21:23.000Z</time>
      </trkpt>
      <trkpt lat="48.91017" lon="1.10135">
        <ele>197</ele>
        <time>2014-04-13T08:21:25.000Z</time>
      </trkpt>
      <trkpt lat="48.91015" lon="1.10108">
        <ele>198</ele>
        <time>2014-04-13T08:21:41.000Z</time>
      </trkpt>
      <trkpt lat="48.91014" lon="1.101">
        <ele>198</ele>
        <time>2014-04-13T08:21:45.000Z</time>
      </trkpt>
      <trkpt lat="48.91014" lon="1.10092">
        <ele>198</ele>
        <time>2014-04-13T08:21:47.000Z</time>
      </trkpt>
      <trkpt lat="48.91013" lon="1.10083">
        <ele>198</ele>
        <time>2014-04-13T08:21:49.000Z</time>
      </trkpt>
      <trkpt lat="48.91011" lon="1.10074">
        <ele>198</ele>
        <time>2014-04-13T08:21:51.000Z</time>
      </trkpt>
      <trkpt lat="48.9101" lon="1.10064">
        <ele>198</ele>
        <time>2014-04-13T08:21:53.000Z</time>
      </trkpt>
      <trkpt lat="48.91007" lon="1.10044">
        <ele>198</ele>
        <time>2014-04-13T08:21:55.000Z</time>
      </trkpt>
      <trkpt lat="48.91007" lon="1.10033">
        <ele>198</ele>
        <time>2014-04-13T08:21:57.000Z</time>
      </trkpt>
      <trkpt lat="48.91006" lon="1.1002">
        <ele>198</ele>
        <time>2014-04-13T08:21:59.000Z</time>
      </trkpt>
      <trkpt lat="48.91006" lon="1.10007">
        <ele>199</ele>
        <time>2014-04-13T08:22:01.000Z</time>
      </trkpt>
      <trkpt lat="48.91005" lon="1.09994">
        <ele>200</ele>
        <time>2014-04-13T08:22:03.000Z</time>
      </trkpt>
      <trkpt lat="48.91005" lon="1.09981">
        <ele>200</ele>
        <time>2014-04-13T08:22:05.000Z</time>
      </trkpt>
      <trkpt lat="48.91005" lon="1.09968">
        <ele>200</ele>
        <time>2014-04-13T08:22:07.000Z</time>
      </trkpt>
      <trkpt lat="48.91005" lon="1.09956">
        <ele>200</ele>
        <time>2014-04-13T08:22:09.000Z</time>
      </trkpt>
      <trkpt lat="48.91005" lon="1.09944">
        <ele>200</ele>
        <time>2014-04-13T08:22:11.000Z</time>
      </trkpt>
      <trkpt lat="48.91005" lon="1.0993">
        <ele>201</ele>
        <time>2014-04-13T08:22:13.000Z</time>
      </trkpt>
      <trkpt lat="48.91005" lon="1.09916">
        <ele>201</ele>
        <time>2014-04-13T08:22:15.000Z</time>
      </trkpt>
      <trkpt lat="48.91005" lon="1.09902">
        <ele>200</ele>
        <time>2014-04-13T08:22:17.000Z</time>
      </trkpt>
      <trkpt lat="48.91006" lon="1.09888">
        <ele>200</ele>
        <time>2014-04-13T08:22:19.000Z</time>
      </trkpt>
      <trkpt lat="48.91006" lon="1.09875">
        <ele>200</ele>
        <time>2014-04-13T08:22:21.000Z</time>
      </trkpt>
      <trkpt lat="48.91007" lon="1.09864">
        <ele>200</ele>
        <time>2014-04-13T08:22:23.000Z</time>
      </trkpt>
      <trkpt lat="48.91007" lon="1.09851">
        <ele>200</ele>
        <time>2014-04-13T08:22:25.000Z</time>
      </trkpt>
      <trkpt lat="48.91007" lon="1.09839">
        <ele>200</ele>
        <time>2014-04-13T08:22:27.000Z</time>
      </trkpt>
      <trkpt lat="48.91006" lon="1.09827">
        <ele>200</ele>
        <time>2014-04-13T08:22:29.000Z</time>
      </trkpt>
      <trkpt lat="48.91006" lon="1.09816">
        <ele>200</ele>
        <time>2014-04-13T08:22:31.000Z</time>
      </trkpt>
      <trkpt lat="48.91006" lon="1.09805">
        <ele>200</ele>
        <time>2014-04-13T08:22:33.000Z</time>
      </trkpt>
      <trkpt lat="48.91005" lon="1.09794">
        <ele>200</ele>
        <time>2014-04-13T08:22:35.000Z</time>
      </trkpt>
      <trkpt lat="48.91005" lon="1.09783">
        <ele>200</ele>
        <time>2014-04-13T08:22:37.000Z</time>
      </trkpt>
      <trkpt lat="48.91004" lon="1.09772">
        <ele>200</ele>
        <time>2014-04-13T08:22:39.000Z</time>
      </trkpt>
      <trkpt lat="48.91003" lon="1.09762">
        <ele>200</ele>
        <time>2014-04-13T08:22:41.000Z</time>
      </trkpt>
      <trkpt lat="48.91003" lon="1.09751">
        <ele>200</ele>
        <time>2014-04-13T08:22:43.000Z</time>
      </trkpt>
      <trkpt lat="48.91002" lon="1.0974">
        <ele>200</ele>
        <time>2014-04-13T08:22:45.000Z</time>
      </trkpt>
      <trkpt lat="48.91001" lon="1.09729">
        <ele>200</ele>
        <time>2014-04-13T08:22:47.000Z</time>
      </trkpt>
      <trkpt lat="48.91001" lon="1.09719">
        <ele>200</ele>
        <time>2014-04-13T08:22:49.000Z</time>
      </trkpt>
      <trkpt lat="48.91001" lon="1.09709">
        <ele>200</ele>
        <time>2014-04-13T08:22:51.000Z</time>
      </trkpt>
      <trkpt lat="48.91" lon="1.09699">
        <ele>200</ele>
        <time>2014-04-13T08:22:53.000Z</time>
      </trkpt>
      <trkpt lat="48.91" lon="1.09689">
        <ele>200</ele>
        <time>2014-04-13T08:22:55.000Z</time>
      </trkpt>
      <trkpt lat="48.90999" lon="1.09679">
        <ele>200</ele>
        <time>2014-04-13T08:22:57.000Z</time>
      </trkpt>
      <trkpt lat="48.90999" lon="1.09669">
        <ele>200</ele>
        <time>2014-04-13T08:22:59.000Z</time>
      </trkpt>
      <trkpt lat="48.90998" lon="1.09659">
        <ele>200</ele>
        <time>2014-04-13T08:23:01.000Z</time>
      </trkpt>
      <trkpt lat="48.90997" lon="1.09648">
        <ele>200</ele>
        <time>2014-04-13T08:23:03.000Z</time>
      </trkpt>
      <trkpt lat="48.90997" lon="1.09638">
        <ele>200</ele>
        <time>2014-04-13T08:23:05.000Z</time>
      </trkpt>
      <trkpt lat="48.90995" lon="1.09627">
        <ele>200</ele>
        <time>2014-04-13T08:23:07.000Z</time>
      </trkpt>
      <trkpt lat="48.90994" lon="1.09613">
        <ele>200</ele>
        <time>2014-04-13T08:23:09.000Z</time>
      </trkpt>
      <trkpt lat="48.90993" lon="1.09599">
        <ele>200</ele>
        <time>2014-04-13T08:23:11.000Z</time>
      </trkpt>
      <trkpt lat="48.90993" lon="1.09586">
        <ele>200</ele>
        <time>2014-04-13T08:23:13.000Z</time>
      </trkpt>
      <trkpt lat="48.90993" lon="1.09571">
        <ele>201</ele>
        <time>2014-04-13T08:23:15.000Z</time>
      </trkpt>
      <trkpt lat="48.90992" lon="1.09556">
        <ele>201</ele>
        <time>2014-04-13T08:23:17.000Z</time>
      </trkpt>
      <trkpt lat="48.90992" lon="1.0954">
        <ele>202</ele>
        <time>2014-04-13T08:23:19.000Z</time>
      </trkpt>
      <trkpt lat="48.90993" lon="1.09525">
        <ele>202</ele>
        <time>2014-04-13T08:23:21.000Z</time>
      </trkpt>
      <trkpt lat="48.90994" lon="1.09509">
        <ele>203</ele>
        <time>2014-04-13T08:23:23.000Z</time>
      </trkpt>
      <trkpt lat="48.90994" lon="1.09493">
        <ele>205</ele>
        <time>2014-04-13T08:23:25.000Z</time>
      </trkpt>
      <trkpt lat="48.90993" lon="1.09475">
        <ele>206</ele>
        <time>2014-04-13T08:23:27.000Z</time>
      </trkpt>
      <trkpt lat="48.90992" lon="1.0946">
        <ele>208</ele>
        <time>2014-04-13T08:23:29.000Z</time>
      </trkpt>
      <trkpt lat="48.90992" lon="1.09441">
        <ele>209</ele>
        <time>2014-04-13T08:23:31.000Z</time>
      </trkpt>
      <trkpt lat="48.90993" lon="1.0942">
        <ele>209</ele>
        <time>2014-04-13T08:23:33.000Z</time>
      </trkpt>
      <trkpt lat="48.90993" lon="1.09403">
        <ele>208</ele>
        <time>2014-04-13T08:23:35.000Z</time>
      </trkpt>
      <trkpt lat="48.90993" lon="1.09388">
        <ele>208</ele>
        <time>2014-04-13T08:23:37.000Z</time>
      </trkpt>
      <trkpt lat="48.90993" lon="1.09372">
        <ele>208</ele>
        <time>2014-04-13T08:23:39.000Z</time>
      </trkpt>
      <trkpt lat="48.90992" lon="1.09354">
        <ele>208</ele>
        <time>2014-04-13T08:23:41.000Z</time>
      </trkpt>
      <trkpt lat="48.90991" lon="1.09335">
        <ele>208</ele>
        <time>2014-04-13T08:23:43.000Z</time>
      </trkpt>
      <trkpt lat="48.9099" lon="1.09317">
        <ele>208</ele>
        <time>2014-04-13T08:23:45.000Z</time>
      </trkpt>
      <trkpt lat="48.90988" lon="1.09304">
        <ele>208</ele>
        <time>2014-04-13T08:23:47.000Z</time>
      </trkpt>
      <trkpt lat="48.90986" lon="1.09292">
        <ele>208</ele>
        <time>2014-04-13T08:23:49.000Z</time>
      </trkpt>
      <trkpt lat="48.90984" lon="1.09276">
        <ele>209</ele>
        <time>2014-04-13T08:23:51.000Z</time>
      </trkpt>
      <trkpt lat="48.90984" lon="1.09259">
        <ele>209</ele>
        <time>2014-04-13T08:23:53.000Z</time>
      </trkpt>
      <trkpt lat="48.90983" lon="1.09244">
        <ele>211</ele>
        <time>2014-04-13T08:23:55.000Z</time>
      </trkpt>
      <trkpt lat="48.90982" lon="1.09222">
        <ele>210</ele>
        <time>2014-04-13T08:23:57.000Z</time>
      </trkpt>
      <trkpt lat="48.90981" lon="1.09205">
        <ele>209</ele>
        <time>2014-04-13T08:23:59.000Z</time>
      </trkpt>
      <trkpt lat="48.90979" lon="1.09189">
        <ele>207</ele>
        <time>2014-04-13T08:24:01.000Z</time>
      </trkpt>
      <trkpt lat="48.90977" lon="1.09174">
        <ele>207</ele>
        <time>2014-04-13T08:24:03.000Z</time>
      </trkpt>
      <trkpt lat="48.90977" lon="1.09157">
        <ele>207</ele>
        <time>2014-04-13T08:24:05.000Z</time>
      </trkpt>
      <trkpt lat="48.90977" lon="1.09142">
        <ele>207</ele>
        <time>2014-04-13T08:24:07.000Z</time>
      </trkpt>
      <trkpt lat="48.90978" lon="1.09127">
        <ele>207</ele>
        <time>2014-04-13T08:24:09.000Z</time>
      </trkpt>
      <trkpt lat="48.90979" lon="1.09109">
        <ele>208</ele>
        <time>2014-04-13T08:24:11.000Z</time>
      </trkpt>
      <trkpt lat="48.90979" lon="1.09094">
        <ele>206</ele>
        <time>2014-04-13T08:24:13.000Z</time>
      </trkpt>
      <trkpt lat="48.9098" lon="1.09077">
        <ele>205</ele>
        <time>2014-04-13T08:24:15.000Z</time>
      </trkpt>
      <trkpt lat="48.90981" lon="1.09063">
        <ele>205</ele>
        <time>2014-04-13T08:24:17.000Z</time>
      </trkpt>
      <trkpt lat="48.90981" lon="1.09054">
        <ele>205</ele>
        <time>2014-04-13T08:24:19.000Z</time>
      </trkpt>
      <trkpt lat="48.90981" lon="1.09054">
        <ele>205</ele>
        <time>2014-04-13T08:24:21.000Z</time>
      </trkpt>
      <trkpt lat="48.90982" lon="1.09038">
        <ele>204</ele>
        <time>2014-04-13T08:24:23.000Z</time>
      </trkpt>
      <trkpt lat="48.90985" lon="1.09028">
        <ele>204</ele>
        <time>2014-04-13T08:24:25.000Z</time>
      </trkpt>
      <trkpt lat="48.90989" lon="1.09018">
        <ele>205</ele>
        <time>2014-04-13T08:24:27.000Z</time>
      </trkpt>
      <trkpt lat="48.90993" lon="1.09004">
        <ele>205</ele>
        <time>2014-04-13T08:24:29.000Z</time>
      </trkpt>
      <trkpt lat="48.90998" lon="1.0899">
        <ele>205</ele>
        <time>2014-04-13T08:24:31.000Z</time>
      </trkpt>
      <trkpt lat="48.91003" lon="1.08976">
        <ele>205</ele>
        <time>2014-04-13T08:24:33.000Z</time>
      </trkpt>
      <trkpt lat="48.91005" lon="1.08963">
        <ele>204</ele>
        <time>2014-04-13T08:24:35.000Z</time>
      </trkpt>
      <trkpt lat="48.91008" lon="1.08944">
        <ele>202</ele>
        <time>2014-04-13T08:24:37.000Z</time>
      </trkpt>
      <trkpt lat="48.91011" lon="1.08925">
        <ele>201</ele>
        <time>2014-04-13T08:24:39.000Z</time>
      </trkpt>
      <trkpt lat="48.91014" lon="1.08908">
        <ele>200</ele>
        <time>2014-04-13T08:24:42.000Z</time>
      </trkpt>
      <trkpt lat="48.91018" lon="1.08892">
        <ele>199</ele>
        <time>2014-04-13T08:24:43.000Z</time>
      </trkpt>
      <trkpt lat="48.91022" lon="1.08877">
        <ele>199</ele>
        <time>2014-04-13T08:24:45.000Z</time>
      </trkpt>
      <trkpt lat="48.91024" lon="1.08861">
        <ele>199</ele>
        <time>2014-04-13T08:24:47.000Z</time>
      </trkpt>
      <trkpt lat="48.91026" lon="1.08844">
        <ele>199</ele>
        <time>2014-04-13T08:24:49.000Z</time>
      </trkpt>
      <trkpt lat="48.91026" lon="1.08823">
        <ele>199</ele>
        <time>2014-04-13T08:24:51.000Z</time>
      </trkpt>
      <trkpt lat="48.91027" lon="1.08804">
        <ele>198</ele>
        <time>2014-04-13T08:24:53.000Z</time>
      </trkpt>
      <trkpt lat="48.91031" lon="1.08787">
        <ele>198</ele>
        <time>2014-04-13T08:24:55.000Z</time>
      </trkpt>
      <trkpt lat="48.91035" lon="1.08768">
        <ele>197</ele>
        <time>2014-04-13T08:24:57.000Z</time>
      </trkpt>
      <trkpt lat="48.91039" lon="1.0875">
        <ele>197</ele>
        <time>2014-04-13T08:24:59.000Z</time>
      </trkpt>
      <trkpt lat="48.91043" lon="1.0873">
        <ele>197</ele>
        <time>2014-04-13T08:25:01.000Z</time>
      </trkpt>
      <trkpt lat="48.91048" lon="1.08712">
        <ele>196</ele>
        <time>2014-04-13T08:25:03.000Z</time>
      </trkpt>
      <trkpt lat="48.91053" lon="1.08695">
        <ele>196</ele>
        <time>2014-04-13T08:25:05.000Z</time>
      </trkpt>
      <trkpt lat="48.9106" lon="1.08675">
        <ele>196</ele>
        <time>2014-04-13T08:25:07.000Z</time>
      </trkpt>
      <trkpt lat="48.91067" lon="1.08656">
        <ele>195</ele>
        <time>2014-04-13T08:25:09.000Z</time>
      </trkpt>
      <trkpt lat="48.91074" lon="1.08636">
        <ele>195</ele>
        <time>2014-04-13T08:25:11.000Z</time>
      </trkpt>
      <trkpt lat="48.91079" lon="1.08613">
        <ele>194</ele>
        <time>2014-04-13T08:25:13.000Z</time>
      </trkpt>
      <trkpt lat="48.91085" lon="1.08589">
        <ele>194</ele>
        <time>2014-04-13T08:25:15.000Z</time>
      </trkpt>
      <trkpt lat="48.91091" lon="1.08566">
        <ele>194</ele>
        <time>2014-04-13T08:25:17.000Z</time>
      </trkpt>
      <trkpt lat="48.91104" lon="1.08521">
        <ele>194</ele>
        <time>2014-04-13T08:25:20.000Z</time>
      </trkpt>
      <trkpt lat="48.91114" lon="1.08488">
        <ele>192</ele>
        <time>2014-04-13T08:25:22.000Z</time>
      </trkpt>
      <trkpt lat="48.91124" lon="1.0845">
        <ele>189</ele>
        <time>2014-04-13T08:25:25.000Z</time>
      </trkpt>
      <trkpt lat="48.91131" lon="1.08426">
        <ele>187</ele>
        <time>2014-04-13T08:25:27.000Z</time>
      </trkpt>
      <trkpt lat="48.91137" lon="1.08404">
        <ele>185</ele>
        <time>2014-04-13T08:25:29.000Z</time>
      </trkpt>
      <trkpt lat="48.91143" lon="1.08385">
        <ele>183</ele>
        <time>2014-04-13T08:25:31.000Z</time>
      </trkpt>
      <trkpt lat="48.9115" lon="1.08367">
        <ele>183</ele>
        <time>2014-04-13T08:25:33.000Z</time>
      </trkpt>
      <trkpt lat="48.91159" lon="1.08349">
        <ele>183</ele>
        <time>2014-04-13T08:25:35.000Z</time>
      </trkpt>
      <trkpt lat="48.91167" lon="1.08334">
        <ele>184</ele>
        <time>2014-04-13T08:25:37.000Z</time>
      </trkpt>
      <trkpt lat="48.91177" lon="1.0832">
        <ele>184</ele>
        <time>2014-04-13T08:25:39.000Z</time>
      </trkpt>
      <trkpt lat="48.91187" lon="1.08307">
        <ele>185</ele>
        <time>2014-04-13T08:25:41.000Z</time>
      </trkpt>
      <trkpt lat="48.91195" lon="1.08298">
        <ele>187</ele>
        <time>2014-04-13T08:25:43.000Z</time>
      </trkpt>
      <trkpt lat="48.91203" lon="1.08289">
        <ele>191</ele>
        <time>2014-04-13T08:25:45.000Z</time>
      </trkpt>
      <trkpt lat="48.91211" lon="1.08278">
        <ele>192</ele>
        <time>2014-04-13T08:25:47.000Z</time>
      </trkpt>
      <trkpt lat="48.9122" lon="1.08268">
        <ele>193</ele>
        <time>2014-04-13T08:25:49.000Z</time>
      </trkpt>
      <trkpt lat="48.91227" lon="1.08258">
        <ele>193</ele>
        <time>2014-04-13T08:25:51.000Z</time>
      </trkpt>
      <trkpt lat="48.91235" lon="1.08246">
        <ele>193</ele>
        <time>2014-04-13T08:25:53.000Z</time>
      </trkpt>
      <trkpt lat="48.91244" lon="1.08234">
        <ele>193</ele>
        <time>2014-04-13T08:25:55.000Z</time>
      </trkpt>
      <trkpt lat="48.91251" lon="1.08223">
        <ele>193</ele>
        <time>2014-04-13T08:25:57.000Z</time>
      </trkpt>
      <trkpt lat="48.91259" lon="1.08213">
        <ele>192</ele>
        <time>2014-04-13T08:25:59.000Z</time>
      </trkpt>
      <trkpt lat="48.91265" lon="1.08201">
        <ele>191</ele>
        <time>2014-04-13T08:26:01.000Z</time>
      </trkpt>
      <trkpt lat="48.91271" lon="1.08191">
        <ele>191</ele>
        <time>2014-04-13T08:26:03.000Z</time>
      </trkpt>
      <trkpt lat="48.91277" lon="1.0818">
        <ele>192</ele>
        <time>2014-04-13T08:26:05.000Z</time>
      </trkpt>
      <trkpt lat="48.91282" lon="1.0817">
        <ele>192</ele>
        <time>2014-04-13T08:26:07.000Z</time>
      </trkpt>
      <trkpt lat="48.91286" lon="1.08161">
        <ele>192</ele>
        <time>2014-04-13T08:26:09.000Z</time>
      </trkpt>
      <trkpt lat="48.91291" lon="1.08153">
        <ele>192</ele>
        <time>2014-04-13T08:26:11.000Z</time>
      </trkpt>
      <trkpt lat="48.91294" lon="1.08145">
        <ele>192</ele>
        <time>2014-04-13T08:26:13.000Z</time>
      </trkpt>
      <trkpt lat="48.91299" lon="1.08136">
        <ele>192</ele>
        <time>2014-04-13T08:26:15.000Z</time>
      </trkpt>
      <trkpt lat="48.91304" lon="1.08125">
        <ele>191</ele>
        <time>2014-04-13T08:26:17.000Z</time>
      </trkpt>
      <trkpt lat="48.91309" lon="1.08115">
        <ele>191</ele>
        <time>2014-04-13T08:26:19.000Z</time>
      </trkpt>
      <trkpt lat="48.91312" lon="1.08105">
        <ele>190</ele>
        <time>2014-04-13T08:26:21.000Z</time>
      </trkpt>
      <trkpt lat="48.91317" lon="1.08097">
        <ele>189</ele>
        <time>2014-04-13T08:26:23.000Z</time>
      </trkpt>
      <trkpt lat="48.91321" lon="1.08087">
        <ele>189</ele>
        <time>2014-04-13T08:26:25.000Z</time>
      </trkpt>
      <trkpt lat="48.91326" lon="1.08076">
        <ele>189</ele>
        <time>2014-04-13T08:26:27.000Z</time>
      </trkpt>
      <trkpt lat="48.91331" lon="1.08065">
        <ele>189</ele>
        <time>2014-04-13T08:26:29.000Z</time>
      </trkpt>
      <trkpt lat="48.91336" lon="1.08054">
        <ele>189</ele>
        <time>2014-04-13T08:26:31.000Z</time>
      </trkpt>
      <trkpt lat="48.91341" lon="1.08045">
        <ele>189</ele>
        <time>2014-04-13T08:26:33.000Z</time>
      </trkpt>
      <trkpt lat="48.91346" lon="1.08035">
        <ele>188</ele>
        <time>2014-04-13T08:26:35.000Z</time>
      </trkpt>
      <trkpt lat="48.91351" lon="1.08026">
        <ele>188</ele>
        <time>2014-04-13T08:26:37.000Z</time>
      </trkpt>
      <trkpt lat="48.91357" lon="1.08016">
        <ele>187</ele>
        <time>2014-04-13T08:26:39.000Z</time>
      </trkpt>
      <trkpt lat="48.91362" lon="1.08007">
        <ele>186</ele>
        <time>2014-04-13T08:26:41.000Z</time>
      </trkpt>
      <trkpt lat="48.91368" lon="1.07997">
        <ele>185</ele>
        <time>2014-04-13T08:26:43.000Z</time>
      </trkpt>
      <trkpt lat="48.91374" lon="1.07985">
        <ele>184</ele>
        <time>2014-04-13T08:26:45.000Z</time>
      </trkpt>
      <trkpt lat="48.91379" lon="1.07976">
        <ele>184</ele>
        <time>2014-04-13T08:26:47.000Z</time>
      </trkpt>
      <trkpt lat="48.91384" lon="1.07966">
        <ele>184</ele>
        <time>2014-04-13T08:26:49.000Z</time>
      </trkpt>
      <trkpt lat="48.9139" lon="1.07956">
        <ele>185</ele>
        <time>2014-04-13T08:26:51.000Z</time>
      </trkpt>
      <trkpt lat="48.91396" lon="1.07945">
        <ele>186</ele>
        <time>2014-04-13T08:26:53.000Z</time>
      </trkpt>
      <trkpt lat="48.91402" lon="1.07935">
        <ele>187</ele>
        <time>2014-04-13T08:26:55.000Z</time>
      </trkpt>
      <trkpt lat="48.91409" lon="1.07921">
        <ele>188</ele>
        <time>2014-04-13T08:26:57.000Z</time>
      </trkpt>
      <trkpt lat="48.91416" lon="1.0791">
        <ele>187</ele>
        <time>2014-04-13T08:26:59.000Z</time>
      </trkpt>
      <trkpt lat="48.91423" lon="1.07897">
        <ele>187</ele>
        <time>2014-04-13T08:27:01.000Z</time>
      </trkpt>
      <trkpt lat="48.91429" lon="1.07882">
        <ele>187</ele>
        <time>2014-04-13T08:27:03.000Z</time>
      </trkpt>
      <trkpt lat="48.91435" lon="1.07866">
        <ele>187</ele>
        <time>2014-04-13T08:27:05.000Z</time>
      </trkpt>
      <trkpt lat="48.9144" lon="1.0785">
        <ele>187</ele>
        <time>2014-04-13T08:27:07.000Z</time>
      </trkpt>
      <trkpt lat="48.91444" lon="1.07834">
        <ele>186</ele>
        <time>2014-04-13T08:27:09.000Z</time>
      </trkpt>
      <trkpt lat="48.91447" lon="1.07815">
        <ele>186</ele>
        <time>2014-04-13T08:27:11.000Z</time>
      </trkpt>
      <trkpt lat="48.91451" lon="1.07796">
        <ele>185</ele>
        <time>2014-04-13T08:27:13.000Z</time>
      </trkpt>
      <trkpt lat="48.91453" lon="1.07779">
        <ele>184</ele>
        <time>2014-04-13T08:27:15.000Z</time>
      </trkpt>
      <trkpt lat="48.91456" lon="1.07762">
        <ele>183</ele>
        <time>2014-04-13T08:27:17.000Z</time>
      </trkpt>
      <trkpt lat="48.91459" lon="1.07745">
        <ele>183</ele>
        <time>2014-04-13T08:27:19.000Z</time>
      </trkpt>
      <trkpt lat="48.91462" lon="1.0773">
        <ele>183</ele>
        <time>2014-04-13T08:27:21.000Z</time>
      </trkpt>
      <trkpt lat="48.91466" lon="1.07714">
        <ele>184</ele>
        <time>2014-04-13T08:27:23.000Z</time>
      </trkpt>
      <trkpt lat="48.91473" lon="1.07702">
        <ele>184</ele>
        <time>2014-04-13T08:27:25.000Z</time>
      </trkpt>
      <trkpt lat="48.91482" lon="1.07696">
        <ele>184</ele>
        <time>2014-04-13T08:27:27.000Z</time>
      </trkpt>
      <trkpt lat="48.91491" lon="1.07695">
        <ele>185</ele>
        <time>2014-04-13T08:27:29.000Z</time>
      </trkpt>
      <trkpt lat="48.91501" lon="1.07694">
        <ele>186</ele>
        <time>2014-04-13T08:27:31.000Z</time>
      </trkpt>
      <trkpt lat="48.91511" lon="1.07694">
        <ele>186</ele>
        <time>2014-04-13T08:27:33.000Z</time>
      </trkpt>
      <trkpt lat="48.91521" lon="1.07695">
        <ele>188</ele>
        <time>2014-04-13T08:27:35.000Z</time>
      </trkpt>
      <trkpt lat="48.9153" lon="1.07696">
        <ele>190</ele>
        <time>2014-04-13T08:27:37.000Z</time>
      </trkpt>
      <trkpt lat="48.91539" lon="1.07696">
        <ele>191</ele>
        <time>2014-04-13T08:27:39.000Z</time>
      </trkpt>
      <trkpt lat="48.91546" lon="1.07697">
        <ele>191</ele>
        <time>2014-04-13T08:27:41.000Z</time>
      </trkpt>
      <trkpt lat="48.91555" lon="1.07698">
        <ele>192</ele>
        <time>2014-04-13T08:27:43.000Z</time>
      </trkpt>
      <trkpt lat="48.91565" lon="1.07699">
        <ele>193</ele>
        <time>2014-04-13T08:27:45.000Z</time>
      </trkpt>
      <trkpt lat="48.91575" lon="1.07699">
        <ele>193</ele>
        <time>2014-04-13T08:27:47.000Z</time>
      </trkpt>
      <trkpt lat="48.91583" lon="1.07699">
        <ele>193</ele>
        <time>2014-04-13T08:27:49.000Z</time>
      </trkpt>
      <trkpt lat="48.91591" lon="1.07701">
        <ele>193</ele>
        <time>2014-04-13T08:27:51.000Z</time>
      </trkpt>
      <trkpt lat="48.91599" lon="1.077">
        <ele>193</ele>
        <time>2014-04-13T08:27:53.000Z</time>
      </trkpt>
      <trkpt lat="48.91605" lon="1.07698">
        <ele>193</ele>
        <time>2014-04-13T08:27:55.000Z</time>
      </trkpt>
      <trkpt lat="48.91605" lon="1.07698">
        <ele>193</ele>
        <time>2014-04-13T08:27:57.000Z</time>
      </trkpt>
      <trkpt lat="48.91616" lon="1.07694">
        <ele>193</ele>
        <time>2014-04-13T08:27:59.000Z</time>
      </trkpt>
      <trkpt lat="48.91623" lon="1.07692">
        <ele>193</ele>
        <time>2014-04-13T08:28:01.000Z</time>
      </trkpt>
      <trkpt lat="48.91631" lon="1.07691">
        <ele>193</ele>
        <time>2014-04-13T08:28:03.000Z</time>
      </trkpt>
      <trkpt lat="48.91637" lon="1.07689">
        <ele>193</ele>
        <time>2014-04-13T08:28:05.000Z</time>
      </trkpt>
      <trkpt lat="48.91644" lon="1.07688">
        <ele>193</ele>
        <time>2014-04-13T08:28:07.000Z</time>
      </trkpt>
      <trkpt lat="48.91644" lon="1.07688">
        <ele>193</ele>
        <time>2014-04-13T08:28:09.000Z</time>
      </trkpt>
      <trkpt lat="48.91654" lon="1.07688">
        <ele>193</ele>
        <time>2014-04-13T08:28:11.000Z</time>
      </trkpt>
      <trkpt lat="48.91654" lon="1.07688">
        <ele>193</ele>
        <time>2014-04-13T08:28:13.000Z</time>
      </trkpt>
      <trkpt lat="48.91663" lon="1.07688">
        <ele>194</ele>
        <time>2014-04-13T08:28:15.000Z</time>
      </trkpt>
      <trkpt lat="48.91663" lon="1.07688">
        <ele>194</ele>
        <time>2014-04-13T08:28:17.000Z</time>
      </trkpt>
      <trkpt lat="48.91672" lon="1.07686">
        <ele>194</ele>
        <time>2014-04-13T08:28:19.000Z</time>
      </trkpt>
      <trkpt lat="48.91678" lon="1.07685">
        <ele>194</ele>
        <time>2014-04-13T08:28:21.000Z</time>
      </trkpt>
      <trkpt lat="48.91678" lon="1.07685">
        <ele>194</ele>
        <time>2014-04-13T08:28:23.000Z</time>
      </trkpt>
      <trkpt lat="48.91687" lon="1.07684">
        <ele>194</ele>
        <time>2014-04-13T08:28:25.000Z</time>
      </trkpt>
      <trkpt lat="48.91698" lon="1.07683">
        <ele>194</ele>
        <time>2014-04-13T08:28:29.000Z</time>
      </trkpt>
      <trkpt lat="48.91705" lon="1.07683">
        <ele>195</ele>
        <time>2014-04-13T08:28:31.000Z</time>
      </trkpt>
      <trkpt lat="48.91711" lon="1.07683">
        <ele>195</ele>
        <time>2014-04-13T08:28:33.000Z</time>
      </trkpt>
      <trkpt lat="48.91718" lon="1.07683">
        <ele>195</ele>
        <time>2014-04-13T08:28:35.000Z</time>
      </trkpt>
      <trkpt lat="48.91724" lon="1.07682">
        <ele>195</ele>
        <time>2014-04-13T08:28:37.000Z</time>
      </trkpt>
      <trkpt lat="48.91737" lon="1.0768">
        <ele>195</ele>
        <time>2014-04-13T08:28:41.000Z</time>
      </trkpt>
      <trkpt lat="48.91745" lon="1.07678">
        <ele>195</ele>
        <time>2014-04-13T08:28:43.000Z</time>
      </trkpt>
      <trkpt lat="48.91754" lon="1.07677">
        <ele>195</ele>
        <time>2014-04-13T08:28:45.000Z</time>
      </trkpt>
      <trkpt lat="48.9176" lon="1.07675">
        <ele>195</ele>
        <time>2014-04-13T08:28:47.000Z</time>
      </trkpt>
      <trkpt lat="48.91768" lon="1.07673">
        <ele>195</ele>
        <time>2014-04-13T08:28:49.000Z</time>
      </trkpt>
      <trkpt lat="48.91776" lon="1.07672">
        <ele>195</ele>
        <time>2014-04-13T08:28:51.000Z</time>
      </trkpt>
      <trkpt lat="48.91783" lon="1.0767">
        <ele>195</ele>
        <time>2014-04-13T08:28:53.000Z</time>
      </trkpt>
      <trkpt lat="48.9179" lon="1.07669">
        <ele>195</ele>
        <time>2014-04-13T08:28:55.000Z</time>
      </trkpt>
      <trkpt lat="48.91796" lon="1.07667">
        <ele>196</ele>
        <time>2014-04-13T08:28:57.000Z</time>
      </trkpt>
      <trkpt lat="48.91802" lon="1.07666">
        <ele>196</ele>
        <time>2014-04-13T08:28:59.000Z</time>
      </trkpt>
      <trkpt lat="48.91809" lon="1.07665">
        <ele>196</ele>
        <time>2014-04-13T08:29:01.000Z</time>
      </trkpt>
      <trkpt lat="48.91809" lon="1.07665">
        <ele>196</ele>
        <time>2014-04-13T08:29:03.000Z</time>
      </trkpt>
      <trkpt lat="48.9182" lon="1.07665">
        <ele>196</ele>
        <time>2014-04-13T08:29:05.000Z</time>
      </trkpt>
      <trkpt lat="48.91829" lon="1.07668">
        <ele>196</ele>
        <time>2014-04-13T08:29:09.000Z</time>
      </trkpt>
      <trkpt lat="48.91829" lon="1.07668">
        <ele>196</ele>
        <time>2014-04-13T08:29:11.000Z</time>
      </trkpt>
      <trkpt lat="48.91839" lon="1.07671">
        <ele>196</ele>
        <time>2014-04-13T08:29:13.000Z</time>
      </trkpt>
      <trkpt lat="48.91839" lon="1.07671">
        <ele>196</ele>
        <time>2014-04-13T08:29:15.000Z</time>
      </trkpt>
      <trkpt lat="48.91846" lon="1.07678">
        <ele>196</ele>
        <time>2014-04-13T08:29:17.000Z</time>
      </trkpt>
      <trkpt lat="48.91846" lon="1.07678">
        <ele>196</ele>
        <time>2014-04-13T08:29:19.000Z</time>
      </trkpt>
      <trkpt lat="48.9185" lon="1.07686">
        <ele>197</ele>
        <time>2014-04-13T08:29:21.000Z</time>
      </trkpt>
      <trkpt lat="48.9185" lon="1.07686">
        <ele>197</ele>
        <time>2014-04-13T08:29:23.000Z</time>
      </trkpt>
      <trkpt lat="48.91856" lon="1.07697">
        <ele>197</ele>
        <time>2014-04-13T08:29:25.000Z</time>
      </trkpt>
      <trkpt lat="48.91859" lon="1.07707">
        <ele>197</ele>
        <time>2014-04-13T08:29:29.000Z</time>
      </trkpt>
      <trkpt lat="48.91859" lon="1.07707">
        <ele>197</ele>
        <time>2014-04-13T08:29:31.000Z</time>
      </trkpt>
      <trkpt lat="48.91864" lon="1.07722">
        <ele>197</ele>
        <time>2014-04-13T08:29:33.000Z</time>
      </trkpt>
      <trkpt lat="48.91867" lon="1.0773">
        <ele>197</ele>
        <time>2014-04-13T08:29:35.000Z</time>
      </trkpt>
      <trkpt lat="48.9187" lon="1.07738">
        <ele>198</ele>
        <time>2014-04-13T08:29:37.000Z</time>
      </trkpt>
      <trkpt lat="48.91876" lon="1.07752">
        <ele>198</ele>
        <time>2014-04-13T08:29:41.000Z</time>
      </trkpt>
      <trkpt lat="48.91879" lon="1.07761">
        <ele>198</ele>
        <time>2014-04-13T08:29:43.000Z</time>
      </trkpt>
      <trkpt lat="48.91879" lon="1.07761">
        <ele>198</ele>
        <time>2014-04-13T08:29:45.000Z</time>
      </trkpt>
      <trkpt lat="48.91883" lon="1.07776">
        <ele>198</ele>
        <time>2014-04-13T08:29:47.000Z</time>
      </trkpt>
      <trkpt lat="48.91883" lon="1.07776">
        <ele>198</ele>
        <time>2014-04-13T08:29:49.000Z</time>
      </trkpt>
      <trkpt lat="48.91885" lon="1.07791">
        <ele>198</ele>
        <time>2014-04-13T08:29:51.000Z</time>
      </trkpt>
      <trkpt lat="48.91888" lon="1.07804">
        <ele>198</ele>
        <time>2014-04-13T08:29:55.000Z</time>
      </trkpt>
      <trkpt lat="48.91891" lon="1.07819">
        <ele>198</ele>
        <time>2014-04-13T08:29:59.000Z</time>
      </trkpt>
      <trkpt lat="48.91894" lon="1.07828">
        <ele>198</ele>
        <time>2014-04-13T08:30:01.000Z</time>
      </trkpt>
      <trkpt lat="48.91897" lon="1.07837">
        <ele>198</ele>
        <time>2014-04-13T08:30:03.000Z</time>
      </trkpt>
      <trkpt lat="48.91899" lon="1.07846">
        <ele>198</ele>
        <time>2014-04-13T08:30:05.000Z</time>
      </trkpt>
      <trkpt lat="48.91903" lon="1.07863">
        <ele>198</ele>
        <time>2014-04-13T08:30:09.000Z</time>
      </trkpt>
      <trkpt lat="48.91905" lon="1.07872">
        <ele>198</ele>
        <time>2014-04-13T08:30:11.000Z</time>
      </trkpt>
      <trkpt lat="48.91908" lon="1.07883">
        <ele>198</ele>
        <time>2014-04-13T08:30:13.000Z</time>
      </trkpt>
      <trkpt lat="48.91909" lon="1.07893">
        <ele>198</ele>
        <time>2014-04-13T08:30:15.000Z</time>
      </trkpt>
      <trkpt lat="48.91909" lon="1.07893">
        <ele>198</ele>
        <time>2014-04-13T08:30:17.000Z</time>
      </trkpt>
      <trkpt lat="48.91911" lon="1.07909">
        <ele>198</ele>
        <time>2014-04-13T08:30:19.000Z</time>
      </trkpt>
      <trkpt lat="48.91912" lon="1.07918">
        <ele>198</ele>
        <time>2014-04-13T08:30:21.000Z</time>
      </trkpt>
      <trkpt lat="48.91913" lon="1.07929">
        <ele>198</ele>
        <time>2014-04-13T08:30:23.000Z</time>
      </trkpt>
      <trkpt lat="48.91914" lon="1.07941">
        <ele>198</ele>
        <time>2014-04-13T08:30:25.000Z</time>
      </trkpt>
      <trkpt lat="48.91916" lon="1.07954">
        <ele>198</ele>
        <time>2014-04-13T08:30:27.000Z</time>
      </trkpt>
      <trkpt lat="48.91917" lon="1.07969">
        <ele>198</ele>
        <time>2014-04-13T08:30:29.000Z</time>
      </trkpt>
      <trkpt lat="48.91918" lon="1.07983">
        <ele>197</ele>
        <time>2014-04-13T08:30:31.000Z</time>
      </trkpt>
      <trkpt lat="48.91919" lon="1.07997">
        <ele>197</ele>
        <time>2014-04-13T08:30:33.000Z</time>
      </trkpt>
      <trkpt lat="48.9192" lon="1.0801">
        <ele>198</ele>
        <time>2014-04-13T08:30:35.000Z</time>
      </trkpt>
      <trkpt lat="48.91922" lon="1.08024">
        <ele>198</ele>
        <time>2014-04-13T08:30:37.000Z</time>
      </trkpt>
      <trkpt lat="48.91925" lon="1.08038">
        <ele>198</ele>
        <time>2014-04-13T08:30:39.000Z</time>
      </trkpt>
      <trkpt lat="48.91929" lon="1.08049">
        <ele>198</ele>
        <time>2014-04-13T08:30:41.000Z</time>
      </trkpt>
      <trkpt lat="48.91934" lon="1.08059">
        <ele>198</ele>
        <time>2014-04-13T08:30:43.000Z</time>
      </trkpt>
      <trkpt lat="48.91938" lon="1.08071">
        <ele>198</ele>
        <time>2014-04-13T08:30:45.000Z</time>
      </trkpt>
      <trkpt lat="48.91942" lon="1.08082">
        <ele>198</ele>
        <time>2014-04-13T08:30:47.000Z</time>
      </trkpt>
      <trkpt lat="48.91946" lon="1.08095">
        <ele>198</ele>
        <time>2014-04-13T08:30:49.000Z</time>
      </trkpt>
      <trkpt lat="48.91949" lon="1.08107">
        <ele>198</ele>
        <time>2014-04-13T08:30:51.000Z</time>
      </trkpt>
      <trkpt lat="48.91951" lon="1.08115">
        <ele>198</ele>
        <time>2014-04-13T08:30:53.000Z</time>
      </trkpt>
      <trkpt lat="48.91954" lon="1.08127">
        <ele>198</ele>
        <time>2014-04-13T08:30:55.000Z</time>
      </trkpt>
      <trkpt lat="48.91957" lon="1.08137">
        <ele>198</ele>
        <time>2014-04-13T08:30:57.000Z</time>
      </trkpt>
      <trkpt lat="48.9196" lon="1.08147">
        <ele>197</ele>
        <time>2014-04-13T08:30:59.000Z</time>
      </trkpt>
      <trkpt lat="48.91964" lon="1.08157">
        <ele>197</ele>
        <time>2014-04-13T08:31:01.000Z</time>
      </trkpt>
      <trkpt lat="48.9197" lon="1.0817">
        <ele>197</ele>
        <time>2014-04-13T08:31:03.000Z</time>
      </trkpt>
      <trkpt lat="48.91978" lon="1.08182">
        <ele>195</ele>
        <time>2014-04-13T08:31:05.000Z</time>
      </trkpt>
      <trkpt lat="48.91985" lon="1.08191">
        <ele>194</ele>
        <time>2014-04-13T08:31:07.000Z</time>
      </trkpt>
      <trkpt lat="48.91992" lon="1.082">
        <ele>193</ele>
        <time>2014-04-13T08:31:09.000Z</time>
      </trkpt>
      <trkpt lat="48.91997" lon="1.08208">
        <ele>193</ele>
        <time>2014-04-13T08:31:11.000Z</time>
      </trkpt>
      <trkpt lat="48.92002" lon="1.08218">
        <ele>193</ele>
        <time>2014-04-13T08:31:13.000Z</time>
      </trkpt>
      <trkpt lat="48.92007" lon="1.08228">
        <ele>193</ele>
        <time>2014-04-13T08:31:15.000Z</time>
      </trkpt>
      <trkpt lat="48.92009" lon="1.08238">
        <ele>193</ele>
        <time>2014-04-13T08:31:17.000Z</time>
      </trkpt>
      <trkpt lat="48.9201" lon="1.08249">
        <ele>193</ele>
        <time>2014-04-13T08:31:19.000Z</time>
      </trkpt>
      <trkpt lat="48.92012" lon="1.08259">
        <ele>193</ele>
        <time>2014-04-13T08:31:21.000Z</time>
      </trkpt>
      <trkpt lat="48.92012" lon="1.08268">
        <ele>194</ele>
        <time>2014-04-13T08:31:23.000Z</time>
      </trkpt>
      <trkpt lat="48.92012" lon="1.08278">
        <ele>194</ele>
        <time>2014-04-13T08:31:25.000Z</time>
      </trkpt>
      <trkpt lat="48.92011" lon="1.08289">
        <ele>194</ele>
        <time>2014-04-13T08:31:27.000Z</time>
      </trkpt>
      <trkpt lat="48.92009" lon="1.08301">
        <ele>194</ele>
        <time>2014-04-13T08:31:29.000Z</time>
      </trkpt>
      <trkpt lat="48.92007" lon="1.08314">
        <ele>194</ele>
        <time>2014-04-13T08:31:31.000Z</time>
      </trkpt>
      <trkpt lat="48.92006" lon="1.08328">
        <ele>194</ele>
        <time>2014-04-13T08:31:33.000Z</time>
      </trkpt>
      <trkpt lat="48.92006" lon="1.08339">
        <ele>194</ele>
        <time>2014-04-13T08:31:35.000Z</time>
      </trkpt>
      <trkpt lat="48.92006" lon="1.08352">
        <ele>194</ele>
        <time>2014-04-13T08:31:37.000Z</time>
      </trkpt>
      <trkpt lat="48.92004" lon="1.08366">
        <ele>195</ele>
        <time>2014-04-13T08:31:39.000Z</time>
      </trkpt>
      <trkpt lat="48.92005" lon="1.08378">
        <ele>195</ele>
        <time>2014-04-13T08:31:41.000Z</time>
      </trkpt>
      <trkpt lat="48.92008" lon="1.08392">
        <ele>195</ele>
        <time>2014-04-13T08:31:44.000Z</time>
      </trkpt>
      <trkpt lat="48.92011" lon="1.08406">
        <ele>194</ele>
        <time>2014-04-13T08:31:45.000Z</time>
      </trkpt>
      <trkpt lat="48.92014" lon="1.08418">
        <ele>193</ele>
        <time>2014-04-13T08:31:47.000Z</time>
      </trkpt>
      <trkpt lat="48.92017" lon="1.08432">
        <ele>193</ele>
        <time>2014-04-13T08:31:49.000Z</time>
      </trkpt>
      <trkpt lat="48.92019" lon="1.08445">
        <ele>193</ele>
        <time>2014-04-13T08:31:51.000Z</time>
      </trkpt>
      <trkpt lat="48.92022" lon="1.08457">
        <ele>193</ele>
        <time>2014-04-13T08:31:53.000Z</time>
      </trkpt>
      <trkpt lat="48.92024" lon="1.08469">
        <ele>192</ele>
        <time>2014-04-13T08:31:55.000Z</time>
      </trkpt>
      <trkpt lat="48.92027" lon="1.08481">
        <ele>192</ele>
        <time>2014-04-13T08:31:57.000Z</time>
      </trkpt>
      <trkpt lat="48.9203" lon="1.08492">
        <ele>192</ele>
        <time>2014-04-13T08:31:59.000Z</time>
      </trkpt>
      <trkpt lat="48.92032" lon="1.08501">
        <ele>192</ele>
        <time>2014-04-13T08:32:01.000Z</time>
      </trkpt>
      <trkpt lat="48.92035" lon="1.08512">
        <ele>192</ele>
        <time>2014-04-13T08:32:03.000Z</time>
      </trkpt>
      <trkpt lat="48.92038" lon="1.08523">
        <ele>192</ele>
        <time>2014-04-13T08:32:05.000Z</time>
      </trkpt>
      <trkpt lat="48.92041" lon="1.08533">
        <ele>192</ele>
        <time>2014-04-13T08:32:07.000Z</time>
      </trkpt>
      <trkpt lat="48.92045" lon="1.08544">
        <ele>193</ele>
        <time>2014-04-13T08:32:09.000Z</time>
      </trkpt>
      <trkpt lat="48.92049" lon="1.08555">
        <ele>193</ele>
        <time>2014-04-13T08:32:11.000Z</time>
      </trkpt>
      <trkpt lat="48.92053" lon="1.08566">
        <ele>193</ele>
        <time>2014-04-13T08:32:13.000Z</time>
      </trkpt>
      <trkpt lat="48.92057" lon="1.08577">
        <ele>193</ele>
        <time>2014-04-13T08:32:15.000Z</time>
      </trkpt>
      <trkpt lat="48.92061" lon="1.08588">
        <ele>193</ele>
        <time>2014-04-13T08:32:17.000Z</time>
      </trkpt>
      <trkpt lat="48.92065" lon="1.08599">
        <ele>193</ele>
        <time>2014-04-13T08:32:19.000Z</time>
      </trkpt>
      <trkpt lat="48.92069" lon="1.0861">
        <ele>193</ele>
        <time>2014-04-13T08:32:21.000Z</time>
      </trkpt>
      <trkpt lat="48.92073" lon="1.08622">
        <ele>193</ele>
        <time>2014-04-13T08:32:23.000Z</time>
      </trkpt>
      <trkpt lat="48.92077" lon="1.0863">
        <ele>193</ele>
        <time>2014-04-13T08:32:25.000Z</time>
      </trkpt>
      <trkpt lat="48.9208" lon="1.08639">
        <ele>193</ele>
        <time>2014-04-13T08:32:27.000Z</time>
      </trkpt>
      <trkpt lat="48.92083" lon="1.08648">
        <ele>193</ele>
        <time>2014-04-13T08:32:29.000Z</time>
      </trkpt>
      <trkpt lat="48.92086" lon="1.08659">
        <ele>193</ele>
        <time>2014-04-13T08:32:31.000Z</time>
      </trkpt>
      <trkpt lat="48.92089" lon="1.08669">
        <ele>193</ele>
        <time>2014-04-13T08:32:33.000Z</time>
      </trkpt>
      <trkpt lat="48.92092" lon="1.08679">
        <ele>193</ele>
        <time>2014-04-13T08:32:35.000Z</time>
      </trkpt>
      <trkpt lat="48.92095" lon="1.08689">
        <ele>193</ele>
        <time>2014-04-13T08:32:37.000Z</time>
      </trkpt>
      <trkpt lat="48.92098" lon="1.087">
        <ele>193</ele>
        <time>2014-04-13T08:32:39.000Z</time>
      </trkpt>
      <trkpt lat="48.92101" lon="1.08711">
        <ele>193</ele>
        <time>2014-04-13T08:32:41.000Z</time>
      </trkpt>
      <trkpt lat="48.92104" lon="1.08724">
        <ele>193</ele>
        <time>2014-04-13T08:32:43.000Z</time>
      </trkpt>
      <trkpt lat="48.92106" lon="1.08735">
        <ele>193</ele>
        <time>2014-04-13T08:32:45.000Z</time>
      </trkpt>
      <trkpt lat="48.92109" lon="1.08745">
        <ele>194</ele>
        <time>2014-04-13T08:32:47.000Z</time>
      </trkpt>
      <trkpt lat="48.92111" lon="1.08756">
        <ele>194</ele>
        <time>2014-04-13T08:32:49.000Z</time>
      </trkpt>
      <trkpt lat="48.92113" lon="1.08767">
        <ele>196</ele>
        <time>2014-04-13T08:32:51.000Z</time>
      </trkpt>
      <trkpt lat="48.92116" lon="1.0878">
        <ele>197</ele>
        <time>2014-04-13T08:32:53.000Z</time>
      </trkpt>
      <trkpt lat="48.92119" lon="1.08793">
        <ele>198</ele>
        <time>2014-04-13T08:32:55.000Z</time>
      </trkpt>
      <trkpt lat="48.92121" lon="1.08807">
        <ele>197</ele>
        <time>2014-04-13T08:32:57.000Z</time>
      </trkpt>
      <trkpt lat="48.92122" lon="1.08819">
        <ele>197</ele>
        <time>2014-04-13T08:32:59.000Z</time>
      </trkpt>
      <trkpt lat="48.92122" lon="1.08833">
        <ele>197</ele>
        <time>2014-04-13T08:33:01.000Z</time>
      </trkpt>
      <trkpt lat="48.92124" lon="1.08846">
        <ele>197</ele>
        <time>2014-04-13T08:33:03.000Z</time>
      </trkpt>
      <trkpt lat="48.92126" lon="1.08858">
        <ele>197</ele>
        <time>2014-04-13T08:33:05.000Z</time>
      </trkpt>
      <trkpt lat="48.92128" lon="1.08871">
        <ele>197</ele>
        <time>2014-04-13T08:33:07.000Z</time>
      </trkpt>
      <trkpt lat="48.92131" lon="1.08881">
        <ele>196</ele>
        <time>2014-04-13T08:33:09.000Z</time>
      </trkpt>
      <trkpt lat="48.92131" lon="1.08881">
        <ele>196</ele>
        <time>2014-04-13T08:33:11.000Z</time>
      </trkpt>
      <trkpt lat="48.92133" lon="1.08892">
        <ele>197</ele>
        <time>2014-04-13T08:33:13.000Z</time>
      </trkpt>
      <trkpt lat="48.92133" lon="1.08892">
        <ele>197</ele>
        <time>2014-04-13T08:33:15.000Z</time>
      </trkpt>
      <trkpt lat="48.92133" lon="1.08892">
        <ele>197</ele>
        <time>2014-04-13T08:33:17.000Z</time>
      </trkpt>
      <trkpt lat="48.92144" lon="1.08892">
        <ele>197</ele>
        <time>2014-04-13T08:33:19.000Z</time>
      </trkpt>
      <trkpt lat="48.92152" lon="1.08886">
        <ele>198</ele>
        <time>2014-04-13T08:33:21.000Z</time>
      </trkpt>
      <trkpt lat="48.9216" lon="1.0888">
        <ele>198</ele>
        <time>2014-04-13T08:33:23.000Z</time>
      </trkpt>
      <trkpt lat="48.92169" lon="1.0888">
        <ele>198</ele>
        <time>2014-04-13T08:33:25.000Z</time>
      </trkpt>
      <trkpt lat="48.92177" lon="1.08888">
        <ele>197</ele>
        <time>2014-04-13T08:33:27.000Z</time>
      </trkpt>
      <trkpt lat="48.92184" lon="1.08898">
        <ele>196</ele>
        <time>2014-04-13T08:33:29.000Z</time>
      </trkpt>
      <trkpt lat="48.9219" lon="1.0891">
        <ele>195</ele>
        <time>2014-04-13T08:33:31.000Z</time>
      </trkpt>
      <trkpt lat="48.92196" lon="1.08921">
        <ele>195</ele>
        <time>2014-04-13T08:33:33.000Z</time>
      </trkpt>
      <trkpt lat="48.92201" lon="1.08932">
        <ele>195</ele>
        <time>2014-04-13T08:33:35.000Z</time>
      </trkpt>
      <trkpt lat="48.92206" lon="1.08943">
        <ele>195</ele>
        <time>2014-04-13T08:33:37.000Z</time>
      </trkpt>
      <trkpt lat="48.92212" lon="1.08956">
        <ele>195</ele>
        <time>2014-04-13T08:33:39.000Z</time>
      </trkpt>
      <trkpt lat="48.92216" lon="1.08968">
        <ele>195</ele>
        <time>2014-04-13T08:33:41.000Z</time>
      </trkpt>
      <trkpt lat="48.92221" lon="1.0898">
        <ele>195</ele>
        <time>2014-04-13T08:33:43.000Z</time>
      </trkpt>
      <trkpt lat="48.92225" lon="1.08992">
        <ele>195</ele>
        <time>2014-04-13T08:33:45.000Z</time>
      </trkpt>
      <trkpt lat="48.9223" lon="1.09004">
        <ele>195</ele>
        <time>2014-04-13T08:33:47.000Z</time>
      </trkpt>
      <trkpt lat="48.92234" lon="1.09016">
        <ele>195</ele>
        <time>2014-04-13T08:33:49.000Z</time>
      </trkpt>
      <trkpt lat="48.92239" lon="1.09027">
        <ele>195</ele>
        <time>2014-04-13T08:33:51.000Z</time>
      </trkpt>
      <trkpt lat="48.9224" lon="1.09038">
        <ele>196</ele>
        <time>2014-04-13T08:33:53.000Z</time>
      </trkpt>
      <trkpt lat="48.92234" lon="1.09046">
        <ele>195</ele>
        <time>2014-04-13T08:33:55.000Z</time>
      </trkpt>
      <trkpt lat="48.92225" lon="1.09053">
        <ele>196</ele>
        <time>2014-04-13T08:33:57.000Z</time>
      </trkpt>
      <trkpt lat="48.92217" lon="1.09059">
        <ele>196</ele>
        <time>2014-04-13T08:33:59.000Z</time>
      </trkpt>
      <trkpt lat="48.9221" lon="1.09065">
        <ele>196</ele>
        <time>2014-04-13T08:34:01.000Z</time>
      </trkpt>
      <trkpt lat="48.92201" lon="1.09073">
        <ele>197</ele>
        <time>2014-04-13T08:34:03.000Z</time>
      </trkpt>
      <trkpt lat="48.92193" lon="1.0908">
        <ele>197</ele>
        <time>2014-04-13T08:34:05.000Z</time>
      </trkpt>
      <trkpt lat="48.92185" lon="1.09088">
        <ele>198</ele>
        <time>2014-04-13T08:34:07.000Z</time>
      </trkpt>
      <trkpt lat="48.92178" lon="1.09095">
        <ele>198</ele>
        <time>2014-04-13T08:34:09.000Z</time>
      </trkpt>
      <trkpt lat="48.92169" lon="1.09102">
        <ele>198</ele>
        <time>2014-04-13T08:34:11.000Z</time>
      </trkpt>
      <trkpt lat="48.92161" lon="1.0911">
        <ele>198</ele>
        <time>2014-04-13T08:34:13.000Z</time>
      </trkpt>
      <trkpt lat="48.92153" lon="1.09118">
        <ele>198</ele>
        <time>2014-04-13T08:34:15.000Z</time>
      </trkpt>
      <trkpt lat="48.92145" lon="1.09125">
        <ele>198</ele>
        <time>2014-04-13T08:34:17.000Z</time>
      </trkpt>
      <trkpt lat="48.92138" lon="1.09132">
        <ele>197</ele>
        <time>2014-04-13T08:34:19.000Z</time>
      </trkpt>
      <trkpt lat="48.92129" lon="1.09139">
        <ele>197</ele>
        <time>2014-04-13T08:34:21.000Z</time>
      </trkpt>
      <trkpt lat="48.92121" lon="1.09146">
        <ele>196</ele>
        <time>2014-04-13T08:34:23.000Z</time>
      </trkpt>
      <trkpt lat="48.92113" lon="1.09153">
        <ele>196</ele>
        <time>2014-04-13T08:34:25.000Z</time>
      </trkpt>
      <trkpt lat="48.92105" lon="1.0916">
        <ele>196</ele>
        <time>2014-04-13T08:34:27.000Z</time>
      </trkpt>
      <trkpt lat="48.92097" lon="1.09166">
        <ele>196</ele>
        <time>2014-04-13T08:34:29.000Z</time>
      </trkpt>
      <trkpt lat="48.92088" lon="1.0917">
        <ele>196</ele>
        <time>2014-04-13T08:34:31.000Z</time>
      </trkpt>
      <trkpt lat="48.92078" lon="1.09173">
        <ele>197</ele>
        <time>2014-04-13T08:34:33.000Z</time>
      </trkpt>
      <trkpt lat="48.92069" lon="1.09176">
        <ele>197</ele>
        <time>2014-04-13T08:34:35.000Z</time>
      </trkpt>
      <trkpt lat="48.92059" lon="1.09179">
        <ele>197</ele>
        <time>2014-04-13T08:34:37.000Z</time>
      </trkpt>
      <trkpt lat="48.92051" lon="1.09181">
        <ele>197</ele>
        <time>2014-04-13T08:34:39.000Z</time>
      </trkpt>
      <trkpt lat="48.92043" lon="1.09184">
        <ele>197</ele>
        <time>2014-04-13T08:34:41.000Z</time>
      </trkpt>
      <trkpt lat="48.92033" lon="1.09187">
        <ele>196</ele>
        <time>2014-04-13T08:34:43.000Z</time>
      </trkpt>
      <trkpt lat="48.92024" lon="1.0919">
        <ele>196</ele>
        <time>2014-04-13T08:34:45.000Z</time>
      </trkpt>
      <trkpt lat="48.92014" lon="1.09195">
        <ele>196</ele>
        <time>2014-04-13T08:34:47.000Z</time>
      </trkpt>
      <trkpt lat="48.92004" lon="1.09199">
        <ele>196</ele>
        <time>2014-04-13T08:34:49.000Z</time>
      </trkpt>
      <trkpt lat="48.91995" lon="1.09203">
        <ele>196</ele>
        <time>2014-04-13T08:34:51.000Z</time>
      </trkpt>
      <trkpt lat="48.91986" lon="1.09209">
        <ele>197</ele>
        <time>2014-04-13T08:34:53.000Z</time>
      </trkpt>
      <trkpt lat="48.91977" lon="1.09215">
        <ele>197</ele>
        <time>2014-04-13T08:34:55.000Z</time>
      </trkpt>
      <trkpt lat="48.91968" lon="1.09222">
        <ele>197</ele>
        <time>2014-04-13T08:34:57.000Z</time>
      </trkpt>
      <trkpt lat="48.9196" lon="1.09229">
        <ele>197</ele>
        <time>2014-04-13T08:34:59.000Z</time>
      </trkpt>
      <trkpt lat="48.91952" lon="1.09237">
        <ele>197</ele>
        <time>2014-04-13T08:35:01.000Z</time>
      </trkpt>
      <trkpt lat="48.91943" lon="1.09245">
        <ele>196</ele>
        <time>2014-04-13T08:35:03.000Z</time>
      </trkpt>
      <trkpt lat="48.91936" lon="1.09255">
        <ele>196</ele>
        <time>2014-04-13T08:35:05.000Z</time>
      </trkpt>
      <trkpt lat="48.91929" lon="1.09264">
        <ele>196</ele>
        <time>2014-04-13T08:35:07.000Z</time>
      </trkpt>
      <trkpt lat="48.91924" lon="1.09274">
        <ele>196</ele>
        <time>2014-04-13T08:35:09.000Z</time>
      </trkpt>
      <trkpt lat="48.91919" lon="1.09284">
        <ele>197</ele>
        <time>2014-04-13T08:35:11.000Z</time>
      </trkpt>
      <trkpt lat="48.91912" lon="1.09285">
        <ele>197</ele>
        <time>2014-04-13T08:35:13.000Z</time>
      </trkpt>
      <trkpt lat="48.91909" lon="1.09276">
        <ele>196</ele>
        <time>2014-04-13T08:35:15.000Z</time>
      </trkpt>
      <trkpt lat="48.91907" lon="1.09263">
        <ele>197</ele>
        <time>2014-04-13T08:35:17.000Z</time>
      </trkpt>
      <trkpt lat="48.91903" lon="1.09249">
        <ele>197</ele>
        <time>2014-04-13T08:35:19.000Z</time>
      </trkpt>
      <trkpt lat="48.91898" lon="1.09235">
        <ele>197</ele>
        <time>2014-04-13T08:35:21.000Z</time>
      </trkpt>
      <trkpt lat="48.91892" lon="1.09222">
        <ele>198</ele>
        <time>2014-04-13T08:35:23.000Z</time>
      </trkpt>
      <trkpt lat="48.91885" lon="1.09208">
        <ele>198</ele>
        <time>2014-04-13T08:35:25.000Z</time>
      </trkpt>
      <trkpt lat="48.91878" lon="1.09192">
        <ele>198</ele>
        <time>2014-04-13T08:35:27.000Z</time>
      </trkpt>
      <trkpt lat="48.9187" lon="1.09177">
        <ele>198</ele>
        <time>2014-04-13T08:35:29.000Z</time>
      </trkpt>
      <trkpt lat="48.91864" lon="1.09163">
        <ele>198</ele>
        <time>2014-04-13T08:35:31.000Z</time>
      </trkpt>
      <trkpt lat="48.91858" lon="1.09149">
        <ele>198</ele>
        <time>2014-04-13T08:35:33.000Z</time>
      </trkpt>
      <trkpt lat="48.9185" lon="1.09138">
        <ele>198</ele>
        <time>2014-04-13T08:35:35.000Z</time>
      </trkpt>
      <trkpt lat="48.91838" lon="1.09134">
        <ele>197</ele>
        <time>2014-04-13T08:35:37.000Z</time>
      </trkpt>
      <trkpt lat="48.91824" lon="1.09136">
        <ele>197</ele>
        <time>2014-04-13T08:35:39.000Z</time>
      </trkpt>
      <trkpt lat="48.91811" lon="1.09143">
        <ele>196</ele>
        <time>2014-04-13T08:35:41.000Z</time>
      </trkpt>
      <trkpt lat="48.91799" lon="1.09151">
        <ele>195</ele>
        <time>2014-04-13T08:35:43.000Z</time>
      </trkpt>
      <trkpt lat="48.91788" lon="1.0916">
        <ele>195</ele>
        <time>2014-04-13T08:35:45.000Z</time>
      </trkpt>
      <trkpt lat="48.91777" lon="1.0917">
        <ele>195</ele>
        <time>2014-04-13T08:35:47.000Z</time>
      </trkpt>
      <trkpt lat="48.91766" lon="1.0918">
        <ele>195</ele>
        <time>2014-04-13T08:35:49.000Z</time>
      </trkpt>
      <trkpt lat="48.91755" lon="1.0919">
        <ele>195</ele>
        <time>2014-04-13T08:35:51.000Z</time>
      </trkpt>
      <trkpt lat="48.91745" lon="1.09201">
        <ele>195</ele>
        <time>2014-04-13T08:35:53.000Z</time>
      </trkpt>
      <trkpt lat="48.91735" lon="1.09212">
        <ele>195</ele>
        <time>2014-04-13T08:35:55.000Z</time>
      </trkpt>
      <trkpt lat="48.91726" lon="1.09224">
        <ele>195</ele>
        <time>2014-04-13T08:35:57.000Z</time>
      </trkpt>
      <trkpt lat="48.91718" lon="1.09237">
        <ele>195</ele>
        <time>2014-04-13T08:35:59.000Z</time>
      </trkpt>
      <trkpt lat="48.9171" lon="1.0925">
        <ele>195</ele>
        <time>2014-04-13T08:36:01.000Z</time>
      </trkpt>
      <trkpt lat="48.91702" lon="1.09263">
        <ele>195</ele>
        <time>2014-04-13T08:36:03.000Z</time>
      </trkpt>
      <trkpt lat="48.91695" lon="1.09276">
        <ele>195</ele>
        <time>2014-04-13T08:36:05.000Z</time>
      </trkpt>
      <trkpt lat="48.91688" lon="1.09289">
        <ele>195</ele>
        <time>2014-04-13T08:36:07.000Z</time>
      </trkpt>
      <trkpt lat="48.91681" lon="1.09302">
        <ele>194</ele>
        <time>2014-04-13T08:36:09.000Z</time>
      </trkpt>
      <trkpt lat="48.91674" lon="1.09313">
        <ele>193</ele>
        <time>2014-04-13T08:36:11.000Z</time>
      </trkpt>
      <trkpt lat="48.91666" lon="1.09324">
        <ele>193</ele>
        <time>2014-04-13T08:36:13.000Z</time>
      </trkpt>
      <trkpt lat="48.91659" lon="1.09335">
        <ele>193</ele>
        <time>2014-04-13T08:36:15.000Z</time>
      </trkpt>
      <trkpt lat="48.91651" lon="1.09345">
        <ele>194</ele>
        <time>2014-04-13T08:36:17.000Z</time>
      </trkpt>
      <trkpt lat="48.91643" lon="1.09355">
        <ele>194</ele>
        <time>2014-04-13T08:36:19.000Z</time>
      </trkpt>
      <trkpt lat="48.91635" lon="1.09366">
        <ele>195</ele>
        <time>2014-04-13T08:36:21.000Z</time>
      </trkpt>
      <trkpt lat="48.91627" lon="1.09377">
        <ele>195</ele>
        <time>2014-04-13T08:36:23.000Z</time>
      </trkpt>
      <trkpt lat="48.91619" lon="1.09387">
        <ele>196</ele>
        <time>2014-04-13T08:36:25.000Z</time>
      </trkpt>
      <trkpt lat="48.91611" lon="1.09397">
        <ele>197</ele>
        <time>2014-04-13T08:36:27.000Z</time>
      </trkpt>
      <trkpt lat="48.91603" lon="1.09405">
        <ele>197</ele>
        <time>2014-04-13T08:36:29.000Z</time>
      </trkpt>
      <trkpt lat="48.91595" lon="1.09413">
        <ele>197</ele>
        <time>2014-04-13T08:36:31.000Z</time>
      </trkpt>
      <trkpt lat="48.91587" lon="1.0942">
        <ele>197</ele>
        <time>2014-04-13T08:36:33.000Z</time>
      </trkpt>
      <trkpt lat="48.91578" lon="1.09427">
        <ele>197</ele>
        <time>2014-04-13T08:36:35.000Z</time>
      </trkpt>
      <trkpt lat="48.91569" lon="1.09436">
        <ele>197</ele>
        <time>2014-04-13T08:36:37.000Z</time>
      </trkpt>
      <trkpt lat="48.91559" lon="1.09443">
        <ele>197</ele>
        <time>2014-04-13T08:36:39.000Z</time>
      </trkpt>
      <trkpt lat="48.9155" lon="1.0945">
        <ele>197</ele>
        <time>2014-04-13T08:36:41.000Z</time>
      </trkpt>
      <trkpt lat="48.9154" lon="1.09458">
        <ele>197</ele>
        <time>2014-04-13T08:36:43.000Z</time>
      </trkpt>
      <trkpt lat="48.91531" lon="1.09464">
        <ele>197</ele>
        <time>2014-04-13T08:36:45.000Z</time>
      </trkpt>
      <trkpt lat="48.9152" lon="1.09471">
        <ele>197</ele>
        <time>2014-04-13T08:36:47.000Z</time>
      </trkpt>
      <trkpt lat="48.91511" lon="1.09475">
        <ele>196</ele>
        <time>2014-04-13T08:36:49.000Z</time>
      </trkpt>
      <trkpt lat="48.915" lon="1.0948">
        <ele>195</ele>
        <time>2014-04-13T08:36:51.000Z</time>
      </trkpt>
      <trkpt lat="48.91489" lon="1.09483">
        <ele>195</ele>
        <time>2014-04-13T08:36:53.000Z</time>
      </trkpt>
      <trkpt lat="48.91479" lon="1.09486">
        <ele>195</ele>
        <time>2014-04-13T08:36:55.000Z</time>
      </trkpt>
      <trkpt lat="48.91469" lon="1.09487">
        <ele>196</ele>
        <time>2014-04-13T08:36:57.000Z</time>
      </trkpt>
      <trkpt lat="48.91458" lon="1.09489">
        <ele>197</ele>
        <time>2014-04-13T08:36:59.000Z</time>
      </trkpt>
      <trkpt lat="48.91447" lon="1.0949">
        <ele>196</ele>
        <time>2014-04-13T08:37:01.000Z</time>
      </trkpt>
      <trkpt lat="48.91435" lon="1.0949">
        <ele>196</ele>
        <time>2014-04-13T08:37:03.000Z</time>
      </trkpt>
      <trkpt lat="48.91425" lon="1.0949">
        <ele>196</ele>
        <time>2014-04-13T08:37:05.000Z</time>
      </trkpt>
      <trkpt lat="48.91413" lon="1.09489">
        <ele>195</ele>
        <time>2014-04-13T08:37:07.000Z</time>
      </trkpt>
      <trkpt lat="48.91402" lon="1.09489">
        <ele>195</ele>
        <time>2014-04-13T08:37:09.000Z</time>
      </trkpt>
      <trkpt lat="48.91391" lon="1.09488">
        <ele>194</ele>
        <time>2014-04-13T08:37:11.000Z</time>
      </trkpt>
      <trkpt lat="48.9138" lon="1.09488">
        <ele>194</ele>
        <time>2014-04-13T08:37:13.000Z</time>
      </trkpt>
      <trkpt lat="48.91369" lon="1.09488">
        <ele>194</ele>
        <time>2014-04-13T08:37:15.000Z</time>
      </trkpt>
      <trkpt lat="48.91359" lon="1.09488">
        <ele>193</ele>
        <time>2014-04-13T08:37:17.000Z</time>
      </trkpt>
      <trkpt lat="48.91349" lon="1.09488">
        <ele>194</ele>
        <time>2014-04-13T08:37:19.000Z</time>
      </trkpt>
      <trkpt lat="48.91338" lon="1.09491">
        <ele>195</ele>
        <time>2014-04-13T08:37:21.000Z</time>
      </trkpt>
      <trkpt lat="48.91328" lon="1.09493">
        <ele>196</ele>
        <time>2014-04-13T08:37:23.000Z</time>
      </trkpt>
      <trkpt lat="48.91316" lon="1.09496">
        <ele>196</ele>
        <time>2014-04-13T08:37:25.000Z</time>
      </trkpt>
      <trkpt lat="48.91306" lon="1.09497">
        <ele>196</ele>
        <time>2014-04-13T08:37:27.000Z</time>
      </trkpt>
      <trkpt lat="48.91297" lon="1.09499">
        <ele>196</ele>
        <time>2014-04-13T08:37:29.000Z</time>
      </trkpt>
      <trkpt lat="48.91288" lon="1.095">
        <ele>196</ele>
        <time>2014-04-13T08:37:31.000Z</time>
      </trkpt>
      <trkpt lat="48.91277" lon="1.095">
        <ele>195</ele>
        <time>2014-04-13T08:37:33.000Z</time>
      </trkpt>
      <trkpt lat="48.91268" lon="1.09499">
        <ele>195</ele>
        <time>2014-04-13T08:37:35.000Z</time>
      </trkpt>
      <trkpt lat="48.9126" lon="1.09497">
        <ele>195</ele>
        <time>2014-04-13T08:37:37.000Z</time>
      </trkpt>
      <trkpt lat="48.91252" lon="1.09496">
        <ele>196</ele>
        <time>2014-04-13T08:37:39.000Z</time>
      </trkpt>
      <trkpt lat="48.91245" lon="1.09495">
        <ele>196</ele>
        <time>2014-04-13T08:37:41.000Z</time>
      </trkpt>
      <trkpt lat="48.91236" lon="1.09495">
        <ele>196</ele>
        <time>2014-04-13T08:37:43.000Z</time>
      </trkpt>
      <trkpt lat="48.91228" lon="1.09498">
        <ele>196</ele>
        <time>2014-04-13T08:37:45.000Z</time>
      </trkpt>
      <trkpt lat="48.91221" lon="1.09501">
        <ele>196</ele>
        <time>2014-04-13T08:37:47.000Z</time>
      </trkpt>
      <trkpt lat="48.91214" lon="1.09505">
        <ele>196</ele>
        <time>2014-04-13T08:37:49.000Z</time>
      </trkpt>
      <trkpt lat="48.91205" lon="1.0951">
        <ele>198</ele>
        <time>2014-04-13T08:37:51.000Z</time>
      </trkpt>
      <trkpt lat="48.91196" lon="1.09515">
        <ele>199</ele>
        <time>2014-04-13T08:37:53.000Z</time>
      </trkpt>
      <trkpt lat="48.91189" lon="1.09519">
        <ele>199</ele>
        <time>2014-04-13T08:37:55.000Z</time>
      </trkpt>
      <trkpt lat="48.91181" lon="1.09523">
        <ele>199</ele>
        <time>2014-04-13T08:37:57.000Z</time>
      </trkpt>
      <trkpt lat="48.91171" lon="1.09528">
        <ele>199</ele>
        <time>2014-04-13T08:37:59.000Z</time>
      </trkpt>
      <trkpt lat="48.91166" lon="1.0953">
        <ele>199</ele>
        <time>2014-04-13T08:38:01.000Z</time>
      </trkpt>
      <trkpt lat="48.91157" lon="1.09533">
        <ele>199</ele>
        <time>2014-04-13T08:38:03.000Z</time>
      </trkpt>
      <trkpt lat="48.91148" lon="1.09536">
        <ele>199</ele>
        <time>2014-04-13T08:38:05.000Z</time>
      </trkpt>
      <trkpt lat="48.91138" lon="1.0954">
        <ele>200</ele>
        <time>2014-04-13T08:38:07.000Z</time>
      </trkpt>
      <trkpt lat="48.91129" lon="1.09544">
        <ele>202</ele>
        <time>2014-04-13T08:38:09.000Z</time>
      </trkpt>
      <trkpt lat="48.91121" lon="1.09549">
        <ele>202</ele>
        <time>2014-04-13T08:38:11.000Z</time>
      </trkpt>
      <trkpt lat="48.91114" lon="1.09554">
        <ele>202</ele>
        <time>2014-04-13T08:38:13.000Z</time>
      </trkpt>
      <trkpt lat="48.91105" lon="1.0956">
        <ele>202</ele>
        <time>2014-04-13T08:38:15.000Z</time>
      </trkpt>
      <trkpt lat="48.91096" lon="1.09565">
        <ele>201</ele>
        <time>2014-04-13T08:38:17.000Z</time>
      </trkpt>
      <trkpt lat="48.91089" lon="1.09568">
        <ele>202</ele>
        <time>2014-04-13T08:38:19.000Z</time>
      </trkpt>
      <trkpt lat="48.91082" lon="1.09571">
        <ele>202</ele>
        <time>2014-04-13T08:38:21.000Z</time>
      </trkpt>
      <trkpt lat="48.91073" lon="1.09575">
        <ele>202</ele>
        <time>2014-04-13T08:38:23.000Z</time>
      </trkpt>
      <trkpt lat="48.91066" lon="1.09577">
        <ele>202</ele>
        <time>2014-04-13T08:38:25.000Z</time>
      </trkpt>
      <trkpt lat="48.91058" lon="1.09579">
        <ele>202</ele>
        <time>2014-04-13T08:38:27.000Z</time>
      </trkpt>
      <trkpt lat="48.91051" lon="1.09582">
        <ele>202</ele>
        <time>2014-04-13T08:38:29.000Z</time>
      </trkpt>
      <trkpt lat="48.91043" lon="1.09587">
        <ele>202</ele>
        <time>2014-04-13T08:38:31.000Z</time>
      </trkpt>
      <trkpt lat="48.91035" lon="1.09593">
        <ele>202</ele>
        <time>2014-04-13T08:38:33.000Z</time>
      </trkpt>
      <trkpt lat="48.91027" lon="1.096">
        <ele>203</ele>
        <time>2014-04-13T08:38:35.000Z</time>
      </trkpt>
      <trkpt lat="48.91019" lon="1.09606">
        <ele>203</ele>
        <time>2014-04-13T08:38:37.000Z</time>
      </trkpt>
      <trkpt lat="48.91008" lon="1.09613">
        <ele>203</ele>
        <time>2014-04-13T08:38:39.000Z</time>
      </trkpt>
      <trkpt lat="48.91" lon="1.09612">
        <ele>203</ele>
        <time>2014-04-13T08:38:41.000Z</time>
      </trkpt>
      <trkpt lat="48.90997" lon="1.09603">
        <ele>203</ele>
        <time>2014-04-13T08:38:43.000Z</time>
      </trkpt>
      <trkpt lat="48.90995" lon="1.09591">
        <ele>202</ele>
        <time>2014-04-13T08:38:45.000Z</time>
      </trkpt>
      <trkpt lat="48.90994" lon="1.09577">
        <ele>201</ele>
        <time>2014-04-13T08:38:47.000Z</time>
      </trkpt>
      <trkpt lat="48.90993" lon="1.09563">
        <ele>201</ele>
        <time>2014-04-13T08:38:49.000Z</time>
      </trkpt>
      <trkpt lat="48.9099" lon="1.09548">
        <ele>201</ele>
        <time>2014-04-13T08:38:51.000Z</time>
      </trkpt>
      <trkpt lat="48.90985" lon="1.09534">
        <ele>202</ele>
        <time>2014-04-13T08:38:53.000Z</time>
      </trkpt>
      <trkpt lat="48.90978" lon="1.0952">
        <ele>202</ele>
        <time>2014-04-13T08:38:55.000Z</time>
      </trkpt>
      <trkpt lat="48.9097" lon="1.09505">
        <ele>202</ele>
        <time>2014-04-13T08:38:57.000Z</time>
      </trkpt>
      <trkpt lat="48.90961" lon="1.0949">
        <ele>203</ele>
        <time>2014-04-13T08:38:59.000Z</time>
      </trkpt>
      <trkpt lat="48.90953" lon="1.09475">
        <ele>203</ele>
        <time>2014-04-13T08:39:01.000Z</time>
      </trkpt>
      <trkpt lat="48.90945" lon="1.09458">
        <ele>204</ele>
        <time>2014-04-13T08:39:03.000Z</time>
      </trkpt>
      <trkpt lat="48.90936" lon="1.09439">
        <ele>206</ele>
        <time>2014-04-13T08:39:05.000Z</time>
      </trkpt>
      <trkpt lat="48.90926" lon="1.09422">
        <ele>205</ele>
        <time>2014-04-13T08:39:07.000Z</time>
      </trkpt>
      <trkpt lat="48.90918" lon="1.09409">
        <ele>205</ele>
        <time>2014-04-13T08:39:09.000Z</time>
      </trkpt>
      <trkpt lat="48.9091" lon="1.09396">
        <ele>203</ele>
        <time>2014-04-13T08:39:11.000Z</time>
      </trkpt>
      <trkpt lat="48.90902" lon="1.09386">
        <ele>202</ele>
        <time>2014-04-13T08:39:13.000Z</time>
      </trkpt>
      <trkpt lat="48.90894" lon="1.09376">
        <ele>203</ele>
        <time>2014-04-13T08:39:15.000Z</time>
      </trkpt>
      <trkpt lat="48.90885" lon="1.09367">
        <ele>204</ele>
        <time>2014-04-13T08:39:17.000Z</time>
      </trkpt>
      <trkpt lat="48.90878" lon="1.09358">
        <ele>204</ele>
        <time>2014-04-13T08:39:19.000Z</time>
      </trkpt>
      <trkpt lat="48.9087" lon="1.09352">
        <ele>205</ele>
        <time>2014-04-13T08:39:21.000Z</time>
      </trkpt>
      <trkpt lat="48.90862" lon="1.09348">
        <ele>204</ele>
        <time>2014-04-13T08:39:23.000Z</time>
      </trkpt>
      <trkpt lat="48.90854" lon="1.09345">
        <ele>204</ele>
        <time>2014-04-13T08:39:25.000Z</time>
      </trkpt>
      <trkpt lat="48.90842" lon="1.09343">
        <ele>203</ele>
        <time>2014-04-13T08:39:27.000Z</time>
      </trkpt>
      <trkpt lat="48.90831" lon="1.0934">
        <ele>202</ele>
        <time>2014-04-13T08:39:29.000Z</time>
      </trkpt>
      <trkpt lat="48.90823" lon="1.09338">
        <ele>202</ele>
        <time>2014-04-13T08:39:31.000Z</time>
      </trkpt>
      <trkpt lat="48.90815" lon="1.09336">
        <ele>202</ele>
        <time>2014-04-13T08:39:33.000Z</time>
      </trkpt>
      <trkpt lat="48.90806" lon="1.09331">
        <ele>203</ele>
        <time>2014-04-13T08:39:35.000Z</time>
      </trkpt>
      <trkpt lat="48.90796" lon="1.09324">
        <ele>204</ele>
        <time>2014-04-13T08:39:38.000Z</time>
      </trkpt>
      <trkpt lat="48.90787" lon="1.09316">
        <ele>205</ele>
        <time>2014-04-13T08:39:40.000Z</time>
      </trkpt>
      <trkpt lat="48.90777" lon="1.09307">
        <ele>206</ele>
        <time>2014-04-13T08:39:42.000Z</time>
      </trkpt>
      <trkpt lat="48.90767" lon="1.09299">
        <ele>207</ele>
        <time>2014-04-13T08:39:44.000Z</time>
      </trkpt>
      <trkpt lat="48.90759" lon="1.0929">
        <ele>208</ele>
        <time>2014-04-13T08:39:46.000Z</time>
      </trkpt>
      <trkpt lat="48.90747" lon="1.09282">
        <ele>208</ele>
        <time>2014-04-13T08:39:48.000Z</time>
      </trkpt>
      <trkpt lat="48.90735" lon="1.09272">
        <ele>208</ele>
        <time>2014-04-13T08:39:50.000Z</time>
      </trkpt>
      <trkpt lat="48.90725" lon="1.09262">
        <ele>208</ele>
        <time>2014-04-13T08:39:52.000Z</time>
      </trkpt>
      <trkpt lat="48.90717" lon="1.09252">
        <ele>206</ele>
        <time>2014-04-13T08:39:54.000Z</time>
      </trkpt>
      <trkpt lat="48.90709" lon="1.09241">
        <ele>203</ele>
        <time>2014-04-13T08:39:55.000Z</time>
      </trkpt>
      <trkpt lat="48.90702" lon="1.09232">
        <ele>202</ele>
        <time>2014-04-13T08:39:58.000Z</time>
      </trkpt>
      <trkpt lat="48.90698" lon="1.09223">
        <ele>202</ele>
        <time>2014-04-13T08:40:00.000Z</time>
      </trkpt>
      <trkpt lat="48.90698" lon="1.09223">
        <ele>202</ele>
        <time>2014-04-13T08:40:02.000Z</time>
      </trkpt>
      <trkpt lat="48.90704" lon="1.09217">
        <ele>203</ele>
        <time>2014-04-13T08:40:04.000Z</time>
      </trkpt>
      <trkpt lat="48.9071" lon="1.09214">
        <ele>202</ele>
        <time>2014-04-13T08:40:06.000Z</time>
      </trkpt>
      <trkpt lat="48.90718" lon="1.0921">
        <ele>203</ele>
        <time>2014-04-13T08:40:08.000Z</time>
      </trkpt>
      <trkpt lat="48.90725" lon="1.09205">
        <ele>203</ele>
        <time>2014-04-13T08:40:10.000Z</time>
      </trkpt>
      <trkpt lat="48.90733" lon="1.09201">
        <ele>204</ele>
        <time>2014-04-13T08:40:12.000Z</time>
      </trkpt>
      <trkpt lat="48.9074" lon="1.09197">
        <ele>204</ele>
        <time>2014-04-13T08:40:14.000Z</time>
      </trkpt>
      <trkpt lat="48.90746" lon="1.09193">
        <ele>204</ele>
        <time>2014-04-13T08:40:15.000Z</time>
      </trkpt>
      <trkpt lat="48.90751" lon="1.09186">
        <ele>204</ele>
        <time>2014-04-13T08:40:18.000Z</time>
      </trkpt>
      <trkpt lat="48.90755" lon="1.09175">
        <ele>204</ele>
        <time>2014-04-13T08:40:19.000Z</time>
      </trkpt>
      <trkpt lat="48.90757" lon="1.0916">
        <ele>204</ele>
        <time>2014-04-13T08:40:22.000Z</time>
      </trkpt>
      <trkpt lat="48.90753" lon="1.09147">
        <ele>203</ele>
        <time>2014-04-13T08:40:24.000Z</time>
      </trkpt>
      <trkpt lat="48.90747" lon="1.09133">
        <ele>203</ele>
        <time>2014-04-13T08:40:26.000Z</time>
      </trkpt>
      <trkpt lat="48.90742" lon="1.09121">
        <ele>203</ele>
        <time>2014-04-13T08:40:28.000Z</time>
      </trkpt>
      <trkpt lat="48.90737" lon="1.09109">
        <ele>203</ele>
        <time>2014-04-13T08:40:30.000Z</time>
      </trkpt>
      <trkpt lat="48.90733" lon="1.091">
        <ele>202</ele>
        <time>2014-04-13T08:40:32.000Z</time>
      </trkpt>
      <trkpt lat="48.90729" lon="1.09089">
        <ele>202</ele>
        <time>2014-04-13T08:40:34.000Z</time>
      </trkpt>
      <trkpt lat="48.90724" lon="1.09079">
        <ele>202</ele>
        <time>2014-04-13T08:40:35.000Z</time>
      </trkpt>
      <trkpt lat="48.9072" lon="1.09069">
        <ele>202</ele>
        <time>2014-04-13T08:40:38.000Z</time>
      </trkpt>
      <trkpt lat="48.90714" lon="1.09059">
        <ele>201</ele>
        <time>2014-04-13T08:40:40.000Z</time>
      </trkpt>
      <trkpt lat="48.90709" lon="1.09049">
        <ele>201</ele>
        <time>2014-04-13T08:40:42.000Z</time>
      </trkpt>
      <trkpt lat="48.90705" lon="1.09037">
        <ele>200</ele>
        <time>2014-04-13T08:40:44.000Z</time>
      </trkpt>
      <trkpt lat="48.907" lon="1.09023">
        <ele>197</ele>
        <time>2014-04-13T08:40:45.000Z</time>
      </trkpt>
      <trkpt lat="48.90694" lon="1.09006">
        <ele>196</ele>
        <time>2014-04-13T08:40:48.000Z</time>
      </trkpt>
      <trkpt lat="48.9069" lon="1.0899">
        <ele>195</ele>
        <time>2014-04-13T08:40:50.000Z</time>
      </trkpt>
      <trkpt lat="48.90685" lon="1.08971">
        <ele>195</ele>
        <time>2014-04-13T08:40:52.000Z</time>
      </trkpt>
      <trkpt lat="48.90679" lon="1.08953">
        <ele>194</ele>
        <time>2014-04-13T08:40:54.000Z</time>
      </trkpt>
      <trkpt lat="48.90675" lon="1.08932">
        <ele>193</ele>
        <time>2014-04-13T08:40:55.000Z</time>
      </trkpt>
      <trkpt lat="48.9067" lon="1.0891">
        <ele>191</ele>
        <time>2014-04-13T08:40:58.000Z</time>
      </trkpt>
      <trkpt lat="48.90667" lon="1.0889">
        <ele>191</ele>
        <time>2014-04-13T08:41:00.000Z</time>
      </trkpt>
      <trkpt lat="48.90664" lon="1.08874">
        <ele>190</ele>
        <time>2014-04-13T08:41:02.000Z</time>
      </trkpt>
      <trkpt lat="48.9066" lon="1.08856">
        <ele>189</ele>
        <time>2014-04-13T08:41:04.000Z</time>
      </trkpt>
      <trkpt lat="48.90657" lon="1.08841">
        <ele>189</ele>
        <time>2014-04-13T08:41:06.000Z</time>
      </trkpt>
      <trkpt lat="48.90655" lon="1.08828">
        <ele>189</ele>
        <time>2014-04-13T08:41:08.000Z</time>
      </trkpt>
      <trkpt lat="48.90653" lon="1.08814">
        <ele>189</ele>
        <time>2014-04-13T08:41:10.000Z</time>
      </trkpt>
      <trkpt lat="48.90652" lon="1.088">
        <ele>189</ele>
        <time>2014-04-13T08:41:11.000Z</time>
      </trkpt>
      <trkpt lat="48.9065" lon="1.08785">
        <ele>189</ele>
        <time>2014-04-13T08:41:14.000Z</time>
      </trkpt>
      <trkpt lat="48.90644" lon="1.08773">
        <ele>189</ele>
        <time>2014-04-13T08:41:15.000Z</time>
      </trkpt>
      <trkpt lat="48.90638" lon="1.08767">
        <ele>189</ele>
        <time>2014-04-13T08:41:18.000Z</time>
      </trkpt>
      <trkpt lat="48.90629" lon="1.0876">
        <ele>189</ele>
        <time>2014-04-13T08:41:20.000Z</time>
      </trkpt>
      <trkpt lat="48.90621" lon="1.08755">
        <ele>189</ele>
        <time>2014-04-13T08:41:22.000Z</time>
      </trkpt>
      <trkpt lat="48.90613" lon="1.0875">
        <ele>190</ele>
        <time>2014-04-13T08:41:24.000Z</time>
      </trkpt>
      <trkpt lat="48.90606" lon="1.0874">
        <ele>191</ele>
        <time>2014-04-13T08:41:26.000Z</time>
      </trkpt>
      <trkpt lat="48.90597" lon="1.08735">
        <ele>191</ele>
        <time>2014-04-13T08:41:28.000Z</time>
      </trkpt>
      <trkpt lat="48.90588" lon="1.08733">
        <ele>191</ele>
        <time>2014-04-13T08:41:30.000Z</time>
      </trkpt>
      <trkpt lat="48.90579" lon="1.08731">
        <ele>191</ele>
        <time>2014-04-13T08:41:32.000Z</time>
      </trkpt>
      <trkpt lat="48.90579" lon="1.08731">
        <ele>191</ele>
        <time>2014-04-13T08:41:34.000Z</time>
      </trkpt>
      <trkpt lat="48.90569" lon="1.0872">
        <ele>190</ele>
        <time>2014-04-13T08:41:35.000Z</time>
      </trkpt>
      <trkpt lat="48.90564" lon="1.0871">
        <ele>190</ele>
        <time>2014-04-13T08:41:38.000Z</time>
      </trkpt>
      <trkpt lat="48.90559" lon="1.08701">
        <ele>190</ele>
        <time>2014-04-13T08:41:40.000Z</time>
      </trkpt>
      <trkpt lat="48.90557" lon="1.08688">
        <ele>189</ele>
        <time>2014-04-13T08:41:42.000Z</time>
      </trkpt>
      <trkpt lat="48.90555" lon="1.08675">
        <ele>189</ele>
        <time>2014-04-13T08:41:44.000Z</time>
      </trkpt>
      <trkpt lat="48.90551" lon="1.08664">
        <ele>189</ele>
        <time>2014-04-13T08:41:46.000Z</time>
      </trkpt>
      <trkpt lat="48.90505" lon="1.08688">
        <ele>178</ele>
        <time>2014-04-13T08:41:51.000Z</time>
      </trkpt>
      <trkpt lat="48.90494" lon="1.08712">
        <ele>175</ele>
        <time>2014-04-13T08:41:54.000Z</time>
      </trkpt>
      <trkpt lat="48.9049" lon="1.08727">
        <ele>173</ele>
        <time>2014-04-13T08:41:55.000Z</time>
      </trkpt>
      <trkpt lat="48.90488" lon="1.08744">
        <ele>173</ele>
        <time>2014-04-13T08:41:57.000Z</time>
      </trkpt>
      <trkpt lat="48.90487" lon="1.0876">
        <ele>172</ele>
        <time>2014-04-13T08:42:00.000Z</time>
      </trkpt>
      <trkpt lat="48.90487" lon="1.08777">
        <ele>172</ele>
        <time>2014-04-13T08:42:02.000Z</time>
      </trkpt>
      <trkpt lat="48.90486" lon="1.08793">
        <ele>171</ele>
        <time>2014-04-13T08:42:04.000Z</time>
      </trkpt>
      <trkpt lat="48.90483" lon="1.08809">
        <ele>171</ele>
        <time>2014-04-13T08:42:06.000Z</time>
      </trkpt>
      <trkpt lat="48.90479" lon="1.08823">
        <ele>170</ele>
        <time>2014-04-13T08:42:08.000Z</time>
      </trkpt>
      <trkpt lat="48.90473" lon="1.08836">
        <ele>170</ele>
        <time>2014-04-13T08:42:10.000Z</time>
      </trkpt>
      <trkpt lat="48.90465" lon="1.08849">
        <ele>170</ele>
        <time>2014-04-13T08:42:12.000Z</time>
      </trkpt>
      <trkpt lat="48.90457" lon="1.08859">
        <ele>170</ele>
        <time>2014-04-13T08:42:14.000Z</time>
      </trkpt>
      <trkpt lat="48.90449" lon="1.08868">
        <ele>170</ele>
        <time>2014-04-13T08:42:15.000Z</time>
      </trkpt>
      <trkpt lat="48.9044" lon="1.08875">
        <ele>170</ele>
        <time>2014-04-13T08:42:18.000Z</time>
      </trkpt>
      <trkpt lat="48.90432" lon="1.08882">
        <ele>170</ele>
        <time>2014-04-13T08:42:20.000Z</time>
      </trkpt>
      <trkpt lat="48.90423" lon="1.08889">
        <ele>170</ele>
        <time>2014-04-13T08:42:22.000Z</time>
      </trkpt>
      <trkpt lat="48.90414" lon="1.08895">
        <ele>170</ele>
        <time>2014-04-13T08:42:24.000Z</time>
      </trkpt>
      <trkpt lat="48.90406" lon="1.08901">
        <ele>171</ele>
        <time>2014-04-13T08:42:25.000Z</time>
      </trkpt>
      <trkpt lat="48.90396" lon="1.08908">
        <ele>172</ele>
        <time>2014-04-13T08:42:28.000Z</time>
      </trkpt>
      <trkpt lat="48.90387" lon="1.08913">
        <ele>172</ele>
        <time>2014-04-13T08:42:30.000Z</time>
      </trkpt>
      <trkpt lat="48.90378" lon="1.08919">
        <ele>172</ele>
        <time>2014-04-13T08:42:32.000Z</time>
      </trkpt>
      <trkpt lat="48.9037" lon="1.08923">
        <ele>172</ele>
        <time>2014-04-13T08:42:34.000Z</time>
      </trkpt>
      <trkpt lat="48.90362" lon="1.08928">
        <ele>172</ele>
        <time>2014-04-13T08:42:35.000Z</time>
      </trkpt>
      <trkpt lat="48.90354" lon="1.08932">
        <ele>172</ele>
        <time>2014-04-13T08:42:38.000Z</time>
      </trkpt>
      <trkpt lat="48.90346" lon="1.08935">
        <ele>172</ele>
        <time>2014-04-13T08:42:40.000Z</time>
      </trkpt>
      <trkpt lat="48.90339" lon="1.08938">
        <ele>173</ele>
        <time>2014-04-13T08:42:42.000Z</time>
      </trkpt>
      <trkpt lat="48.9033" lon="1.08943">
        <ele>174</ele>
        <time>2014-04-13T08:42:43.000Z</time>
      </trkpt>
      <trkpt lat="48.90322" lon="1.08949">
        <ele>174</ele>
        <time>2014-04-13T08:42:46.000Z</time>
      </trkpt>
      <trkpt lat="48.90315" lon="1.08955">
        <ele>174</ele>
        <time>2014-04-13T08:42:48.000Z</time>
      </trkpt>
      <trkpt lat="48.90309" lon="1.08962">
        <ele>175</ele>
        <time>2014-04-13T08:42:50.000Z</time>
      </trkpt>
      <trkpt lat="48.90302" lon="1.0897">
        <ele>175</ele>
        <time>2014-04-13T08:42:52.000Z</time>
      </trkpt>
      <trkpt lat="48.90297" lon="1.08979">
        <ele>175</ele>
        <time>2014-04-13T08:42:53.000Z</time>
      </trkpt>
      <trkpt lat="48.90292" lon="1.08989">
        <ele>174</ele>
        <time>2014-04-13T08:42:55.000Z</time>
      </trkpt>
      <trkpt lat="48.90289" lon="1.09">
        <ele>174</ele>
        <time>2014-04-13T08:42:58.000Z</time>
      </trkpt>
      <trkpt lat="48.90284" lon="1.09012">
        <ele>174</ele>
        <time>2014-04-13T08:43:00.000Z</time>
      </trkpt>
      <trkpt lat="48.90281" lon="1.09023">
        <ele>174</ele>
        <time>2014-04-13T08:43:02.000Z</time>
      </trkpt>
      <trkpt lat="48.90277" lon="1.09036">
        <ele>173</ele>
        <time>2014-04-13T08:43:04.000Z</time>
      </trkpt>
      <trkpt lat="48.90274" lon="1.09048">
        <ele>173</ele>
        <time>2014-04-13T08:43:06.000Z</time>
      </trkpt>
      <trkpt lat="48.90269" lon="1.0906">
        <ele>173</ele>
        <time>2014-04-13T08:43:08.000Z</time>
      </trkpt>
      <trkpt lat="48.90265" lon="1.09072">
        <ele>173</ele>
        <time>2014-04-13T08:43:09.000Z</time>
      </trkpt>
      <trkpt lat="48.90259" lon="1.09084">
        <ele>172</ele>
        <time>2014-04-13T08:43:12.000Z</time>
      </trkpt>
      <trkpt lat="48.90253" lon="1.09096">
        <ele>172</ele>
        <time>2014-04-13T08:43:13.000Z</time>
      </trkpt>
      <trkpt lat="48.90248" lon="1.09106">
        <ele>172</ele>
        <time>2014-04-13T08:43:15.000Z</time>
      </trkpt>
      <trkpt lat="48.90241" lon="1.09115">
        <ele>172</ele>
        <time>2014-04-13T08:43:18.000Z</time>
      </trkpt>
      <trkpt lat="48.90235" lon="1.09125">
        <ele>172</ele>
        <time>2014-04-13T08:43:20.000Z</time>
      </trkpt>
      <trkpt lat="48.90228" lon="1.09134">
        <ele>172</ele>
        <time>2014-04-13T08:43:22.000Z</time>
      </trkpt>
      <trkpt lat="48.90221" lon="1.09142">
        <ele>172</ele>
        <time>2014-04-13T08:43:24.000Z</time>
      </trkpt>
      <trkpt lat="48.90215" lon="1.09151">
        <ele>173</ele>
        <time>2014-04-13T08:43:26.000Z</time>
      </trkpt>
      <trkpt lat="48.90209" lon="1.0916">
        <ele>173</ele>
        <time>2014-04-13T08:43:28.000Z</time>
      </trkpt>
      <trkpt lat="48.90204" lon="1.09167">
        <ele>173</ele>
        <time>2014-04-13T08:43:30.000Z</time>
      </trkpt>
      <trkpt lat="48.90204" lon="1.09167">
        <ele>173</ele>
        <time>2014-04-13T08:43:32.000Z</time>
      </trkpt>
      <trkpt lat="48.90192" lon="1.09165">
        <ele>173</ele>
        <time>2014-04-13T08:43:34.000Z</time>
      </trkpt>
      <trkpt lat="48.90185" lon="1.09163">
        <ele>174</ele>
        <time>2014-04-13T08:43:35.000Z</time>
      </trkpt>
      <trkpt lat="48.90177" lon="1.09164">
        <ele>174</ele>
        <time>2014-04-13T08:43:38.000Z</time>
      </trkpt>
      <trkpt lat="48.90168" lon="1.09166">
        <ele>174</ele>
        <time>2014-04-13T08:43:40.000Z</time>
      </trkpt>
      <trkpt lat="48.9016" lon="1.09168">
        <ele>175</ele>
        <time>2014-04-13T08:43:42.000Z</time>
      </trkpt>
      <trkpt lat="48.90154" lon="1.09165">
        <ele>175</ele>
        <time>2014-04-13T08:43:44.000Z</time>
      </trkpt>
      <trkpt lat="48.90149" lon="1.09159">
        <ele>175</ele>
        <time>2014-04-13T08:43:46.000Z</time>
      </trkpt>
      <trkpt lat="48.90145" lon="1.09151">
        <ele>175</ele>
        <time>2014-04-13T08:43:48.000Z</time>
      </trkpt>
      <trkpt lat="48.90141" lon="1.09143">
        <ele>175</ele>
        <time>2014-04-13T08:43:50.000Z</time>
      </trkpt>
      <trkpt lat="48.90139" lon="1.09134">
        <ele>175</ele>
        <time>2014-04-13T08:43:52.000Z</time>
      </trkpt>
      <trkpt lat="48.90136" lon="1.09125">
        <ele>175</ele>
        <time>2014-04-13T08:43:54.000Z</time>
      </trkpt>
      <trkpt lat="48.90133" lon="1.09116">
        <ele>175</ele>
        <time>2014-04-13T08:43:55.000Z</time>
      </trkpt>
      <trkpt lat="48.90131" lon="1.09108">
        <ele>176</ele>
        <time>2014-04-13T08:43:57.000Z</time>
      </trkpt>
      <trkpt lat="48.90129" lon="1.091">
        <ele>176</ele>
        <time>2014-04-13T08:44:00.000Z</time>
      </trkpt>
      <trkpt lat="48.90129" lon="1.091">
        <ele>176</ele>
        <time>2014-04-13T08:44:02.000Z</time>
      </trkpt>
      <trkpt lat="48.90126" lon="1.09093">
        <ele>176</ele>
        <time>2014-04-13T08:44:04.000Z</time>
      </trkpt>
      <trkpt lat="48.90124" lon="1.09086">
        <ele>176</ele>
        <time>2014-04-13T08:44:06.000Z</time>
      </trkpt>
      <trkpt lat="48.90121" lon="1.09079">
        <ele>176</ele>
        <time>2014-04-13T08:44:08.000Z</time>
      </trkpt>
      <trkpt lat="48.90119" lon="1.09072">
        <ele>176</ele>
        <time>2014-04-13T08:44:10.000Z</time>
      </trkpt>
      <trkpt lat="48.90117" lon="1.09065">
        <ele>176</ele>
        <time>2014-04-13T08:44:12.000Z</time>
      </trkpt>
      <trkpt lat="48.90113" lon="1.0905">
        <ele>176</ele>
        <time>2014-04-13T08:44:14.000Z</time>
      </trkpt>
      <trkpt lat="48.90113" lon="1.0905">
        <ele>176</ele>
        <time>2014-04-13T08:44:15.000Z</time>
      </trkpt>
      <trkpt lat="48.90113" lon="1.09036">
        <ele>176</ele>
        <time>2014-04-13T08:44:18.000Z</time>
      </trkpt>
      <trkpt lat="48.90113" lon="1.09036">
        <ele>176</ele>
        <time>2014-04-13T08:44:20.000Z</time>
      </trkpt>
      <trkpt lat="48.90116" lon="1.09024">
        <ele>177</ele>
        <time>2014-04-13T08:44:22.000Z</time>
      </trkpt>
      <trkpt lat="48.9012" lon="1.09009">
        <ele>177</ele>
        <time>2014-04-13T08:44:26.000Z</time>
      </trkpt>
      <trkpt lat="48.90122" lon="1.09001">
        <ele>177</ele>
        <time>2014-04-13T08:44:28.000Z</time>
      </trkpt>
      <trkpt lat="48.90125" lon="1.08987">
        <ele>178</ele>
        <time>2014-04-13T08:44:31.000Z</time>
      </trkpt>
      <trkpt lat="48.90125" lon="1.08987">
        <ele>178</ele>
        <time>2014-04-13T08:44:33.000Z</time>
      </trkpt>
      <trkpt lat="48.90128" lon="1.08971">
        <ele>178</ele>
        <time>2014-04-13T08:44:35.000Z</time>
      </trkpt>
      <trkpt lat="48.9013" lon="1.08957">
        <ele>179</ele>
        <time>2014-04-13T08:44:39.000Z</time>
      </trkpt>
      <trkpt lat="48.9013" lon="1.08957">
        <ele>179</ele>
        <time>2014-04-13T08:44:41.000Z</time>
      </trkpt>
      <trkpt lat="48.90132" lon="1.08942">
        <ele>179</ele>
        <time>2014-04-13T08:44:43.000Z</time>
      </trkpt>
      <trkpt lat="48.90134" lon="1.08924">
        <ele>180</ele>
        <time>2014-04-13T08:44:48.000Z</time>
      </trkpt>
      <trkpt lat="48.90135" lon="1.08913">
        <ele>180</ele>
        <time>2014-04-13T08:44:50.000Z</time>
      </trkpt>
      <trkpt lat="48.90136" lon="1.08902">
        <ele>180</ele>
        <time>2014-04-13T08:44:52.000Z</time>
      </trkpt>
      <trkpt lat="48.90137" lon="1.08892">
        <ele>180</ele>
        <time>2014-04-13T08:44:54.000Z</time>
      </trkpt>
      <trkpt lat="48.90138" lon="1.08881">
        <ele>181</ele>
        <time>2014-04-13T08:44:55.000Z</time>
      </trkpt>
      <trkpt lat="48.9014" lon="1.08872">
        <ele>181</ele>
        <time>2014-04-13T08:44:58.000Z</time>
      </trkpt>
      <trkpt lat="48.90141" lon="1.08862">
        <ele>181</ele>
        <time>2014-04-13T08:44:59.000Z</time>
      </trkpt>
      <trkpt lat="48.90143" lon="1.08853">
        <ele>181</ele>
        <time>2014-04-13T08:45:01.000Z</time>
      </trkpt>
      <trkpt lat="48.90143" lon="1.08853">
        <ele>181</ele>
        <time>2014-04-13T08:45:04.000Z</time>
      </trkpt>
      <trkpt lat="48.90146" lon="1.08837">
        <ele>181</ele>
        <time>2014-04-13T08:45:06.000Z</time>
      </trkpt>
      <trkpt lat="48.90148" lon="1.08828">
        <ele>181</ele>
        <time>2014-04-13T08:45:08.000Z</time>
      </trkpt>
      <trkpt lat="48.90152" lon="1.08819">
        <ele>182</ele>
        <time>2014-04-13T08:45:10.000Z</time>
      </trkpt>
      <trkpt lat="48.90155" lon="1.0881">
        <ele>182</ele>
        <time>2014-04-13T08:45:11.000Z</time>
      </trkpt>
      <trkpt lat="48.9016" lon="1.08797">
        <ele>182</ele>
        <time>2014-04-13T08:45:15.000Z</time>
      </trkpt>
      <trkpt lat="48.90167" lon="1.08781">
        <ele>182</ele>
        <time>2014-04-13T08:45:20.000Z</time>
      </trkpt>
      <trkpt lat="48.90171" lon="1.08769">
        <ele>182</ele>
        <time>2014-04-13T08:45:21.000Z</time>
      </trkpt>
      <trkpt lat="48.90175" lon="1.08755">
        <ele>182</ele>
        <time>2014-04-13T08:45:24.000Z</time>
      </trkpt>
      <trkpt lat="48.90177" lon="1.0874">
        <ele>182</ele>
        <time>2014-04-13T08:45:26.000Z</time>
      </trkpt>
      <trkpt lat="48.90178" lon="1.08723">
        <ele>182</ele>
        <time>2014-04-13T08:45:28.000Z</time>
      </trkpt>
      <trkpt lat="48.90179" lon="1.08706">
        <ele>181</ele>
        <time>2014-04-13T08:45:30.000Z</time>
      </trkpt>
      <trkpt lat="48.9018" lon="1.08691">
        <ele>181</ele>
        <time>2014-04-13T08:45:31.000Z</time>
      </trkpt>
      <trkpt lat="48.90182" lon="1.08678">
        <ele>180</ele>
        <time>2014-04-13T08:45:34.000Z</time>
      </trkpt>
      <trkpt lat="48.90186" lon="1.08667">
        <ele>180</ele>
        <time>2014-04-13T08:45:35.000Z</time>
      </trkpt>
      <trkpt lat="48.90189" lon="1.08656">
        <ele>180</ele>
        <time>2014-04-13T08:45:38.000Z</time>
      </trkpt>
      <trkpt lat="48.90194" lon="1.08646">
        <ele>180</ele>
        <time>2014-04-13T08:45:40.000Z</time>
      </trkpt>
      <trkpt lat="48.90198" lon="1.08637">
        <ele>180</ele>
        <time>2014-04-13T08:45:41.000Z</time>
      </trkpt>
      <trkpt lat="48.90202" lon="1.0863">
        <ele>180</ele>
        <time>2014-04-13T08:45:44.000Z</time>
      </trkpt>
      <trkpt lat="48.90207" lon="1.08622">
        <ele>180</ele>
        <time>2014-04-13T08:45:46.000Z</time>
      </trkpt>
      <trkpt lat="48.90211" lon="1.08615">
        <ele>180</ele>
        <time>2014-04-13T08:45:48.000Z</time>
      </trkpt>
      <trkpt lat="48.90217" lon="1.08608">
        <ele>180</ele>
        <time>2014-04-13T08:45:49.000Z</time>
      </trkpt>
      <trkpt lat="48.90223" lon="1.08601">
        <ele>180</ele>
        <time>2014-04-13T08:45:51.000Z</time>
      </trkpt>
      <trkpt lat="48.90228" lon="1.08594">
        <ele>181</ele>
        <time>2014-04-13T08:45:53.000Z</time>
      </trkpt>
      <trkpt lat="48.90234" lon="1.08587">
        <ele>181</ele>
        <time>2014-04-13T08:45:55.000Z</time>
      </trkpt>
      <trkpt lat="48.9024" lon="1.0858">
        <ele>181</ele>
        <time>2014-04-13T08:45:58.000Z</time>
      </trkpt>
      <trkpt lat="48.90247" lon="1.08571">
        <ele>182</ele>
        <time>2014-04-13T08:46:00.000Z</time>
      </trkpt>
      <trkpt lat="48.90254" lon="1.08562">
        <ele>182</ele>
        <time>2014-04-13T08:46:01.000Z</time>
      </trkpt>
      <trkpt lat="48.90261" lon="1.08552">
        <ele>182</ele>
        <time>2014-04-13T08:46:03.000Z</time>
      </trkpt>
      <trkpt lat="48.90269" lon="1.08539">
        <ele>182</ele>
        <time>2014-04-13T08:46:05.000Z</time>
      </trkpt>
      <trkpt lat="48.90276" lon="1.08526">
        <ele>182</ele>
        <time>2014-04-13T08:46:07.000Z</time>
      </trkpt>
      <trkpt lat="48.9028" lon="1.08514">
        <ele>181</ele>
        <time>2014-04-13T08:46:10.000Z</time>
      </trkpt>
      <trkpt lat="48.90285" lon="1.085">
        <ele>181</ele>
        <time>2014-04-13T08:46:11.000Z</time>
      </trkpt>
      <trkpt lat="48.90287" lon="1.08487">
        <ele>182</ele>
        <time>2014-04-13T08:46:13.000Z</time>
      </trkpt>
      <trkpt lat="48.90288" lon="1.08475">
        <ele>182</ele>
        <time>2014-04-13T08:46:15.000Z</time>
      </trkpt>
      <trkpt lat="48.90289" lon="1.08461">
        <ele>182</ele>
        <time>2014-04-13T08:46:17.000Z</time>
      </trkpt>
      <trkpt lat="48.90289" lon="1.08446">
        <ele>184</ele>
        <time>2014-04-13T08:46:20.000Z</time>
      </trkpt>
      <trkpt lat="48.90289" lon="1.08429">
        <ele>186</ele>
        <time>2014-04-13T08:46:21.000Z</time>
      </trkpt>
      <trkpt lat="48.90287" lon="1.08413">
        <ele>187</ele>
        <time>2014-04-13T08:46:23.000Z</time>
      </trkpt>
      <trkpt lat="48.90285" lon="1.08391">
        <ele>189</ele>
        <time>2014-04-13T08:46:25.000Z</time>
      </trkpt>
      <trkpt lat="48.90281" lon="1.08368">
        <ele>190</ele>
        <time>2014-04-13T08:46:27.000Z</time>
      </trkpt>
      <trkpt lat="48.90277" lon="1.08348">
        <ele>189</ele>
        <time>2014-04-13T08:46:29.000Z</time>
      </trkpt>
      <trkpt lat="48.90276" lon="1.08325">
        <ele>188</ele>
        <time>2014-04-13T08:46:31.000Z</time>
      </trkpt>
      <trkpt lat="48.90276" lon="1.08299">
        <ele>187</ele>
        <time>2014-04-13T08:46:33.000Z</time>
      </trkpt>
      <trkpt lat="48.90276" lon="1.08274">
        <ele>186</ele>
        <time>2014-04-13T08:46:35.000Z</time>
      </trkpt>
      <trkpt lat="48.90276" lon="1.0825">
        <ele>184</ele>
        <time>2014-04-13T08:46:38.000Z</time>
      </trkpt>
      <trkpt lat="48.90277" lon="1.08229">
        <ele>183</ele>
        <time>2014-04-13T08:46:40.000Z</time>
      </trkpt>
      <trkpt lat="48.90275" lon="1.08212">
        <ele>182</ele>
        <time>2014-04-13T08:46:41.000Z</time>
      </trkpt>
      <trkpt lat="48.90265" lon="1.082">
        <ele>181</ele>
        <time>2014-04-13T08:46:43.000Z</time>
      </trkpt>
      <trkpt lat="48.90253" lon="1.08196">
        <ele>181</ele>
        <time>2014-04-13T08:46:45.000Z</time>
      </trkpt>
      <trkpt lat="48.9024" lon="1.08199">
        <ele>180</ele>
        <time>2014-04-13T08:46:48.000Z</time>
      </trkpt>
      <trkpt lat="48.90228" lon="1.08205">
        <ele>178</ele>
        <time>2014-04-13T08:46:49.000Z</time>
      </trkpt>
      <trkpt lat="48.90218" lon="1.08211">
        <ele>176</ele>
        <time>2014-04-13T08:46:51.000Z</time>
      </trkpt>
      <trkpt lat="48.9021" lon="1.08219">
        <ele>175</ele>
        <time>2014-04-13T08:46:53.000Z</time>
      </trkpt>
      <trkpt lat="48.90202" lon="1.08227">
        <ele>175</ele>
        <time>2014-04-13T08:46:55.000Z</time>
      </trkpt>
      <trkpt lat="48.90195" lon="1.08235">
        <ele>175</ele>
        <time>2014-04-13T08:46:57.000Z</time>
      </trkpt>
      <trkpt lat="48.90188" lon="1.08243">
        <ele>175</ele>
        <time>2014-04-13T08:47:00.000Z</time>
      </trkpt>
      <trkpt lat="48.90182" lon="1.08251">
        <ele>175</ele>
        <time>2014-04-13T08:47:01.000Z</time>
      </trkpt>
      <trkpt lat="48.90176" lon="1.08259">
        <ele>175</ele>
        <time>2014-04-13T08:47:03.000Z</time>
      </trkpt>
      <trkpt lat="48.9017" lon="1.08266">
        <ele>176</ele>
        <time>2014-04-13T08:47:05.000Z</time>
      </trkpt>
      <trkpt lat="48.90164" lon="1.08274">
        <ele>176</ele>
        <time>2014-04-13T08:47:08.000Z</time>
      </trkpt>
      <trkpt lat="48.90157" lon="1.08283">
        <ele>176</ele>
        <time>2014-04-13T08:47:09.000Z</time>
      </trkpt>
      <trkpt lat="48.90151" lon="1.0829">
        <ele>176</ele>
        <time>2014-04-13T08:47:11.000Z</time>
      </trkpt>
      <trkpt lat="48.90144" lon="1.08299">
        <ele>177</ele>
        <time>2014-04-13T08:47:14.000Z</time>
      </trkpt>
      <trkpt lat="48.90137" lon="1.08308">
        <ele>177</ele>
        <time>2014-04-13T08:47:15.000Z</time>
      </trkpt>
      <trkpt lat="48.90131" lon="1.08316">
        <ele>177</ele>
        <time>2014-04-13T08:47:17.000Z</time>
      </trkpt>
      <trkpt lat="48.90126" lon="1.08322">
        <ele>178</ele>
        <time>2014-04-13T08:47:19.000Z</time>
      </trkpt>
      <trkpt lat="48.9012" lon="1.08328">
        <ele>178</ele>
        <time>2014-04-13T08:47:21.000Z</time>
      </trkpt>
      <trkpt lat="48.90115" lon="1.08334">
        <ele>178</ele>
        <time>2014-04-13T08:47:23.000Z</time>
      </trkpt>
      <trkpt lat="48.90109" lon="1.08341">
        <ele>178</ele>
        <time>2014-04-13T08:47:26.000Z</time>
      </trkpt>
      <trkpt lat="48.90102" lon="1.08348">
        <ele>178</ele>
        <time>2014-04-13T08:47:28.000Z</time>
      </trkpt>
      <trkpt lat="48.90096" lon="1.08354">
        <ele>178</ele>
        <time>2014-04-13T08:47:30.000Z</time>
      </trkpt>
      <trkpt lat="48.9009" lon="1.0836">
        <ele>178</ele>
        <time>2014-04-13T08:47:32.000Z</time>
      </trkpt>
      <trkpt lat="48.90083" lon="1.08367">
        <ele>179</ele>
        <time>2014-04-13T08:47:33.000Z</time>
      </trkpt>
      <trkpt lat="48.90077" lon="1.08373">
        <ele>179</ele>
        <time>2014-04-13T08:47:35.000Z</time>
      </trkpt>
      <trkpt lat="48.90069" lon="1.08381">
        <ele>179</ele>
        <time>2014-04-13T08:47:38.000Z</time>
      </trkpt>
      <trkpt lat="48.90061" lon="1.08389">
        <ele>179</ele>
        <time>2014-04-13T08:47:40.000Z</time>
      </trkpt>
      <trkpt lat="48.90053" lon="1.08396">
        <ele>179</ele>
        <time>2014-04-13T08:47:42.000Z</time>
      </trkpt>
      <trkpt lat="48.90045" lon="1.08404">
        <ele>180</ele>
        <time>2014-04-13T08:47:43.000Z</time>
      </trkpt>
      <trkpt lat="48.90038" lon="1.08411">
        <ele>180</ele>
        <time>2014-04-13T08:47:46.000Z</time>
      </trkpt>
      <trkpt lat="48.9003" lon="1.08418">
        <ele>181</ele>
        <time>2014-04-13T08:47:48.000Z</time>
      </trkpt>
      <trkpt lat="48.90022" lon="1.08425">
        <ele>181</ele>
        <time>2014-04-13T08:47:50.000Z</time>
      </trkpt>
      <trkpt lat="48.90014" lon="1.08432">
        <ele>182</ele>
        <time>2014-04-13T08:47:52.000Z</time>
      </trkpt>
      <trkpt lat="48.90008" lon="1.08438">
        <ele>182</ele>
        <time>2014-04-13T08:47:53.000Z</time>
      </trkpt>
      <trkpt lat="48.90001" lon="1.08445">
        <ele>182</ele>
        <time>2014-04-13T08:47:55.000Z</time>
      </trkpt>
      <trkpt lat="48.89994" lon="1.08451">
        <ele>182</ele>
        <time>2014-04-13T08:47:58.000Z</time>
      </trkpt>
      <trkpt lat="48.89987" lon="1.08457">
        <ele>183</ele>
        <time>2014-04-13T08:48:00.000Z</time>
      </trkpt>
      <trkpt lat="48.8998" lon="1.08463">
        <ele>183</ele>
        <time>2014-04-13T08:48:02.000Z</time>
      </trkpt>
      <trkpt lat="48.89974" lon="1.08469">
        <ele>183</ele>
        <time>2014-04-13T08:48:03.000Z</time>
      </trkpt>
      <trkpt lat="48.89968" lon="1.08474">
        <ele>183</ele>
        <time>2014-04-13T08:48:06.000Z</time>
      </trkpt>
      <trkpt lat="48.89962" lon="1.0848">
        <ele>183</ele>
        <time>2014-04-13T08:48:08.000Z</time>
      </trkpt>
      <trkpt lat="48.89956" lon="1.08486">
        <ele>183</ele>
        <time>2014-04-13T08:48:10.000Z</time>
      </trkpt>
      <trkpt lat="48.89949" lon="1.08491">
        <ele>183</ele>
        <time>2014-04-13T08:48:12.000Z</time>
      </trkpt>
      <trkpt lat="48.89943" lon="1.08495">
        <ele>183</ele>
        <time>2014-04-13T08:48:14.000Z</time>
      </trkpt>
      <trkpt lat="48.89938" lon="1.08499">
        <ele>183</ele>
        <time>2014-04-13T08:48:15.000Z</time>
      </trkpt>
      <trkpt lat="48.89933" lon="1.08504">
        <ele>184</ele>
        <time>2014-04-13T08:48:18.000Z</time>
      </trkpt>
      <trkpt lat="48.89927" lon="1.08509">
        <ele>184</ele>
        <time>2014-04-13T08:48:19.000Z</time>
      </trkpt>
      <trkpt lat="48.89921" lon="1.08514">
        <ele>184</ele>
        <time>2014-04-13T08:48:21.000Z</time>
      </trkpt>
      <trkpt lat="48.89915" lon="1.0852">
        <ele>184</ele>
        <time>2014-04-13T08:48:23.000Z</time>
      </trkpt>
      <trkpt lat="48.89909" lon="1.08525">
        <ele>184</ele>
        <time>2014-04-13T08:48:26.000Z</time>
      </trkpt>
      <trkpt lat="48.89903" lon="1.0853">
        <ele>184</ele>
        <time>2014-04-13T08:48:28.000Z</time>
      </trkpt>
      <trkpt lat="48.89896" lon="1.08536">
        <ele>184</ele>
        <time>2014-04-13T08:48:30.000Z</time>
      </trkpt>
      <trkpt lat="48.89889" lon="1.08542">
        <ele>184</ele>
        <time>2014-04-13T08:48:32.000Z</time>
      </trkpt>
      <trkpt lat="48.89881" lon="1.08548">
        <ele>185</ele>
        <time>2014-04-13T08:48:34.000Z</time>
      </trkpt>
      <trkpt lat="48.89874" lon="1.08555">
        <ele>185</ele>
        <time>2014-04-13T08:48:35.000Z</time>
      </trkpt>
      <trkpt lat="48.89866" lon="1.08562">
        <ele>185</ele>
        <time>2014-04-13T08:48:38.000Z</time>
      </trkpt>
      <trkpt lat="48.89859" lon="1.08568">
        <ele>186</ele>
        <time>2014-04-13T08:48:40.000Z</time>
      </trkpt>
      <trkpt lat="48.89852" lon="1.08573">
        <ele>185</ele>
        <time>2014-04-13T08:48:42.000Z</time>
      </trkpt>
      <trkpt lat="48.89845" lon="1.0858">
        <ele>185</ele>
        <time>2014-04-13T08:48:44.000Z</time>
      </trkpt>
      <trkpt lat="48.89838" lon="1.08586">
        <ele>185</ele>
        <time>2014-04-13T08:48:46.000Z</time>
      </trkpt>
      <trkpt lat="48.89832" lon="1.08591">
        <ele>185</ele>
        <time>2014-04-13T08:48:48.000Z</time>
      </trkpt>
      <trkpt lat="48.89825" lon="1.08597">
        <ele>185</ele>
        <time>2014-04-13T08:48:50.000Z</time>
      </trkpt>
      <trkpt lat="48.89819" lon="1.08602">
        <ele>185</ele>
        <time>2014-04-13T08:48:52.000Z</time>
      </trkpt>
      <trkpt lat="48.89813" lon="1.08607">
        <ele>185</ele>
        <time>2014-04-13T08:48:54.000Z</time>
      </trkpt>
      <trkpt lat="48.89813" lon="1.08607">
        <ele>185</ele>
        <time>2014-04-13T08:48:55.000Z</time>
      </trkpt>
      <trkpt lat="48.89804" lon="1.08615">
        <ele>185</ele>
        <time>2014-04-13T08:48:58.000Z</time>
      </trkpt>
      <trkpt lat="48.89804" lon="1.08615">
        <ele>185</ele>
        <time>2014-04-13T08:49:00.000Z</time>
      </trkpt>
      <trkpt lat="48.89793" lon="1.08622">
        <ele>186</ele>
        <time>2014-04-13T08:49:02.000Z</time>
      </trkpt>
      <trkpt lat="48.89793" lon="1.08622">
        <ele>186</ele>
        <time>2014-04-13T08:49:03.000Z</time>
      </trkpt>
      <trkpt lat="48.89783" lon="1.08628">
        <ele>186</ele>
        <time>2014-04-13T08:49:05.000Z</time>
      </trkpt>
      <trkpt lat="48.89777" lon="1.08631">
        <ele>186</ele>
        <time>2014-04-13T08:49:08.000Z</time>
      </trkpt>
      <trkpt lat="48.89772" lon="1.08633">
        <ele>186</ele>
        <time>2014-04-13T08:49:10.000Z</time>
      </trkpt>
      <trkpt lat="48.89772" lon="1.08633">
        <ele>186</ele>
        <time>2014-04-13T08:49:12.000Z</time>
      </trkpt>
      <trkpt lat="48.89761" lon="1.08639">
        <ele>187</ele>
        <time>2014-04-13T08:49:14.000Z</time>
      </trkpt>
      <trkpt lat="48.89755" lon="1.08641">
        <ele>187</ele>
        <time>2014-04-13T08:49:15.000Z</time>
      </trkpt>
      <trkpt lat="48.89749" lon="1.08643">
        <ele>187</ele>
        <time>2014-04-13T08:49:18.000Z</time>
      </trkpt>
      <trkpt lat="48.89738" lon="1.08645">
        <ele>188</ele>
        <time>2014-04-13T08:49:21.000Z</time>
      </trkpt>
      <trkpt lat="48.89731" lon="1.08647">
        <ele>188</ele>
        <time>2014-04-13T08:49:24.000Z</time>
      </trkpt>
      <trkpt lat="48.89723" lon="1.08649">
        <ele>188</ele>
        <time>2014-04-13T08:49:26.000Z</time>
      </trkpt>
      <trkpt lat="48.89716" lon="1.08651">
        <ele>189</ele>
        <time>2014-04-13T08:49:28.000Z</time>
      </trkpt>
      <trkpt lat="48.89716" lon="1.08651">
        <ele>189</ele>
        <time>2014-04-13T08:49:30.000Z</time>
      </trkpt>
      <trkpt lat="48.89706" lon="1.08653">
        <ele>189</ele>
        <time>2014-04-13T08:49:32.000Z</time>
      </trkpt>
      <trkpt lat="48.89706" lon="1.08653">
        <ele>189</ele>
        <time>2014-04-13T08:49:34.000Z</time>
      </trkpt>
      <trkpt lat="48.89695" lon="1.08654">
        <ele>190</ele>
        <time>2014-04-13T08:49:36.000Z</time>
      </trkpt>
      <trkpt lat="48.89687" lon="1.08656">
        <ele>191</ele>
        <time>2014-04-13T08:49:38.000Z</time>
      </trkpt>
      <trkpt lat="48.8968" lon="1.08657">
        <ele>191</ele>
        <time>2014-04-13T08:49:40.000Z</time>
      </trkpt>
      <trkpt lat="48.89672" lon="1.08658">
        <ele>192</ele>
        <time>2014-04-13T08:49:41.000Z</time>
      </trkpt>
      <trkpt lat="48.89664" lon="1.08659">
        <ele>192</ele>
        <time>2014-04-13T08:49:43.000Z</time>
      </trkpt>
      <trkpt lat="48.89656" lon="1.08659">
        <ele>192</ele>
        <time>2014-04-13T08:49:45.000Z</time>
      </trkpt>
      <trkpt lat="48.89649" lon="1.08659">
        <ele>192</ele>
        <time>2014-04-13T08:49:48.000Z</time>
      </trkpt>
      <trkpt lat="48.89641" lon="1.08659">
        <ele>192</ele>
        <time>2014-04-13T08:49:50.000Z</time>
      </trkpt>
      <trkpt lat="48.89632" lon="1.08658">
        <ele>193</ele>
        <time>2014-04-13T08:49:51.000Z</time>
      </trkpt>
      <trkpt lat="48.89624" lon="1.08656">
        <ele>193</ele>
        <time>2014-04-13T08:49:54.000Z</time>
      </trkpt>
      <trkpt lat="48.89617" lon="1.08657">
        <ele>193</ele>
        <time>2014-04-13T08:49:55.000Z</time>
      </trkpt>
      <trkpt lat="48.89608" lon="1.08658">
        <ele>193</ele>
        <time>2014-04-13T08:49:58.000Z</time>
      </trkpt>
      <trkpt lat="48.89597" lon="1.0866">
        <ele>193</ele>
        <time>2014-04-13T08:49:59.000Z</time>
      </trkpt>
      <trkpt lat="48.89587" lon="1.08661">
        <ele>193</ele>
        <time>2014-04-13T08:50:01.000Z</time>
      </trkpt>
      <trkpt lat="48.89578" lon="1.08663">
        <ele>193</ele>
        <time>2014-04-13T08:50:04.000Z</time>
      </trkpt>
      <trkpt lat="48.89569" lon="1.08666">
        <ele>193</ele>
        <time>2014-04-13T08:50:06.000Z</time>
      </trkpt>
      <trkpt lat="48.89561" lon="1.08667">
        <ele>193</ele>
        <time>2014-04-13T08:50:08.000Z</time>
      </trkpt>
      <trkpt lat="48.89553" lon="1.08668">
        <ele>193</ele>
        <time>2014-04-13T08:50:10.000Z</time>
      </trkpt>
      <trkpt lat="48.89545" lon="1.08668">
        <ele>193</ele>
        <time>2014-04-13T08:50:11.000Z</time>
      </trkpt>
      <trkpt lat="48.89537" lon="1.08669">
        <ele>192</ele>
        <time>2014-04-13T08:50:14.000Z</time>
      </trkpt>
      <trkpt lat="48.89531" lon="1.08666">
        <ele>192</ele>
        <time>2014-04-13T08:50:17.000Z</time>
      </trkpt>
      <trkpt lat="48.89531" lon="1.08666">
        <ele>192</ele>
        <time>2014-04-13T08:50:19.000Z</time>
      </trkpt>
      <trkpt lat="48.89526" lon="1.08655">
        <ele>192</ele>
        <time>2014-04-13T08:50:19.000Z</time>
      </trkpt>
      <trkpt lat="48.89529" lon="1.08632">
        <ele>192</ele>
        <time>2014-04-13T08:50:23.000Z</time>
      </trkpt>
      <trkpt lat="48.89529" lon="1.08617">
        <ele>193</ele>
        <time>2014-04-13T08:50:24.000Z</time>
      </trkpt>
      <trkpt lat="48.89528" lon="1.08601">
        <ele>193</ele>
        <time>2014-04-13T08:50:27.000Z</time>
      </trkpt>
      <trkpt lat="48.89526" lon="1.08586">
        <ele>194</ele>
        <time>2014-04-13T08:50:28.000Z</time>
      </trkpt>
      <trkpt lat="48.89523" lon="1.08573">
        <ele>194</ele>
        <time>2014-04-13T08:50:31.000Z</time>
      </trkpt>
      <trkpt lat="48.8952" lon="1.08558">
        <ele>194</ele>
        <time>2014-04-13T08:50:33.000Z</time>
      </trkpt>
      <trkpt lat="48.89515" lon="1.08544">
        <ele>194</ele>
        <time>2014-04-13T08:50:34.000Z</time>
      </trkpt>
      <trkpt lat="48.8951" lon="1.08531">
        <ele>193</ele>
        <time>2014-04-13T08:50:36.000Z</time>
      </trkpt>
      <trkpt lat="48.89504" lon="1.08518">
        <ele>192</ele>
        <time>2014-04-13T08:50:39.000Z</time>
      </trkpt>
      <trkpt lat="48.89499" lon="1.08507">
        <ele>193</ele>
        <time>2014-04-13T08:50:40.000Z</time>
      </trkpt>
      <trkpt lat="48.89495" lon="1.08495">
        <ele>194</ele>
        <time>2014-04-13T08:50:43.000Z</time>
      </trkpt>
      <trkpt lat="48.89492" lon="1.0848">
        <ele>196</ele>
        <time>2014-04-13T08:50:44.000Z</time>
      </trkpt>
      <trkpt lat="48.89489" lon="1.08462">
        <ele>198</ele>
        <time>2014-04-13T08:50:47.000Z</time>
      </trkpt>
      <trkpt lat="48.89484" lon="1.08421">
        <ele>198</ele>
        <time>2014-04-13T08:50:50.000Z</time>
      </trkpt>
      <trkpt lat="48.89481" lon="1.08395">
        <ele>197</ele>
        <time>2014-04-13T08:50:52.000Z</time>
      </trkpt>
      <trkpt lat="48.89477" lon="1.08368">
        <ele>196</ele>
        <time>2014-04-13T08:50:54.000Z</time>
      </trkpt>
      <trkpt lat="48.89468" lon="1.08342">
        <ele>194</ele>
        <time>2014-04-13T08:50:55.000Z</time>
      </trkpt>
      <trkpt lat="48.89457" lon="1.08315">
        <ele>192</ele>
        <time>2014-04-13T08:50:58.000Z</time>
      </trkpt>
      <trkpt lat="48.89445" lon="1.08291">
        <ele>189</ele>
        <time>2014-04-13T08:50:59.000Z</time>
      </trkpt>
      <trkpt lat="48.89433" lon="1.08269">
        <ele>187</ele>
        <time>2014-04-13T08:51:02.000Z</time>
      </trkpt>
      <trkpt lat="48.89421" lon="1.08249">
        <ele>185</ele>
        <time>2014-04-13T08:51:03.000Z</time>
      </trkpt>
      <trkpt lat="48.89414" lon="1.08235">
        <ele>184</ele>
        <time>2014-04-13T08:51:06.000Z</time>
      </trkpt>
      <trkpt lat="48.89409" lon="1.08223">
        <ele>183</ele>
        <time>2014-04-13T08:51:08.000Z</time>
      </trkpt>
      <trkpt lat="48.89404" lon="1.08214">
        <ele>183</ele>
        <time>2014-04-13T08:51:10.000Z</time>
      </trkpt>
      <trkpt lat="48.89396" lon="1.08214">
        <ele>182</ele>
        <time>2014-04-13T08:51:12.000Z</time>
      </trkpt>
      <trkpt lat="48.89386" lon="1.0822">
        <ele>182</ele>
        <time>2014-04-13T08:51:13.000Z</time>
      </trkpt>
      <trkpt lat="48.89376" lon="1.08229">
        <ele>181</ele>
        <time>2014-04-13T08:51:15.000Z</time>
      </trkpt>
      <trkpt lat="48.89365" lon="1.08236">
        <ele>181</ele>
        <time>2014-04-13T08:51:18.000Z</time>
      </trkpt>
      <trkpt lat="48.89354" lon="1.08243">
        <ele>180</ele>
        <time>2014-04-13T08:51:20.000Z</time>
      </trkpt>
      <trkpt lat="48.89342" lon="1.08249">
        <ele>181</ele>
        <time>2014-04-13T08:51:22.000Z</time>
      </trkpt>
      <trkpt lat="48.8933" lon="1.08254">
        <ele>181</ele>
        <time>2014-04-13T08:51:24.000Z</time>
      </trkpt>
      <trkpt lat="48.89317" lon="1.08258">
        <ele>181</ele>
        <time>2014-04-13T08:51:26.000Z</time>
      </trkpt>
      <trkpt lat="48.89305" lon="1.08263">
        <ele>181</ele>
        <time>2014-04-13T08:51:28.000Z</time>
      </trkpt>
      <trkpt lat="48.89293" lon="1.08267">
        <ele>181</ele>
        <time>2014-04-13T08:51:30.000Z</time>
      </trkpt>
      <trkpt lat="48.8928" lon="1.08271">
        <ele>180</ele>
        <time>2014-04-13T08:51:32.000Z</time>
      </trkpt>
      <trkpt lat="48.89268" lon="1.08276">
        <ele>180</ele>
        <time>2014-04-13T08:51:34.000Z</time>
      </trkpt>
      <trkpt lat="48.89257" lon="1.08282">
        <ele>179</ele>
        <time>2014-04-13T08:51:35.000Z</time>
      </trkpt>
      <trkpt lat="48.89246" lon="1.08289">
        <ele>179</ele>
        <time>2014-04-13T08:51:37.000Z</time>
      </trkpt>
      <trkpt lat="48.89235" lon="1.08298">
        <ele>179</ele>
        <time>2014-04-13T08:51:40.000Z</time>
      </trkpt>
      <trkpt lat="48.89225" lon="1.08308">
        <ele>179</ele>
        <time>2014-04-13T08:51:42.000Z</time>
      </trkpt>
      <trkpt lat="48.89217" lon="1.08317">
        <ele>180</ele>
        <time>2014-04-13T08:51:43.000Z</time>
      </trkpt>
      <trkpt lat="48.89209" lon="1.08328">
        <ele>180</ele>
        <time>2014-04-13T08:51:46.000Z</time>
      </trkpt>
      <trkpt lat="48.892" lon="1.0834">
        <ele>181</ele>
        <time>2014-04-13T08:51:48.000Z</time>
      </trkpt>
      <trkpt lat="48.89192" lon="1.08351">
        <ele>182</ele>
        <time>2014-04-13T08:51:50.000Z</time>
      </trkpt>
      <trkpt lat="48.89184" lon="1.08361">
        <ele>182</ele>
        <time>2014-04-13T08:51:52.000Z</time>
      </trkpt>
      <trkpt lat="48.89176" lon="1.08372">
        <ele>183</ele>
        <time>2014-04-13T08:51:54.000Z</time>
      </trkpt>
      <trkpt lat="48.89168" lon="1.08383">
        <ele>182</ele>
        <time>2014-04-13T08:51:55.000Z</time>
      </trkpt>
      <trkpt lat="48.89161" lon="1.08394">
        <ele>183</ele>
        <time>2014-04-13T08:51:58.000Z</time>
      </trkpt>
      <trkpt lat="48.89154" lon="1.08406">
        <ele>183</ele>
        <time>2014-04-13T08:52:00.000Z</time>
      </trkpt>
      <trkpt lat="48.89146" lon="1.08418">
        <ele>183</ele>
        <time>2014-04-13T08:52:01.000Z</time>
      </trkpt>
      <trkpt lat="48.8914" lon="1.08431">
        <ele>184</ele>
        <time>2014-04-13T08:52:04.000Z</time>
      </trkpt>
      <trkpt lat="48.89132" lon="1.08443">
        <ele>184</ele>
        <time>2014-04-13T08:52:06.000Z</time>
      </trkpt>
      <trkpt lat="48.89126" lon="1.08455">
        <ele>185</ele>
        <time>2014-04-13T08:52:08.000Z</time>
      </trkpt>
      <trkpt lat="48.89119" lon="1.08467">
        <ele>186</ele>
        <time>2014-04-13T08:52:10.000Z</time>
      </trkpt>
      <trkpt lat="48.89112" lon="1.0848">
        <ele>186</ele>
        <time>2014-04-13T08:52:12.000Z</time>
      </trkpt>
      <trkpt lat="48.89107" lon="1.08492">
        <ele>185</ele>
        <time>2014-04-13T08:52:13.000Z</time>
      </trkpt>
      <trkpt lat="48.89103" lon="1.08503">
        <ele>185</ele>
        <time>2014-04-13T08:52:15.000Z</time>
      </trkpt>
      <trkpt lat="48.89098" lon="1.08513">
        <ele>185</ele>
        <time>2014-04-13T08:52:18.000Z</time>
      </trkpt>
      <trkpt lat="48.89093" lon="1.08524">
        <ele>185</ele>
        <time>2014-04-13T08:52:20.000Z</time>
      </trkpt>
      <trkpt lat="48.89088" lon="1.08536">
        <ele>185</ele>
        <time>2014-04-13T08:52:22.000Z</time>
      </trkpt>
      <trkpt lat="48.89083" lon="1.08545">
        <ele>186</ele>
        <time>2014-04-13T08:52:24.000Z</time>
      </trkpt>
      <trkpt lat="48.89079" lon="1.08555">
        <ele>186</ele>
        <time>2014-04-13T08:52:26.000Z</time>
      </trkpt>
      <trkpt lat="48.89074" lon="1.08565">
        <ele>186</ele>
        <time>2014-04-13T08:52:28.000Z</time>
      </trkpt>
      <trkpt lat="48.89068" lon="1.08577">
        <ele>186</ele>
        <time>2014-04-13T08:52:30.000Z</time>
      </trkpt>
      <trkpt lat="48.89063" lon="1.08587">
        <ele>186</ele>
        <time>2014-04-13T08:52:32.000Z</time>
      </trkpt>
      <trkpt lat="48.89056" lon="1.08598">
        <ele>186</ele>
        <time>2014-04-13T08:52:34.000Z</time>
      </trkpt>
      <trkpt lat="48.8905" lon="1.0861">
        <ele>186</ele>
        <time>2014-04-13T08:52:35.000Z</time>
      </trkpt>
      <trkpt lat="48.89042" lon="1.08622">
        <ele>186</ele>
        <time>2014-04-13T08:52:38.000Z</time>
      </trkpt>
      <trkpt lat="48.89035" lon="1.08633">
        <ele>185</ele>
        <time>2014-04-13T08:52:40.000Z</time>
      </trkpt>
      <trkpt lat="48.89029" lon="1.08644">
        <ele>185</ele>
        <time>2014-04-13T08:52:42.000Z</time>
      </trkpt>
      <trkpt lat="48.89022" lon="1.08654">
        <ele>185</ele>
        <time>2014-04-13T08:52:44.000Z</time>
      </trkpt>
      <trkpt lat="48.89014" lon="1.08665">
        <ele>185</ele>
        <time>2014-04-13T08:52:46.000Z</time>
      </trkpt>
      <trkpt lat="48.89007" lon="1.08675">
        <ele>185</ele>
        <time>2014-04-13T08:52:48.000Z</time>
      </trkpt>
      <trkpt lat="48.89" lon="1.08686">
        <ele>186</ele>
        <time>2014-04-13T08:52:50.000Z</time>
      </trkpt>
      <trkpt lat="48.88993" lon="1.08696">
        <ele>187</ele>
        <time>2014-04-13T08:52:51.000Z</time>
      </trkpt>
      <trkpt lat="48.88986" lon="1.08706">
        <ele>189</ele>
        <time>2014-04-13T08:52:54.000Z</time>
      </trkpt>
      <trkpt lat="48.8898" lon="1.08714">
        <ele>190</ele>
        <time>2014-04-13T08:52:55.000Z</time>
      </trkpt>
      <trkpt lat="48.88973" lon="1.08723">
        <ele>191</ele>
        <time>2014-04-13T08:52:58.000Z</time>
      </trkpt>
      <trkpt lat="48.88966" lon="1.08733">
        <ele>191</ele>
        <time>2014-04-13T08:53:00.000Z</time>
      </trkpt>
      <trkpt lat="48.88959" lon="1.08743">
        <ele>191</ele>
        <time>2014-04-13T08:53:02.000Z</time>
      </trkpt>
      <trkpt lat="48.88951" lon="1.08755">
        <ele>191</ele>
        <time>2014-04-13T08:53:04.000Z</time>
      </trkpt>
      <trkpt lat="48.88944" lon="1.08766">
        <ele>190</ele>
        <time>2014-04-13T08:53:06.000Z</time>
      </trkpt>
      <trkpt lat="48.88938" lon="1.08776">
        <ele>190</ele>
        <time>2014-04-13T08:53:08.000Z</time>
      </trkpt>
      <trkpt lat="48.88932" lon="1.08785">
        <ele>190</ele>
        <time>2014-04-13T08:53:10.000Z</time>
      </trkpt>
      <trkpt lat="48.88926" lon="1.08795">
        <ele>190</ele>
        <time>2014-04-13T08:53:12.000Z</time>
      </trkpt>
      <trkpt lat="48.88919" lon="1.08805">
        <ele>191</ele>
        <time>2014-04-13T08:53:13.000Z</time>
      </trkpt>
      <trkpt lat="48.88911" lon="1.08815">
        <ele>192</ele>
        <time>2014-04-13T08:53:15.000Z</time>
      </trkpt>
      <trkpt lat="48.88903" lon="1.08826">
        <ele>193</ele>
        <time>2014-04-13T08:53:18.000Z</time>
      </trkpt>
      <trkpt lat="48.88897" lon="1.08836">
        <ele>193</ele>
        <time>2014-04-13T08:53:20.000Z</time>
      </trkpt>
      <trkpt lat="48.88889" lon="1.08848">
        <ele>194</ele>
        <time>2014-04-13T08:53:22.000Z</time>
      </trkpt>
      <trkpt lat="48.88881" lon="1.08861">
        <ele>194</ele>
        <time>2014-04-13T08:53:24.000Z</time>
      </trkpt>
      <trkpt lat="48.88874" lon="1.08871">
        <ele>195</ele>
        <time>2014-04-13T08:53:26.000Z</time>
      </trkpt>
      <trkpt lat="48.88866" lon="1.08882">
        <ele>196</ele>
        <time>2014-04-13T08:53:28.000Z</time>
      </trkpt>
      <trkpt lat="48.88859" lon="1.08892">
        <ele>196</ele>
        <time>2014-04-13T08:53:30.000Z</time>
      </trkpt>
      <trkpt lat="48.88851" lon="1.08904">
        <ele>197</ele>
        <time>2014-04-13T08:53:32.000Z</time>
      </trkpt>
      <trkpt lat="48.88843" lon="1.08917">
        <ele>199</ele>
        <time>2014-04-13T08:53:34.000Z</time>
      </trkpt>
      <trkpt lat="48.88836" lon="1.08928">
        <ele>199</ele>
        <time>2014-04-13T08:53:35.000Z</time>
      </trkpt>
      <trkpt lat="48.88829" lon="1.0894">
        <ele>200</ele>
        <time>2014-04-13T08:53:38.000Z</time>
      </trkpt>
      <trkpt lat="48.88822" lon="1.08951">
        <ele>200</ele>
        <time>2014-04-13T08:53:40.000Z</time>
      </trkpt>
      <trkpt lat="48.88814" lon="1.08963">
        <ele>200</ele>
        <time>2014-04-13T08:53:42.000Z</time>
      </trkpt>
      <trkpt lat="48.88807" lon="1.08974">
        <ele>200</ele>
        <time>2014-04-13T08:53:44.000Z</time>
      </trkpt>
      <trkpt lat="48.888" lon="1.08985">
        <ele>200</ele>
        <time>2014-04-13T08:53:46.000Z</time>
      </trkpt>
      <trkpt lat="48.88794" lon="1.08994">
        <ele>200</ele>
        <time>2014-04-13T08:53:48.000Z</time>
      </trkpt>
      <trkpt lat="48.88788" lon="1.09003">
        <ele>200</ele>
        <time>2014-04-13T08:53:50.000Z</time>
      </trkpt>
      <trkpt lat="48.8878" lon="1.09015">
        <ele>200</ele>
        <time>2014-04-13T08:53:52.000Z</time>
      </trkpt>
      <trkpt lat="48.88773" lon="1.09026">
        <ele>201</ele>
        <time>2014-04-13T08:53:54.000Z</time>
      </trkpt>
      <trkpt lat="48.88766" lon="1.09037">
        <ele>200</ele>
        <time>2014-04-13T08:53:55.000Z</time>
      </trkpt>
      <trkpt lat="48.88759" lon="1.09048">
        <ele>200</ele>
        <time>2014-04-13T08:53:58.000Z</time>
      </trkpt>
      <trkpt lat="48.88753" lon="1.09059">
        <ele>199</ele>
        <time>2014-04-13T08:54:00.000Z</time>
      </trkpt>
      <trkpt lat="48.88746" lon="1.09069">
        <ele>199</ele>
        <time>2014-04-13T08:54:02.000Z</time>
      </trkpt>
      <trkpt lat="48.8874" lon="1.09078">
        <ele>198</ele>
        <time>2014-04-13T08:54:04.000Z</time>
      </trkpt>
      <trkpt lat="48.88733" lon="1.09085">
        <ele>198</ele>
        <time>2014-04-13T08:54:06.000Z</time>
      </trkpt>
      <trkpt lat="48.88733" lon="1.09085">
        <ele>198</ele>
        <time>2014-04-13T08:54:08.000Z</time>
      </trkpt>
      <trkpt lat="48.88726" lon="1.09091">
        <ele>198</ele>
        <time>2014-04-13T08:54:10.000Z</time>
      </trkpt>
      <trkpt lat="48.88715" lon="1.09103">
        <ele>196</ele>
        <time>2014-04-13T08:54:13.000Z</time>
      </trkpt>
      <trkpt lat="48.88705" lon="1.09115">
        <ele>195</ele>
        <time>2014-04-13T08:54:15.000Z</time>
      </trkpt>
      <trkpt lat="48.88695" lon="1.09127">
        <ele>194</ele>
        <time>2014-04-13T08:54:17.000Z</time>
      </trkpt>
      <trkpt lat="48.88683" lon="1.09142">
        <ele>193</ele>
        <time>2014-04-13T08:54:19.000Z</time>
      </trkpt>
      <trkpt lat="48.88672" lon="1.09154">
        <ele>192</ele>
        <time>2014-04-13T08:54:21.000Z</time>
      </trkpt>
      <trkpt lat="48.88661" lon="1.09165">
        <ele>191</ele>
        <time>2014-04-13T08:54:23.000Z</time>
      </trkpt>
      <trkpt lat="48.8865" lon="1.09176">
        <ele>191</ele>
        <time>2014-04-13T08:54:25.000Z</time>
      </trkpt>
      <trkpt lat="48.88639" lon="1.09186">
        <ele>192</ele>
        <time>2014-04-13T08:54:26.000Z</time>
      </trkpt>
      <trkpt lat="48.88628" lon="1.09197">
        <ele>192</ele>
        <time>2014-04-13T08:54:29.000Z</time>
      </trkpt>
      <trkpt lat="48.88617" lon="1.09208">
        <ele>192</ele>
        <time>2014-04-13T08:54:31.000Z</time>
      </trkpt>
      <trkpt lat="48.88607" lon="1.09218">
        <ele>192</ele>
        <time>2014-04-13T08:54:33.000Z</time>
      </trkpt>
      <trkpt lat="48.88596" lon="1.09229">
        <ele>192</ele>
        <time>2014-04-13T08:54:35.000Z</time>
      </trkpt>
      <trkpt lat="48.88586" lon="1.0924">
        <ele>192</ele>
        <time>2014-04-13T08:54:37.000Z</time>
      </trkpt>
      <trkpt lat="48.88575" lon="1.0925">
        <ele>193</ele>
        <time>2014-04-13T08:54:39.000Z</time>
      </trkpt>
      <trkpt lat="48.88566" lon="1.0926">
        <ele>193</ele>
        <time>2014-04-13T08:54:41.000Z</time>
      </trkpt>
      <trkpt lat="48.88558" lon="1.0927">
        <ele>194</ele>
        <time>2014-04-13T08:54:43.000Z</time>
      </trkpt>
      <trkpt lat="48.8855" lon="1.09281">
        <ele>194</ele>
        <time>2014-04-13T08:54:45.000Z</time>
      </trkpt>
      <trkpt lat="48.88543" lon="1.09294">
        <ele>194</ele>
        <time>2014-04-13T08:54:47.000Z</time>
      </trkpt>
      <trkpt lat="48.88534" lon="1.09308">
        <ele>193</ele>
        <time>2014-04-13T08:54:49.000Z</time>
      </trkpt>
      <trkpt lat="48.88528" lon="1.09321">
        <ele>193</ele>
        <time>2014-04-13T08:54:50.000Z</time>
      </trkpt>
      <trkpt lat="48.88523" lon="1.09337">
        <ele>192</ele>
        <time>2014-04-13T08:54:53.000Z</time>
      </trkpt>
      <trkpt lat="48.88519" lon="1.09355">
        <ele>190</ele>
        <time>2014-04-13T08:54:55.000Z</time>
      </trkpt>
      <trkpt lat="48.88517" lon="1.09373">
        <ele>189</ele>
        <time>2014-04-13T08:54:57.000Z</time>
      </trkpt>
      <trkpt lat="48.88512" lon="1.09389">
        <ele>187</ele>
        <time>2014-04-13T08:54:58.000Z</time>
      </trkpt>
      <trkpt lat="48.88504" lon="1.09399">
        <ele>187</ele>
        <time>2014-04-13T08:55:01.000Z</time>
      </trkpt>
      <trkpt lat="48.88493" lon="1.09407">
        <ele>187</ele>
        <time>2014-04-13T08:55:03.000Z</time>
      </trkpt>
      <trkpt lat="48.88482" lon="1.09414">
        <ele>187</ele>
        <time>2014-04-13T08:55:05.000Z</time>
      </trkpt>
      <trkpt lat="48.88469" lon="1.0942">
        <ele>188</ele>
        <time>2014-04-13T08:55:07.000Z</time>
      </trkpt>
      <trkpt lat="48.88454" lon="1.09425">
        <ele>189</ele>
        <time>2014-04-13T08:55:09.000Z</time>
      </trkpt>
      <trkpt lat="48.88439" lon="1.09431">
        <ele>190</ele>
        <time>2014-04-13T08:55:11.000Z</time>
      </trkpt>
      <trkpt lat="48.88427" lon="1.09442">
        <ele>190</ele>
        <time>2014-04-13T08:55:13.000Z</time>
      </trkpt>
      <trkpt lat="48.88415" lon="1.09452">
        <ele>191</ele>
        <time>2014-04-13T08:55:15.000Z</time>
      </trkpt>
      <trkpt lat="48.88403" lon="1.09463">
        <ele>191</ele>
        <time>2014-04-13T08:55:17.000Z</time>
      </trkpt>
      <trkpt lat="48.88391" lon="1.09474">
        <ele>191</ele>
        <time>2014-04-13T08:55:19.000Z</time>
      </trkpt>
      <trkpt lat="48.88378" lon="1.09486">
        <ele>190</ele>
        <time>2014-04-13T08:55:20.000Z</time>
      </trkpt>
      <trkpt lat="48.88364" lon="1.09495">
        <ele>190</ele>
        <time>2014-04-13T08:55:23.000Z</time>
      </trkpt>
      <trkpt lat="48.88349" lon="1.09505">
        <ele>189</ele>
        <time>2014-04-13T08:55:25.000Z</time>
      </trkpt>
      <trkpt lat="48.88334" lon="1.09513">
        <ele>188</ele>
        <time>2014-04-13T08:55:27.000Z</time>
      </trkpt>
      <trkpt lat="48.8832" lon="1.09523">
        <ele>187</ele>
        <time>2014-04-13T08:55:29.000Z</time>
      </trkpt>
      <trkpt lat="48.88306" lon="1.09534">
        <ele>187</ele>
        <time>2014-04-13T08:55:30.000Z</time>
      </trkpt>
      <trkpt lat="48.88291" lon="1.09534">
        <ele>186</ele>
        <time>2014-04-13T08:55:33.000Z</time>
      </trkpt>
      <trkpt lat="48.88277" lon="1.09521">
        <ele>185</ele>
        <time>2014-04-13T08:55:35.000Z</time>
      </trkpt>
      <trkpt lat="48.88264" lon="1.09505">
        <ele>185</ele>
        <time>2014-04-13T08:55:37.000Z</time>
      </trkpt>
      <trkpt lat="48.88254" lon="1.09491">
        <ele>185</ele>
        <time>2014-04-13T08:55:39.000Z</time>
      </trkpt>
      <trkpt lat="48.88248" lon="1.09476">
        <ele>186</ele>
        <time>2014-04-13T08:55:41.000Z</time>
      </trkpt>
      <trkpt lat="48.88248" lon="1.09459">
        <ele>187</ele>
        <time>2014-04-13T08:55:43.000Z</time>
      </trkpt>
      <trkpt lat="48.88248" lon="1.09445">
        <ele>187</ele>
        <time>2014-04-13T08:55:44.000Z</time>
      </trkpt>
      <trkpt lat="48.8825" lon="1.09427">
        <ele>187</ele>
        <time>2014-04-13T08:55:47.000Z</time>
      </trkpt>
      <trkpt lat="48.8825" lon="1.09406">
        <ele>190</ele>
        <time>2014-04-13T08:55:49.000Z</time>
      </trkpt>
      <trkpt lat="48.8825" lon="1.09383">
        <ele>192</ele>
        <time>2014-04-13T08:55:51.000Z</time>
      </trkpt>
      <trkpt lat="48.8825" lon="1.0936">
        <ele>196</ele>
        <time>2014-04-13T08:55:53.000Z</time>
      </trkpt>
      <trkpt lat="48.8825" lon="1.09337">
        <ele>198</ele>
        <time>2014-04-13T08:55:55.000Z</time>
      </trkpt>
      <trkpt lat="48.88249" lon="1.09316">
        <ele>201</ele>
        <time>2014-04-13T08:55:57.000Z</time>
      </trkpt>
      <trkpt lat="48.88251" lon="1.09292">
        <ele>202</ele>
        <time>2014-04-13T08:55:59.000Z</time>
      </trkpt>
      <trkpt lat="48.88254" lon="1.09271">
        <ele>202</ele>
        <time>2014-04-13T08:56:01.000Z</time>
      </trkpt>
      <trkpt lat="48.88258" lon="1.09252">
        <ele>199</ele>
        <time>2014-04-13T08:56:03.000Z</time>
      </trkpt>
      <trkpt lat="48.88263" lon="1.09233">
        <ele>198</ele>
        <time>2014-04-13T08:56:04.000Z</time>
      </trkpt>
      <trkpt lat="48.88268" lon="1.09219">
        <ele>196</ele>
        <time>2014-04-13T08:56:07.000Z</time>
      </trkpt>
      <trkpt lat="48.88273" lon="1.09205">
        <ele>196</ele>
        <time>2014-04-13T08:56:09.000Z</time>
      </trkpt>
      <trkpt lat="48.88279" lon="1.09186">
        <ele>197</ele>
        <time>2014-04-13T08:56:10.000Z</time>
      </trkpt>
      <trkpt lat="48.88281" lon="1.09166">
        <ele>199</ele>
        <time>2014-04-13T08:56:13.000Z</time>
      </trkpt>
      <trkpt lat="48.88282" lon="1.09144">
        <ele>200</ele>
        <time>2014-04-13T08:56:15.000Z</time>
      </trkpt>
      <trkpt lat="48.8828" lon="1.09124">
        <ele>200</ele>
        <time>2014-04-13T08:56:17.000Z</time>
      </trkpt>
      <trkpt lat="48.88272" lon="1.09111">
        <ele>200</ele>
        <time>2014-04-13T08:56:19.000Z</time>
      </trkpt>
      <trkpt lat="48.8826" lon="1.09097">
        <ele>201</ele>
        <time>2014-04-13T08:56:21.000Z</time>
      </trkpt>
      <trkpt lat="48.88246" lon="1.09082">
        <ele>201</ele>
        <time>2014-04-13T08:56:23.000Z</time>
      </trkpt>
      <trkpt lat="48.88232" lon="1.09066">
        <ele>203</ele>
        <time>2014-04-13T08:56:25.000Z</time>
      </trkpt>
      <trkpt lat="48.88224" lon="1.09049">
        <ele>203</ele>
        <time>2014-04-13T08:56:27.000Z</time>
      </trkpt>
      <trkpt lat="48.88221" lon="1.09033">
        <ele>202</ele>
        <time>2014-04-13T08:56:29.000Z</time>
      </trkpt>
      <trkpt lat="48.8822" lon="1.09018">
        <ele>200</ele>
        <time>2014-04-13T08:56:31.000Z</time>
      </trkpt>
      <trkpt lat="48.8822" lon="1.09002">
        <ele>199</ele>
        <time>2014-04-13T08:56:33.000Z</time>
      </trkpt>
      <trkpt lat="48.88222" lon="1.08987">
        <ele>199</ele>
        <time>2014-04-13T08:56:35.000Z</time>
      </trkpt>
      <trkpt lat="48.88224" lon="1.08968">
        <ele>198</ele>
        <time>2014-04-13T08:56:37.000Z</time>
      </trkpt>
      <trkpt lat="48.88226" lon="1.08952">
        <ele>198</ele>
        <time>2014-04-13T08:56:39.000Z</time>
      </trkpt>
      <trkpt lat="48.88228" lon="1.08935">
        <ele>198</ele>
        <time>2014-04-13T08:56:41.000Z</time>
      </trkpt>
      <trkpt lat="48.88229" lon="1.08921">
        <ele>198</ele>
        <time>2014-04-13T08:56:43.000Z</time>
      </trkpt>
      <trkpt lat="48.88227" lon="1.08908">
        <ele>198</ele>
        <time>2014-04-13T08:56:45.000Z</time>
      </trkpt>
      <trkpt lat="48.88218" lon="1.08908">
        <ele>198</ele>
        <time>2014-04-13T08:56:47.000Z</time>
      </trkpt>
      <trkpt lat="48.88211" lon="1.08922">
        <ele>195</ele>
        <time>2014-04-13T08:56:50.000Z</time>
      </trkpt>
      <trkpt lat="48.88205" lon="1.08937">
        <ele>191</ele>
        <time>2014-04-13T08:56:51.000Z</time>
      </trkpt>
      <trkpt lat="48.882" lon="1.08951">
        <ele>187</ele>
        <time>2014-04-13T08:56:52.000Z</time>
      </trkpt>
      <trkpt lat="48.88195" lon="1.08965">
        <ele>183</ele>
        <time>2014-04-13T08:56:54.000Z</time>
      </trkpt>
      <trkpt lat="48.88191" lon="1.0898">
        <ele>179</ele>
        <time>2014-04-13T08:56:56.000Z</time>
      </trkpt>
      <trkpt lat="48.88187" lon="1.08993">
        <ele>177</ele>
        <time>2014-04-13T08:56:58.000Z</time>
      </trkpt>
      <trkpt lat="48.88184" lon="1.09005">
        <ele>175</ele>
        <time>2014-04-13T08:57:00.000Z</time>
      </trkpt>
      <trkpt lat="48.8818" lon="1.09017">
        <ele>175</ele>
        <time>2014-04-13T08:57:02.000Z</time>
      </trkpt>
      <trkpt lat="48.88175" lon="1.0903">
        <ele>175</ele>
        <time>2014-04-13T08:57:04.000Z</time>
      </trkpt>
      <trkpt lat="48.8817" lon="1.09042">
        <ele>175</ele>
        <time>2014-04-13T08:57:06.000Z</time>
      </trkpt>
      <trkpt lat="48.88165" lon="1.09055">
        <ele>176</ele>
        <time>2014-04-13T08:57:08.000Z</time>
      </trkpt>
      <trkpt lat="48.88161" lon="1.09067">
        <ele>177</ele>
        <time>2014-04-13T08:57:10.000Z</time>
      </trkpt>
      <trkpt lat="48.88155" lon="1.09079">
        <ele>179</ele>
        <time>2014-04-13T08:57:12.000Z</time>
      </trkpt>
      <trkpt lat="48.8815" lon="1.0909">
        <ele>180</ele>
        <time>2014-04-13T08:57:14.000Z</time>
      </trkpt>
      <trkpt lat="48.88145" lon="1.09101">
        <ele>180</ele>
        <time>2014-04-13T08:57:16.000Z</time>
      </trkpt>
      <trkpt lat="48.8814" lon="1.09111">
        <ele>181</ele>
        <time>2014-04-13T08:57:18.000Z</time>
      </trkpt>
      <trkpt lat="48.88135" lon="1.09121">
        <ele>182</ele>
        <time>2014-04-13T08:57:20.000Z</time>
      </trkpt>
      <trkpt lat="48.8813" lon="1.0913">
        <ele>182</ele>
        <time>2014-04-13T08:57:22.000Z</time>
      </trkpt>
      <trkpt lat="48.88126" lon="1.09141">
        <ele>182</ele>
        <time>2014-04-13T08:57:24.000Z</time>
      </trkpt>
      <trkpt lat="48.88121" lon="1.09151">
        <ele>181</ele>
        <time>2014-04-13T08:57:26.000Z</time>
      </trkpt>
      <trkpt lat="48.88116" lon="1.09162">
        <ele>182</ele>
        <time>2014-04-13T08:57:28.000Z</time>
      </trkpt>
      <trkpt lat="48.88112" lon="1.09171">
        <ele>182</ele>
        <time>2014-04-13T08:57:30.000Z</time>
      </trkpt>
      <trkpt lat="48.88107" lon="1.09181">
        <ele>182</ele>
        <time>2014-04-13T08:57:32.000Z</time>
      </trkpt>
      <trkpt lat="48.88103" lon="1.09192">
        <ele>182</ele>
        <time>2014-04-13T08:57:34.000Z</time>
      </trkpt>
      <trkpt lat="48.881" lon="1.09201">
        <ele>182</ele>
        <time>2014-04-13T08:57:36.000Z</time>
      </trkpt>
      <trkpt lat="48.88097" lon="1.0921">
        <ele>182</ele>
        <time>2014-04-13T08:57:38.000Z</time>
      </trkpt>
      <trkpt lat="48.88095" lon="1.09221">
        <ele>182</ele>
        <time>2014-04-13T08:57:40.000Z</time>
      </trkpt>
      <trkpt lat="48.88093" lon="1.09233">
        <ele>182</ele>
        <time>2014-04-13T08:57:42.000Z</time>
      </trkpt>
      <trkpt lat="48.88091" lon="1.09244">
        <ele>183</ele>
        <time>2014-04-13T08:57:44.000Z</time>
      </trkpt>
      <trkpt lat="48.88089" lon="1.09256">
        <ele>183</ele>
        <time>2014-04-13T08:57:46.000Z</time>
      </trkpt>
      <trkpt lat="48.88088" lon="1.09268">
        <ele>183</ele>
        <time>2014-04-13T08:57:48.000Z</time>
      </trkpt>
      <trkpt lat="48.88086" lon="1.09281">
        <ele>183</ele>
        <time>2014-04-13T08:57:50.000Z</time>
      </trkpt>
      <trkpt lat="48.88085" lon="1.09294">
        <ele>183</ele>
        <time>2014-04-13T08:57:52.000Z</time>
      </trkpt>
      <trkpt lat="48.88083" lon="1.09307">
        <ele>183</ele>
        <time>2014-04-13T08:57:54.000Z</time>
      </trkpt>
      <trkpt lat="48.88082" lon="1.09318">
        <ele>183</ele>
        <time>2014-04-13T08:57:56.000Z</time>
      </trkpt>
      <trkpt lat="48.88081" lon="1.09328">
        <ele>183</ele>
        <time>2014-04-13T08:57:58.000Z</time>
      </trkpt>
      <trkpt lat="48.88078" lon="1.09337">
        <ele>183</ele>
        <time>2014-04-13T08:58:00.000Z</time>
      </trkpt>
      <trkpt lat="48.88078" lon="1.09337">
        <ele>183</ele>
        <time>2014-04-13T08:58:02.000Z</time>
      </trkpt>
      <trkpt lat="48.88074" lon="1.09353">
        <ele>183</ele>
        <time>2014-04-13T08:58:04.000Z</time>
      </trkpt>
      <trkpt lat="48.88072" lon="1.09363">
        <ele>182</ele>
        <time>2014-04-13T08:58:06.000Z</time>
      </trkpt>
      <trkpt lat="48.88068" lon="1.09373">
        <ele>182</ele>
        <time>2014-04-13T08:58:08.000Z</time>
      </trkpt>
      <trkpt lat="48.88065" lon="1.09384">
        <ele>182</ele>
        <time>2014-04-13T08:58:10.000Z</time>
      </trkpt>
      <trkpt lat="48.88062" lon="1.09394">
        <ele>182</ele>
        <time>2014-04-13T08:58:12.000Z</time>
      </trkpt>
      <trkpt lat="48.88059" lon="1.09404">
        <ele>182</ele>
        <time>2014-04-13T08:58:14.000Z</time>
      </trkpt>
      <trkpt lat="48.88056" lon="1.09414">
        <ele>182</ele>
        <time>2014-04-13T08:58:16.000Z</time>
      </trkpt>
      <trkpt lat="48.88053" lon="1.09424">
        <ele>182</ele>
        <time>2014-04-13T08:58:18.000Z</time>
      </trkpt>
      <trkpt lat="48.8805" lon="1.09433">
        <ele>182</ele>
        <time>2014-04-13T08:58:20.000Z</time>
      </trkpt>
      <trkpt lat="48.88047" lon="1.09442">
        <ele>182</ele>
        <time>2014-04-13T08:58:22.000Z</time>
      </trkpt>
      <trkpt lat="48.88044" lon="1.09453">
        <ele>182</ele>
        <time>2014-04-13T08:58:24.000Z</time>
      </trkpt>
      <trkpt lat="48.88042" lon="1.09462">
        <ele>182</ele>
        <time>2014-04-13T08:58:26.000Z</time>
      </trkpt>
      <trkpt lat="48.88039" lon="1.09472">
        <ele>182</ele>
        <time>2014-04-13T08:58:28.000Z</time>
      </trkpt>
      <trkpt lat="48.88036" lon="1.09481">
        <ele>182</ele>
        <time>2014-04-13T08:58:30.000Z</time>
      </trkpt>
      <trkpt lat="48.88033" lon="1.09491">
        <ele>182</ele>
        <time>2014-04-13T08:58:32.000Z</time>
      </trkpt>
      <trkpt lat="48.8803" lon="1.095">
        <ele>182</ele>
        <time>2014-04-13T08:58:34.000Z</time>
      </trkpt>
      <trkpt lat="48.88027" lon="1.0951">
        <ele>182</ele>
        <time>2014-04-13T08:58:36.000Z</time>
      </trkpt>
      <trkpt lat="48.88025" lon="1.0952">
        <ele>182</ele>
        <time>2014-04-13T08:58:38.000Z</time>
      </trkpt>
      <trkpt lat="48.88023" lon="1.09529">
        <ele>182</ele>
        <time>2014-04-13T08:58:40.000Z</time>
      </trkpt>
      <trkpt lat="48.8802" lon="1.09538">
        <ele>182</ele>
        <time>2014-04-13T08:58:42.000Z</time>
      </trkpt>
      <trkpt lat="48.8802" lon="1.09538">
        <ele>182</ele>
        <time>2014-04-13T08:58:44.000Z</time>
      </trkpt>
      <trkpt lat="48.88017" lon="1.09552">
        <ele>182</ele>
        <time>2014-04-13T08:58:46.000Z</time>
      </trkpt>
      <trkpt lat="48.88017" lon="1.09552">
        <ele>182</ele>
        <time>2014-04-13T08:58:48.000Z</time>
      </trkpt>
      <trkpt lat="48.88013" lon="1.0956">
        <ele>183</ele>
        <time>2014-04-13T08:58:50.000Z</time>
      </trkpt>
      <trkpt lat="48.88013" lon="1.0956">
        <ele>183</ele>
        <time>2014-04-13T08:58:52.000Z</time>
      </trkpt>
      <trkpt lat="48.88006" lon="1.09566">
        <ele>183</ele>
        <time>2014-04-13T08:58:54.000Z</time>
      </trkpt>
      <trkpt lat="48.88" lon="1.09572">
        <ele>183</ele>
        <time>2014-04-13T08:58:56.000Z</time>
      </trkpt>
      <trkpt lat="48.87995" lon="1.09579">
        <ele>184</ele>
        <time>2014-04-13T08:58:58.000Z</time>
      </trkpt>
      <trkpt lat="48.87988" lon="1.09586">
        <ele>184</ele>
        <time>2014-04-13T08:59:00.000Z</time>
      </trkpt>
      <trkpt lat="48.87983" lon="1.09593">
        <ele>184</ele>
        <time>2014-04-13T08:59:02.000Z</time>
      </trkpt>
      <trkpt lat="48.87978" lon="1.096">
        <ele>185</ele>
        <time>2014-04-13T08:59:04.000Z</time>
      </trkpt>
      <trkpt lat="48.87973" lon="1.09607">
        <ele>185</ele>
        <time>2014-04-13T08:59:06.000Z</time>
      </trkpt>
      <trkpt lat="48.87968" lon="1.09614">
        <ele>185</ele>
        <time>2014-04-13T08:59:08.000Z</time>
      </trkpt>
      <trkpt lat="48.87964" lon="1.09622">
        <ele>185</ele>
        <time>2014-04-13T08:59:10.000Z</time>
      </trkpt>
      <trkpt lat="48.8796" lon="1.09629">
        <ele>185</ele>
        <time>2014-04-13T08:59:12.000Z</time>
      </trkpt>
      <trkpt lat="48.87955" lon="1.09638">
        <ele>185</ele>
        <time>2014-04-13T08:59:14.000Z</time>
      </trkpt>
      <trkpt lat="48.8795" lon="1.09646">
        <ele>186</ele>
        <time>2014-04-13T08:59:16.000Z</time>
      </trkpt>
      <trkpt lat="48.87944" lon="1.09654">
        <ele>186</ele>
        <time>2014-04-13T08:59:18.000Z</time>
      </trkpt>
      <trkpt lat="48.8794" lon="1.09662">
        <ele>186</ele>
        <time>2014-04-13T08:59:20.000Z</time>
      </trkpt>
      <trkpt lat="48.87936" lon="1.09668">
        <ele>186</ele>
        <time>2014-04-13T08:59:22.000Z</time>
      </trkpt>
      <trkpt lat="48.87931" lon="1.09675">
        <ele>186</ele>
        <time>2014-04-13T08:59:24.000Z</time>
      </trkpt>
      <trkpt lat="48.87926" lon="1.09681">
        <ele>187</ele>
        <time>2014-04-13T08:59:26.000Z</time>
      </trkpt>
      <trkpt lat="48.87921" lon="1.09687">
        <ele>187</ele>
        <time>2014-04-13T08:59:28.000Z</time>
      </trkpt>
      <trkpt lat="48.87915" lon="1.09694">
        <ele>187</ele>
        <time>2014-04-13T08:59:30.000Z</time>
      </trkpt>
      <trkpt lat="48.87909" lon="1.09702">
        <ele>187</ele>
        <time>2014-04-13T08:59:32.000Z</time>
      </trkpt>
      <trkpt lat="48.87902" lon="1.09709">
        <ele>188</ele>
        <time>2014-04-13T08:59:34.000Z</time>
      </trkpt>
      <trkpt lat="48.87895" lon="1.09716">
        <ele>188</ele>
        <time>2014-04-13T08:59:36.000Z</time>
      </trkpt>
      <trkpt lat="48.87888" lon="1.09724">
        <ele>190</ele>
        <time>2014-04-13T08:59:38.000Z</time>
      </trkpt>
      <trkpt lat="48.87884" lon="1.09732">
        <ele>190</ele>
        <time>2014-04-13T08:59:40.000Z</time>
      </trkpt>
      <trkpt lat="48.87883" lon="1.09743">
        <ele>190</ele>
        <time>2014-04-13T08:59:42.000Z</time>
      </trkpt>
      <trkpt lat="48.87885" lon="1.09753">
        <ele>190</ele>
        <time>2014-04-13T08:59:44.000Z</time>
      </trkpt>
      <trkpt lat="48.87888" lon="1.0976">
        <ele>190</ele>
        <time>2014-04-13T08:59:46.000Z</time>
      </trkpt>
      <trkpt lat="48.87888" lon="1.0976">
        <ele>190</ele>
        <time>2014-04-13T08:59:48.000Z</time>
      </trkpt>
      <trkpt lat="48.87899" lon="1.0977">
        <ele>190</ele>
        <time>2014-04-13T08:59:50.000Z</time>
      </trkpt>
      <trkpt lat="48.87908" lon="1.09778">
        <ele>191</ele>
        <time>2014-04-13T08:59:52.000Z</time>
      </trkpt>
      <trkpt lat="48.87918" lon="1.09784">
        <ele>191</ele>
        <time>2014-04-13T08:59:54.000Z</time>
      </trkpt>
      <trkpt lat="48.87927" lon="1.0979">
        <ele>191</ele>
        <time>2014-04-13T08:59:56.000Z</time>
      </trkpt>
      <trkpt lat="48.87937" lon="1.09795">
        <ele>191</ele>
        <time>2014-04-13T08:59:58.000Z</time>
      </trkpt>
      <trkpt lat="48.87947" lon="1.09799">
        <ele>190</ele>
        <time>2014-04-13T09:00:00.000Z</time>
      </trkpt>
      <trkpt lat="48.87956" lon="1.09802">
        <ele>190</ele>
        <time>2014-04-13T09:00:02.000Z</time>
      </trkpt>
      <trkpt lat="48.87966" lon="1.09805">
        <ele>190</ele>
        <time>2014-04-13T09:00:04.000Z</time>
      </trkpt>
      <trkpt lat="48.87976" lon="1.09808">
        <ele>190</ele>
        <time>2014-04-13T09:00:06.000Z</time>
      </trkpt>
      <trkpt lat="48.87987" lon="1.09809">
        <ele>190</ele>
        <time>2014-04-13T09:00:08.000Z</time>
      </trkpt>
      <trkpt lat="48.87998" lon="1.0981">
        <ele>190</ele>
        <time>2014-04-13T09:00:10.000Z</time>
      </trkpt>
      <trkpt lat="48.8801" lon="1.0981">
        <ele>189</ele>
        <time>2014-04-13T09:00:12.000Z</time>
      </trkpt>
      <trkpt lat="48.88023" lon="1.0981">
        <ele>188</ele>
        <time>2014-04-13T09:00:14.000Z</time>
      </trkpt>
      <trkpt lat="48.88035" lon="1.09811">
        <ele>188</ele>
        <time>2014-04-13T09:00:16.000Z</time>
      </trkpt>
      <trkpt lat="48.88047" lon="1.09811">
        <ele>188</ele>
        <time>2014-04-13T09:00:18.000Z</time>
      </trkpt>
      <trkpt lat="48.88058" lon="1.0981">
        <ele>188</ele>
        <time>2014-04-13T09:00:22.000Z</time>
      </trkpt>
      <trkpt lat="48.8807" lon="1.09809">
        <ele>188</ele>
        <time>2014-04-13T09:00:23.000Z</time>
      </trkpt>
      <trkpt lat="48.88081" lon="1.09806">
        <ele>188</ele>
        <time>2014-04-13T09:00:24.000Z</time>
      </trkpt>
      <trkpt lat="48.88091" lon="1.09802">
        <ele>188</ele>
        <time>2014-04-13T09:00:26.000Z</time>
      </trkpt>
      <trkpt lat="48.88102" lon="1.09796">
        <ele>188</ele>
        <time>2014-04-13T09:00:28.000Z</time>
      </trkpt>
      <trkpt lat="48.88113" lon="1.09788">
        <ele>188</ele>
        <time>2014-04-13T09:00:30.000Z</time>
      </trkpt>
      <trkpt lat="48.88124" lon="1.09777">
        <ele>188</ele>
        <time>2014-04-13T09:00:32.000Z</time>
      </trkpt>
      <trkpt lat="48.88134" lon="1.09766">
        <ele>189</ele>
        <time>2014-04-13T09:00:34.000Z</time>
      </trkpt>
      <trkpt lat="48.88142" lon="1.09757">
        <ele>189</ele>
        <time>2014-04-13T09:00:36.000Z</time>
      </trkpt>
      <trkpt lat="48.88152" lon="1.09747">
        <ele>189</ele>
        <time>2014-04-13T09:00:38.000Z</time>
      </trkpt>
      <trkpt lat="48.88163" lon="1.09739">
        <ele>189</ele>
        <time>2014-04-13T09:00:40.000Z</time>
      </trkpt>
      <trkpt lat="48.88174" lon="1.09736">
        <ele>189</ele>
        <time>2014-04-13T09:00:42.000Z</time>
      </trkpt>
      <trkpt lat="48.88186" lon="1.09734">
        <ele>189</ele>
        <time>2014-04-13T09:00:44.000Z</time>
      </trkpt>
      <trkpt lat="48.88197" lon="1.09734">
        <ele>189</ele>
        <time>2014-04-13T09:00:46.000Z</time>
      </trkpt>
      <trkpt lat="48.88206" lon="1.09729">
        <ele>189</ele>
        <time>2014-04-13T09:00:48.000Z</time>
      </trkpt>
      <trkpt lat="48.88213" lon="1.09719">
        <ele>189</ele>
        <time>2014-04-13T09:00:50.000Z</time>
      </trkpt>
      <trkpt lat="48.8822" lon="1.09703">
        <ele>189</ele>
        <time>2014-04-13T09:00:52.000Z</time>
      </trkpt>
      <trkpt lat="48.88227" lon="1.09689">
        <ele>188</ele>
        <time>2014-04-13T09:00:54.000Z</time>
      </trkpt>
      <trkpt lat="48.88234" lon="1.09674">
        <ele>188</ele>
        <time>2014-04-13T09:00:56.000Z</time>
      </trkpt>
      <trkpt lat="48.88242" lon="1.09659">
        <ele>187</ele>
        <time>2014-04-13T09:00:58.000Z</time>
      </trkpt>
      <trkpt lat="48.88248" lon="1.09644">
        <ele>187</ele>
        <time>2014-04-13T09:01:00.000Z</time>
      </trkpt>
      <trkpt lat="48.88256" lon="1.09628">
        <ele>187</ele>
        <time>2014-04-13T09:01:02.000Z</time>
      </trkpt>
      <trkpt lat="48.88263" lon="1.09613">
        <ele>187</ele>
        <time>2014-04-13T09:01:04.000Z</time>
      </trkpt>
      <trkpt lat="48.8827" lon="1.09598">
        <ele>187</ele>
        <time>2014-04-13T09:01:06.000Z</time>
      </trkpt>
      <trkpt lat="48.88277" lon="1.09584">
        <ele>187</ele>
        <time>2014-04-13T09:01:08.000Z</time>
      </trkpt>
      <trkpt lat="48.88284" lon="1.09571">
        <ele>187</ele>
        <time>2014-04-13T09:01:10.000Z</time>
      </trkpt>
      <trkpt lat="48.88291" lon="1.09558">
        <ele>186</ele>
        <time>2014-04-13T09:01:12.000Z</time>
      </trkpt>
      <trkpt lat="48.883" lon="1.09552">
        <ele>186</ele>
        <time>2014-04-13T09:01:14.000Z</time>
      </trkpt>
      <trkpt lat="48.88309" lon="1.09563">
        <ele>186</ele>
        <time>2014-04-13T09:01:16.000Z</time>
      </trkpt>
      <trkpt lat="48.88317" lon="1.09578">
        <ele>186</ele>
        <time>2014-04-13T09:01:18.000Z</time>
      </trkpt>
      <trkpt lat="48.88324" lon="1.0959">
        <ele>186</ele>
        <time>2014-04-13T09:01:20.000Z</time>
      </trkpt>
      <trkpt lat="48.8833" lon="1.096">
        <ele>186</ele>
        <time>2014-04-13T09:01:22.000Z</time>
      </trkpt>
      <trkpt lat="48.88336" lon="1.0961">
        <ele>185</ele>
        <time>2014-04-13T09:01:24.000Z</time>
      </trkpt>
      <trkpt lat="48.88344" lon="1.09616">
        <ele>185</ele>
        <time>2014-04-13T09:01:26.000Z</time>
      </trkpt>
      <trkpt lat="48.88349" lon="1.09611">
        <ele>185</ele>
        <time>2014-04-13T09:01:28.000Z</time>
      </trkpt>
      <trkpt lat="48.88351" lon="1.09604">
        <ele>185</ele>
        <time>2014-04-13T09:01:30.000Z</time>
      </trkpt>
      <trkpt lat="48.88351" lon="1.09604">
        <ele>185</ele>
        <time>2014-04-13T09:01:32.000Z</time>
      </trkpt>
      <trkpt lat="48.88351" lon="1.09604">
        <ele>185</ele>
        <time>2014-04-13T09:01:34.000Z</time>
      </trkpt>
      <trkpt lat="48.88351" lon="1.09604">
        <ele>185</ele>
        <time>2014-04-13T09:01:36.000Z</time>
      </trkpt>
      <trkpt lat="48.88351" lon="1.09604">
        <ele>185</ele>
        <time>2014-04-13T09:01:38.000Z</time>
      </trkpt>
      <trkpt lat="48.88351" lon="1.09604">
        <ele>185</ele>
        <time>2014-04-13T09:01:40.000Z</time>
      </trkpt>
      <trkpt lat="48.88351" lon="1.09604">
        <ele>185</ele>
        <time>2014-04-13T09:01:42.000Z</time>
      </trkpt>
      <trkpt lat="48.88351" lon="1.09604">
        <ele>185</ele>
        <time>2014-04-13T09:01:44.000Z</time>
      </trkpt>
      <trkpt lat="48.88351" lon="1.09604">
        <ele>185</ele>
        <time>2014-04-13T09:01:46.000Z</time>
      </trkpt>
      <trkpt lat="48.88351" lon="1.09604">
        <ele>185</ele>
        <time>2014-04-13T09:01:48.000Z</time>
      </trkpt>
      <trkpt lat="48.88351" lon="1.09604">
        <ele>185</ele>
        <time>2014-04-13T09:01:50.000Z</time>
      </trkpt>
      <trkpt lat="48.88351" lon="1.09604">
        <ele>185</ele>
        <time>2014-04-13T09:01:56.000Z</time>
      </trkpt>
      <trkpt lat="48.88351" lon="1.09604">
        <ele>185</ele>
        <time>2014-04-13T09:01:58.000Z</time>
      </trkpt>
      <trkpt lat="48.88351" lon="1.09604">
        <ele>185</ele>
        <time>2014-04-13T09:02:02.000Z</time>
      </trkpt>
      <trkpt lat="48.8835" lon="1.096">
        <ele>188</ele>
        <time>2014-04-13T09:02:14.000Z</time>
      </trkpt>
    </trkseg>
  </trk>
</gpx>